[[{"header":{"parameterUnit":"m.s-1","parameterCategory":1,"la1":30.6,"la2":28.766,"lo1":-90.7593,"lo2":-88.6598,"dy":0.0162,"dx":0.0183,"nx":116,"ny":114,"refTime":"2024-03-25T06:00:00:Z","depth":0,"parameterNumber":2,"parameterNumberName":"U-component_of_WINDS"},"data":[0.0,0.0,0.0,0.0,0.0,0.0,0.0,0.0,0.0,0.0,0.0,0.0,0.0,0.0,0.0,0.0,0.0,0.0,0.0,0.0,0.0,0.0,0.0,0.0,0.0,0.0,0.0,0.0,0.0,0.0,0.0,0.0,0.0,0.0,0.0,0.0,0.0,0.0,0.0,0.0,0.0,0.0,0.0,0.0,0.0,0.0,0.0,0.0,0.0,0.0,0.0,0.0,0.0,0.0,0.0,0.0,0.0,0.0,0.0,0.0,0.0,0.0,0.0,0.0,0.0,0.0,0.0,0.0,0.0,0.0,0.0,0.0,0.0,0.0,0.0,0.0,0.0,0.0,0.0,0.0,0.0,0.0,0.0,0.0,0.0,0.0,0.0,0.0,0.0,0.0,0.0,0.0,0.0,0.0,0.0,0.0,0.0,0.0,0.0,0.0,0.0,0.0,0.0,0.0,0.0,0.0,0.0,0.0,0.0,0.0,0.0,0.0,0.0,0.0,0.0,0.0,0.0,0.0,0.0,0.0,0.0,0.0,0.0,0.0,0.0,0.0,0.0,0.0,0.0,0.0,0.0,0.0,0.0,0.0,0.0,0.0,0.0,0.0,0.0,0.0,0.0,0.0,0.0,0.0,0.0,0.0,0.0,0.0,0.0,0.0,0.0,0.0,0.0,0.0,0.0,0.0,0.0,0.0,0.0,0.0,0.0,0.0,0.0,0.0,0.0,0.0,0.0,0.0,0.0,0.0,0.0,0.0,0.0,0.0,0.0,0.0,0.0,0.0,0.0,0.0,0.0,0.0,0.0,0.0,0.0,0.0,0.0,0.0,0.0,0.0,0.0,0.0,0.0,0.0,0.0,0.0,0.0,0.0,0.0,0.0,0.0,0.0,0.0,0.0,0.0,0.0,0.0,0.0,0.0,0.0,0.0,0.0,0.0,0.0,0.0,0.0,0.0,0.0,0.0,0.0,0.0,0.0,0.0,0.0,0.0,0.0,0.0,0.0,0.0,0.0,0.0,0.0,0.0,0.0,0.0,0.0,0.0,0.0,0.0,0.0,0.0,0.0,0.0,0.0,0.0,0.0,0.0,0.0,0.0,0.0,0.0,0.0,0.0,0.0,0.0,0.0,0.0,0.0,0.0,0.0,0.0,0.0,0.0,0.0,0.0,0.0,0.0,0.0,0.0,0.0,0.0,0.0,0.0,0.0,0.0,0.0,0.0,0.0,0.0,0.0,0.0,0.0,0.0,0.0,0.0,0.0,0.0,0.0,0.0,0.0,0.0,0.0,0.0,0.0,0.0,0.0,0.0,0.0,0.0,0.0,0.0,0.0,0.0,0.0,0.0,0.0,0.0,0.0,0.0,0.0,0.0,0.0,0.0,0.0,0.0,0.0,0.0,0.0,0.0,0.0,0.0,0.0,0.0,0.0,0.0,0.0,0.0,0.0,0.0,0.0,0.0,0.0,0.0,0.0,0.0,0.0,0.0,0.0,0.0,0.0,0.0,0.0,0.0,0.0,0.0,0.0,0.0,0.0,0.0,0.0,0.0,0.0,0.0,0.0,0.0,0.0,0.0,0.0,0.0,0.0,0.0,0.0,0.0,0.0,0.0,0.0,0.0,0.0,0.0,0.0,0.0,0.0,0.0,0.0,0.0,0.0,0.0,0.0,0.0,0.0,0.0,0.0,0.0,0.0,0.0,0.0,0.0,0.0,0.0,0.0,0.0,0.0,0.0,0.0,0.0,0.0,0.0,0.0,0.0,0.0,0.0,0.0,0.0,0.0,0.0,0.0,0.0,0.0,0.0,0.0,0.0,0.0,0.0,0.0,0.0,0.0,0.0,0.0,0.0,0.0,0.0,0.0,0.0,0.0,0.0,0.0,0.0,0.0,0.0,0.0,0.0,0.0,0.0,0.0,0.0,0.0,0.0,0.0,0.0,0.0,0.0,0.0,0.0,0.0,0.0,0.0,0.0,0.0,0.0,0.0,0.0,0.0,0.0,0.0,0.0,0.0,0.0,0.0,0.0,0.0,0.0,0.0,0.0,0.0,0.0,0.0,0.0,0.0,0.0,0.0,0.0,0.0,0.0,0.0,0.0,0.0,0.0,0.0,0.0,0.0,0.0,0.0,0.0,0.0,0.0,0.0,0.0,0.0,0.0,0.0,0.0,0.0,0.0,0.0,0.0,0.0,0.0,0.0,0.0,0.0,0.0,0.0,0.0,0.0,0.0,0.0,0.0,0.0,0.0,0.0,0.0,0.0,0.0,0.0,0.0,0.0,0.0,0.0,0.0,0.0,0.0,0.0,0.0,0.0,0.0,0.0,0.0,0.0,0.0,0.0,0.0,0.0,0.0,0.0,0.0,0.0,0.0,0.0,0.0,0.0,0.0,0.0,0.0,0.0,0.0,0.0,0.0,0.0,0.0,0.0,0.0,0.0,0.0,0.0,0.0,0.0,0.0,0.0,0.0,0.0,0.0,0.0,0.0,0.0,0.0,0.0,0.0,0.0,0.0,0.0,0.0,0.0,0.0,0.0,0.0,0.0,0.0,0.0,0.0,0.0,0.0,0.0,0.0,0.0,0.0,0.0,0.0,0.0,0.0,0.0,0.0,0.0,0.0,0.0,0.0,0.0,0.0,0.0,0.0,0.0,0.0,0.0,0.0,0.0,0.0,0.0,0.0,0.0,0.0,0.0,0.0,0.0,0.0,0.0,0.0,0.0,0.0,0.0,0.0,0.0,0.0,0.0,0.0,0.0,0.0,0.0,0.0,0.0,0.0,0.0,0.0,0.0,0.0,0.0,0.0,0.0,0.0,0.0,0.0,0.0,0.0,0.0,0.0,0.0,0.0,0.0,0.0,0.0,0.0,0.0,0.0,0.0,0.0,0.0,0.0,0.0,0.0,0.0,0.0,0.0,0.0,0.0,0.0,0.0,0.0,0.0,0.0,0.0,0.0,0.0,0.0,0.0,0.0,0.0,0.0,0.0,0.0,0.0,0.0,0.0,0.0,0.0,0.0,0.0,0.0,0.0,0.0,0.0,0.0,0.0,0.0,0.0,0.0,0.0,0.0,0.0,0.0,0.0,0.0,0.0,0.0,0.0,0.0,0.0,0.0,0.0,0.0,0.0,0.0,0.0,0.0,0.0,0.0,0.0,0.0,0.0,0.0,0.0,0.0,0.0,0.0,0.0,0.0,0.0,0.0,0.0,0.0,0.0,0.0,0.0,0.0,0.0,0.0,0.0,0.0,0.0,0.0,0.0,0.0,0.0,0.0,0.0,0.0,0.0,0.0,0.0,0.0,0.0,0.0,0.0,0.0,0.0,0.0,0.0,0.0,0.0,0.0,0.0,0.0,0.0,0.0,0.0,0.0,0.0,0.0,0.0,0.0,0.0,0.0,0.0,0.0,0.0,0.0,0.0,0.0,0.0,0.0,0.0,0.0,0.0,0.0,0.0,0.0,0.0,0.0,0.0,0.0,0.0,0.0,0.0,0.0,0.0,0.0,0.0,0.0,0.0,0.0,0.0,0.0,0.0,0.0,0.0,0.0,0.0,0.0,0.0,0.0,0.0,0.0,0.0,0.0,0.0,0.0,0.0,0.0,0.0,0.0,0.0,0.0,0.0,0.0,0.0,0.0,0.0,0.0,0.0,0.0,0.0,0.0,0.0,0.0,0.0,0.0,0.0,0.0,0.0,0.0,0.0,0.0,0.0,0.0,0.0,0.0,0.0,0.0,0.0,0.0,0.0,0.0,0.0,0.0,0.0,0.0,0.0,0.0,0.0,0.0,0.0,0.0,0.0,0.0,0.0,0.0,0.0,0.0,0.0,0.0,0.0,0.0,0.0,0.0,0.0,0.0,0.0,0.0,0.0,0.0,0.0,0.0,0.0,0.0,0.0,0.0,0.0,0.0,0.0,0.0,0.0,0.0,0.0,0.0,0.0,0.0,0.0,0.0,0.0,0.0,0.0,0.0,0.0,0.0,0.0,0.0,0.0,0.0,0.0,0.0,0.0,0.0,0.0,0.0,0.0,0.0,0.0,0.0,0.0,0.0,0.0,0.0,0.0,0.0,0.0,0.0,0.0,0.0,0.0,0.0,0.0,0.0,0.0,0.0,0.0,0.0,0.0,0.0,0.0,0.0,0.0,0.0,0.0,0.0,0.0,0.0,0.0,0.0,0.0,0.0,0.0,0.0,0.0,0.0,0.0,0.0,0.0,0.0,0.0,0.0,0.0,0.0,0.0,0.0,0.0,0.0,0.0,0.0,0.0,0.0,0.0,0.0,0.0,0.0,0.0,0.0,0.0,0.0,0.0,0.0,0.0,0.0,0.0,0.0,0.0,0.0,0.0,0.0,0.0,0.0,0.0,0.0,0.0,0.0,0.0,0.0,0.0,0.0,0.0,0.0,0.0,0.0,0.0,0.0,0.0,0.0,0.0,0.0,0.0,0.0,0.0,0.0,0.0,0.0,0.0,0.0,0.0,0.0,0.0,0.0,0.0,0.0,0.0,0.0,0.0,0.0,0.0,0.0,0.0,0.0,0.0,0.0,0.0,0.0,0.0,0.0,0.0,0.0,0.0,0.0,0.0,0.0,0.0,0.0,0.0,0.0,0.0,0.0,0.0,0.0,0.0,0.0,0.0,0.0,0.0,0.0,0.0,0.0,0.0,0.0,0.0,0.0,0.0,0.0,0.0,0.0,0.0,0.0,0.0,0.0,0.0,0.0,0.0,0.0,0.0,0.0,0.0,0.0,0.0,0.0,0.0,0.0,0.0,0.0,0.0,0.0,0.0,0.0,0.0,0.0,0.0,0.0,0.0,0.0,0.0,0.0,0.0,0.0,0.0,0.0,0.0,0.0,0.0,0.0,0.0,0.0,0.0,0.0,0.0,0.0,0.0,0.0,0.0,0.0,0.0,0.0,0.0,0.0,0.0,0.0,0.0,0.0,0.0,0.0,0.0,0.0,0.0,0.0,0.0,0.0,0.0,0.0,0.0,0.0,0.0,0.0,0.0,0.0,0.0,0.0,0.0,0.0,0.0,0.0,0.0,0.0,0.0,0.0,0.0,0.0,0.0,0.0,0.0,0.0,0.0,0.0,0.0,0.0,0.0,0.0,0.0,0.0,0.0,0.0,0.0,0.0,0.0,0.0,0.0,0.0,0.0,0.0,0.0,0.0,0.0,0.0,0.0,0.0,0.0,0.0,0.0,0.0,0.0,0.0,0.0,0.0,0.0,0.0,0.0,0.0,0.0,0.0,0.0,0.0,0.0,0.0,0.0,0.0,0.0,0.0,0.0,0.0,0.0,0.0,0.0,0.0,0.0,0.0,0.0,0.0,0.0,0.0,0.0,0.0,0.0,0.0,0.0,0.0,0.0,0.0,0.0,0.0,0.0,0.0,0.0,0.0,0.0,0.0,0.0,0.0,0.0,0.0,0.0,0.0,0.0,0.0,0.0,0.0,0.0,0.0,0.0,0.0,0.0,0.0,0.0,0.0,0.0,0.0,0.0,0.0,0.0,0.0,0.0,0.0,0.0,0.0,0.0,0.0,0.0,0.0,0.0,0.0,0.0,0.0,0.0,0.0,0.0,0.0,0.0,0.0,0.0,0.0,0.0,0.0,0.0,0.0,0.0,0.0,0.0,0.0,0.0,0.0,0.0,0.0,0.0,0.0,0.0,0.0,0.0,0.0,0.0,0.0,0.0,0.0,0.0,0.0,0.0,0.0,0.0,0.0,0.0,0.0,0.0,0.0,0.0,0.0,0.0,0.0,0.0,0.0,0.0,0.0,0.0,0.0,0.0,0.0,0.0,0.0,0.0,0.0,0.0,0.0,0.0,0.0,0.0,0.0,0.0,0.0,0.0,0.0,0.0,0.0,0.0,0.0,0.0,0.0,0.0,0.0,0.0,0.0,0.0,0.0,0.0,0.0,0.0,0.0,0.0,0.0,0.0,0.0,0.0,0.0,0.0,0.0,0.0,0.0,0.0,0.0,0.0,0.0,0.0,0.0,0.0,0.0,0.0,0.0,0.0,0.0,0.0,0.0,0.0,0.0,0.0,0.0,0.0,0.0,0.0,0.0,0.0,0.0,0.0,0.0,0.0,3.2905,0.0,0.0,0.0,0.0,0.0,0.0,0.0,0.0,0.0,0.0,0.0,0.0,0.0,0.0,0.0,0.0,0.0,0.0,0.0,0.0,0.0,0.0,0.0,0.0,2.1136,2.1795,2.2248,2.2629,0.0,0.0,0.0,0.0,0.0,0.0,0.0,2.4782,2.5547,2.5939,2.5974,2.6703,2.7037,2.6971,2.6589,2.6653,2.7109,0.0,0.0,0.0,0.0,0.0,0.0,0.0,0.0,0.0,0.0,0.0,0.0,0.0,0.0,0.0,0.0,0.0,0.0,0.0,0.0,0.0,0.0,0.0,0.0,0.0,0.0,0.0,0.0,0.0,0.0,0.0,0.0,0.0,0.0,0.0,0.0,0.0,0.0,0.0,0.0,0.0,0.0,0.0,0.0,0.0,0.0,0.0,0.0,0.0,0.0,0.0,0.0,0.0,0.0,0.0,0.0,0.0,0.0,0.0,0.0,0.0,0.0,0.0,0.0,0.0,0.0,0.0,0.0,0.0,0.0,0.0,3.3663,0.0,0.0,0.0,0.0,0.0,0.0,0.0,0.0,0.0,0.0,0.0,0.0,0.0,0.0,0.0,0.0,0.0,0.0,0.0,0.0,0.0,2.0199,2.1447,2.1722,2.2058,2.2745,2.2786,2.2888,2.3091,2.3149,0.0,0.0,0.0,0.0,2.5505,2.6296,2.6737,2.6752,2.7295,2.7534,2.7473,2.7465,2.7496,2.7557,2.7579,0.0,0.0,0.0,0.0,0.0,0.0,0.0,0.0,0.0,0.0,0.0,0.0,0.0,0.0,0.0,0.0,0.0,0.0,0.0,0.0,0.0,0.0,0.0,0.0,0.0,0.0,0.0,0.0,0.0,0.0,0.0,0.0,0.0,0.0,0.0,0.0,0.0,0.0,0.0,0.0,0.0,0.0,0.0,0.0,0.0,0.0,0.0,0.0,0.0,0.0,0.0,0.0,0.0,0.0,0.0,0.0,0.0,0.0,0.0,0.0,0.0,0.0,0.0,3.63,3.6544,3.7038,3.6954,3.6906,3.6746,3.5726,3.5199,3.506,0.0,0.0,0.0,0.0,0.0,0.0,0.0,0.0,0.0,0.0,0.0,0.0,0.0,0.0,0.0,0.0,0.0,0.0,0.0,0.0,2.1378,2.1585,2.2171,2.2604,2.2779,2.2786,2.313,2.3898,2.3946,0.0,0.0,0.0,2.6282,2.6416,2.7115,2.747,2.7477,2.743,2.7423,2.7407,2.7353,2.736,2.743,2.7481,2.7519,2.7534,0.0,0.0,0.0,0.0,0.0,0.0,0.0,0.0,0.0,0.0,0.0,0.0,0.0,0.0,0.0,0.0,0.0,0.0,0.0,0.0,0.0,0.0,0.0,0.0,0.0,0.0,0.0,0.0,0.0,0.0,0.0,0.0,0.0,0.0,0.0,0.0,0.0,0.0,0.0,0.0,0.0,3.0834,3.1612,0.0,0.0,0.0,0.0,0.0,0.0,0.0,0.0,0.0,0.0,0.0,0.0,0.0,3.5728,3.6311,3.6391,3.6503,3.6615,3.6615,3.6671,3.6751,3.6738,3.6719,3.6694,3.6547,0.0,3.6673,3.6717,0.0,0.0,0.0,0.0,0.0,0.0,0.0,0.0,0.0,0.0,0.0,0.0,0.0,0.0,0.0,0.0,0.0,0.0,0.0,0.0,0.0,2.2382,2.2635,2.2473,2.302,2.3474,2.3673,2.4344,0.0,0.0,2.6167,2.6622,2.7105,2.7372,2.7709,2.8118,2.8047,2.8199,2.8565,2.854,2.854,2.8573,2.8614,2.8201,2.7503,2.7503,0.0,0.0,0.0,0.0,0.0,0.0,0.0,0.0,0.0,0.0,0.0,0.0,0.0,0.0,0.0,0.0,0.0,0.0,0.0,0.0,0.0,0.0,0.0,0.0,0.0,0.0,0.0,0.0,0.0,0.0,0.0,0.0,0.0,0.0,0.0,0.0,0.0,0.0,0.0,3.1271,3.1586,3.1928,3.2397,3.2675,0.0,0.0,0.0,0.0,0.0,0.0,0.0,0.0,0.0,3.6205,3.6267,3.6665,3.738,3.738,3.7863,3.8792,3.8792,3.9015,3.9461,3.9461,3.9461,3.9461,3.9461,3.95,3.9441,3.7617,3.7003,3.7224,0.0,0.0,0.0,0.0,3.8422,3.8818,0.0,0.0,0.0,0.0,0.0,0.0,0.0,0.0,0.0,0.0,0.0,0.0,2.2289,2.246,2.2596,2.263,2.3294,2.3802,2.4054,2.4936,2.5753,2.6479,2.6566,2.6882,2.7503,2.7612,2.793,2.8459,2.8874,2.9333,2.9799,3.0006,3.0101,3.0075,2.9903,2.9039,2.7712,2.7712,2.7624,2.7465,0.0,0.0,0.0,0.0,0.0,0.0,0.0,0.0,0.0,0.0,0.0,0.0,0.0,0.0,0.0,0.0,0.0,0.0,0.0,0.0,0.0,0.0,0.0,0.0,0.0,0.0,0.0,0.0,0.0,0.0,0.0,0.0,0.0,0.0,0.0,0.0,0.0,3.2323,3.2376,3.2463,3.305,3.3526,0.0,0.0,0.0,0.0,0.0,0.0,3.5826,3.6614,3.7135,3.7306,3.7529,3.8049,3.8829,3.8866,3.9572,4.1021,4.1021,4.143,4.2211,4.2211,4.2211,4.2211,4.2211,4.2211,4.1988,3.9181,3.8102,3.8203,3.8246,3.8727,3.9422,3.9405,3.9817,4.0337,0.0,0.0,0.0,0.0,0.0,0.0,0.0,0.0,0.0,0.0,0.0,2.2283,2.2635,2.2412,2.263,2.3633,2.3545,2.4137,2.5857,2.6032,2.6458,2.7288,2.733,2.7377,2.7503,2.8132,2.8424,2.8428,2.9877,3.061,3.0636,3.1361,3.1662,3.1662,3.0947,2.9774,2.8367,2.8367,2.7993,2.7399,2.7399,0.0,0.0,0.0,0.0,0.0,0.0,0.0,0.0,0.0,0.0,0.0,0.0,0.0,0.0,0.0,0.0,0.0,0.0,0.0,0.0,0.0,0.0,0.0,0.0,0.0,0.0,0.0,0.0,0.0,0.0,0.0,0.0,0.0,0.0,0.0,0.0,0.0,0.0,3.3999,3.4116,0.0,0.0,0.0,0.0,3.6532,3.6606,3.6643,3.6637,3.7424,3.8198,3.8971,3.9795,4.0613,4.143,4.143,4.1839,4.2686,4.2686,4.3095,4.3875,4.3875,4.3875,4.3875,4.3875,4.3875,4.3763,4.2062,4.14,4.1464,4.1471,4.1528,4.1635,4.1558,4.1567,4.1597,0.0,0.0,0.0,0.0,0.0,0.0,1.9529,2.046,2.1164,2.1377,2.1734,2.1904,2.1794,2.2514,2.303,2.3205,2.4388,2.5309,2.5737,2.6503,2.7091,2.7392,2.7392,2.7626,2.806,2.8788,2.9618,3.0593,3.1593,3.2396,3.2879,3.3155,3.3293,3.3258,3.3017,3.2292,3.1214,2.9722,2.8704,2.8046,2.8046,2.7799,0.0,0.0,0.0,0.0,0.0,0.0,0.0,0.0,0.0,0.0,0.0,0.0,0.0,0.0,0.0,0.0,0.0,0.0,0.0,0.0,0.0,0.0,0.0,0.0,0.0,0.0,0.0,0.0,0.0,0.0,0.0,0.0,0.0,0.0,0.0,0.0,0.0,3.4934,3.5039,0.0,3.6191,3.6265,3.66,3.7417,3.7931,3.8495,3.9052,3.9832,4.0643,4.146,4.1765,4.2612,4.3957,4.3994,4.4395,4.5175,4.5175,4.5324,4.5621,4.5621,4.5621,4.5621,4.5621,4.5621,4.5547,4.4989,4.4113,4.3133,4.2612,4.2411,4.2396,4.1846,4.1653,4.1645,0.0,0.0,0.0,0.0,0.0,0.0,1.9928,2.0773,2.1387,2.1571,2.1738,2.1904,2.2136,2.2787,2.3433,2.3946,2.5179,2.5994,2.6146,2.6916,2.736,2.736,2.7595,2.8055,2.8765,2.9765,3.0903,3.2179,3.299,3.3755,3.4456,3.4391,3.443,3.4576,3.4171,3.3679,3.3046,3.1259,2.9997,2.9144,2.8868,2.8357,2.778,0.0,0.0,0.0,0.0,0.0,0.0,0.0,0.0,0.0,0.0,0.0,0.0,0.0,0.0,0.0,0.0,0.0,0.0,0.0,0.0,0.0,0.0,0.0,0.0,0.0,0.0,0.0,0.0,0.0,0.0,0.0,0.0,0.0,0.0,0.0,3.5423,3.6197,3.6303,3.6748,3.7826,3.7937,3.8272,3.9089,3.99,4.0606,4.117,4.2248,4.3095,4.3622,4.3912,4.4581,4.5703,4.5703,4.6104,4.6884,4.6884,4.7033,4.7293,4.7293,4.7293,4.7293,4.7293,4.7293,4.7293,4.7293,4.6661,4.5547,4.4469,4.4061,4.3986,4.3466,4.3243,4.3243,0.0,0.0,0.0,0.0,0.0,1.9691,1.9957,2.1005,2.1882,2.2122,2.194,2.2292,2.3611,2.3246,2.376,2.5903,2.5813,2.6123,2.7231,2.729,2.7324,2.7324,2.8075,2.8799,2.9515,3.1076,3.2204,3.2909,3.3938,3.4708,3.5218,3.4947,3.5121,3.5577,3.4318,3.3766,3.3722,3.2905,3.1879,3.0729,2.9877,2.9126,2.8536,0.0,0.0,0.0,0.0,0.0,0.0,0.0,0.0,0.0,0.0,0.0,0.0,0.0,0.0,0.0,0.0,0.0,0.0,0.0,0.0,0.0,0.0,0.0,0.0,0.0,0.0,0.0,0.0,0.0,0.0,0.0,0.0,0.0,3.5758,3.6273,3.7046,3.7826,3.7975,3.8643,4.0315,4.0464,4.0836,4.1653,4.2426,4.2872,4.2909,4.4477,4.5369,4.5369,4.6141,4.655,4.655,4.655,4.6958,4.7738,4.7738,4.8147,4.889,4.889,4.889,4.889,4.889,4.889,4.889,4.889,4.889,4.8742,4.7144,4.655,4.6513,4.6513,4.6513,4.6513,0.0,0.0,0.0,0.0,0.0,1.9848,1.9678,2.0858,2.1637,2.1245,2.1315,2.178,2.268,2.3104,2.3984,2.5609,2.6138,2.6662,2.7266,2.729,2.7531,2.8075,2.936,3.0153,3.036,3.2396,3.3377,3.3206,3.4935,3.5688,3.5493,3.5763,3.5974,3.6092,3.5724,3.5405,3.5026,3.423,3.3482,3.2725,3.1195,3.0178,2.951,0.0,0.0,0.0,0.0,0.0,0.0,0.0,0.0,0.0,0.0,0.0,0.0,0.0,0.0,0.0,0.0,0.0,0.0,0.0,0.0,0.0,0.0,0.0,0.0,0.0,0.0,0.0,0.0,0.0,0.0,0.0,0.0,3.7975,3.6588,3.7052,3.7863,3.8674,3.9349,4.0353,4.198,4.2129,4.2731,4.4172,4.4477,4.4886,4.5435,4.5918,4.6438,4.7033,4.7256,4.7664,4.8221,4.8259,4.837,4.8556,4.8556,4.8704,4.889,4.889,4.889,4.889,4.889,4.889,4.889,4.889,4.889,4.8816,4.7776,4.7367,4.7293,4.6735,4.6513,4.6513,0.0,0.0,0.0,0.0,0.0,1.9837,1.9954,2.0891,2.1457,2.1063,2.1175,2.1816,2.3133,2.3399,2.4248,2.6149,2.6562,2.6883,2.7266,2.76,2.8139,2.9032,3.0125,3.1028,3.1768,3.3077,3.3945,3.4258,3.5015,3.5442,3.5599,3.5225,3.5168,3.5362,3.5156,3.4899,3.4604,3.414,3.3785,3.3433,3.2264,3.1427,3.0803,3.0351,3.016,3.0058,2.9864,2.9824,2.9897,2.9981,0.0,0.0,0.0,0.0,0.0,0.0,0.0,0.0,0.0,0.0,0.0,0.0,0.0,0.0,0.0,0.0,0.0,0.0,0.0,0.0,0.0,0.0,0.0,0.0,3.8792,3.9565,3.9275,3.9647,4.0234,4.1051,4.1906,4.2954,4.4209,4.4358,4.4729,4.574,4.6104,4.6513,4.6995,4.733,4.7738,4.8184,4.8184,4.8444,4.889,4.889,4.889,4.889,4.889,4.889,4.889,4.889,4.889,0.0,4.889,4.889,4.889,4.889,4.889,0.0,0.0,0.0,0.0,0.0,4.7516,4.7516,0.0,0.0,0.0,0.0,0.0,1.9741,2.0426,2.1005,2.134,2.1301,2.1324,2.2151,2.4289,2.3877,2.448,2.7065,2.69,2.6859,2.7297,2.8085,2.899,3.0089,3.0674,3.1718,3.3267,3.3406,3.4082,3.5307,3.4618,3.4741,3.5508,3.4288,3.3944,3.439,3.3905,3.3675,3.3623,3.3528,3.3456,3.338,3.3072,3.2708,3.2285,3.153,3.1204,3.1079,3.0283,3.0091,3.0249,3.0161,0.0,0.0,0.0,0.0,0.0,0.0,0.0,0.0,0.0,0.0,0.0,0.0,0.0,0.0,0.0,0.0,0.0,0.0,0.0,0.0,0.0,0.0,0.0,0.0,4.013,4.1319,4.2723,4.3169,4.354,4.4098,4.4915,4.574,4.655,4.6624,4.6661,4.6773,4.7441,4.785,4.785,0.0,0.0,0.0,0.0,4.889,4.889,4.889,4.889,4.889,4.889,4.889,4.889,4.889,4.889,4.889,4.889,4.889,4.889,4.889,4.889,4.889,4.889,4.889,4.889,4.889,4.889,4.889,0.0,0.0,0.0,0.0,0.0,1.9665,2.014,2.105,2.161,2.1332,2.1541,2.2411,2.4312,2.3603,2.4181,2.7049,2.6641,2.6626,2.7554,2.8682,2.9787,3.0842,3.212,3.2933,3.329,3.4097,3.4159,3.3424,3.4857,3.5428,3.5215,3.588,3.6277,3.6366,3.6264,3.5948,3.5508,3.4987,3.4494,3.4049,3.3477,3.3294,3.3372,3.2997,3.3114,3.3356,3.2681,3.2459,3.241,3.1926,3.1777,3.1812,3.1992,0.0,0.0,0.0,0.0,0.0,0.0,0.0,0.0,0.0,0.0,0.0,0.0,0.0,0.0,0.0,0.0,0.0,0.0,0.0,0.0,4.013,4.1906,4.3392,4.3726,4.5472,4.6327,4.5175,4.5769,4.6587,4.7404,4.7478,4.7738,4.8407,4.8593,4.8667,4.8667,4.8816,0.0,4.889,4.889,4.889,4.889,4.889,4.889,4.889,0.0,0.0,4.889,4.889,4.889,4.889,4.889,4.889,4.889,4.889,4.889,4.889,4.889,4.889,4.889,4.889,4.889,4.889,0.0,0.0,0.0,0.0,0.0,1.9982,2.0596,2.1342,2.1685,2.134,2.1595,2.2403,2.4007,2.3576,2.4111,2.6489,2.653,2.6747,2.7604,2.8614,2.9736,3.0939,3.1906,3.2639,3.3149,3.3597,3.3726,3.3501,3.4561,3.5092,3.5124,3.581,3.6152,3.6152,3.6152,3.6005,3.5746,3.5376,3.4863,3.427,3.3954,3.3976,3.4197,3.3706,3.3994,3.4545,3.3834,3.3363,3.3048,3.275,3.2457,3.2223,3.2275,3.2456,3.2743,0.0,0.0,0.0,0.0,0.0,0.0,0.0,0.0,0.0,0.0,0.0,0.0,0.0,0.0,3.8755,3.961,0.0,4.0799,4.2017,4.3206,4.4432,4.5695,4.6921,4.7404,4.6587,4.7218,4.785,4.8259,4.8296,4.8481,4.889,4.889,4.889,4.889,4.889,4.889,4.889,4.9299,4.9513,4.9513,4.993,5.0153,5.0153,5.0153,5.0153,5.0153,5.0153,5.0153,5.0153,5.0153,5.0153,5.0153,5.0153,5.0153,5.0153,5.0153,4.9633,4.889,4.889,4.915,4.9513,0.0,0.0,0.0,0.0,0.0,2.0331,2.1251,2.1632,2.173,2.1518,2.1645,2.2381,2.3946,2.3677,2.4085,2.5838,2.6411,2.6959,2.7569,2.8439,2.9492,3.0834,3.1352,3.2007,3.2971,3.2982,3.3307,3.3949,3.4168,3.4595,3.5148,3.5458,3.5661,3.5819,3.5819,3.5819,3.5788,3.5535,3.5061,3.4492,3.4207,3.4375,3.4726,3.414,3.4532,3.5328,3.4569,3.3878,3.3272,3.3152,3.2812,3.2432,3.245,3.2625,3.3046,3.3954,3.4197,0.0,0.0,0.0,0.0,0.0,0.0,0.0,0.0,0.0,3.9157,3.9305,3.9342,3.9602,4.0464,4.0873,4.172,4.3689,4.4395,4.5435,4.7404,4.7813,4.7899,4.7821,4.8475,4.889,4.889,4.889,4.889,4.889,4.889,4.8855,4.8785,4.8847,4.893,4.8999,4.97,5.0182,5.033,5.0963,5.1223,5.1223,5.1223,5.1223,5.126,5.1343,5.1416,5.1416,5.1416,5.1416,5.1416,5.1416,5.1416,5.1416,5.1416,5.0562,4.941,4.941,4.9819,5.033,0.0,0.0,0.0,0.0,0.0,0.0,2.1566,2.1783,2.186,2.2065,2.1926,2.2601,2.4631,2.3975,2.3979,2.5445,2.6263,2.6959,2.7569,2.8439,2.9492,3.0834,3.1524,3.2225,3.2991,3.317,3.3293,3.3401,3.4013,3.4677,3.5366,3.6009,3.6658,3.7288,3.7288,3.7288,3.7179,3.5946,3.5331,3.5187,3.3909,3.3956,3.4793,3.4726,3.5284,3.6077,3.5352,3.4664,3.4,3.3382,3.3215,3.3281,3.3327,3.3845,3.4524,3.4879,0.0,3.5058,3.5528,3.615,0.0,3.7664,3.8177,3.8491,0.0,0.0,3.9305,4.0093,4.0241,4.0501,4.1319,4.2612,4.3689,4.3949,4.5844,4.7367,4.7664,4.8333,4.861,4.8263,4.8641,4.889,4.889,4.889,4.889,4.889,4.889,4.8741,4.8382,4.8705,4.9065,4.9412,4.9861,5.0488,5.1268,5.0902,5.0705,5.0705,5.0705,5.0705,5.0715,5.1176,5.1416,5.1416,5.1416,5.1416,5.1416,5.1416,5.1416,5.1416,5.1416,5.1305,5.1119,5.1119,5.1193,5.1268,0.0,0.0,0.0,0.0,0.0,0.0,0.0,2.1926,2.2058,2.2185,2.2086,2.2714,2.4475,2.462,2.4953,2.5777,2.5952,2.6389,2.7299,2.7856,2.8764,3.0149,3.066,3.1426,3.2569,3.2692,3.2911,3.3309,3.3972,3.446,3.4776,3.5489,3.5995,3.6294,3.6294,3.6294,3.623,3.5661,3.5156,3.474,3.446,3.4525,3.4783,3.4642,3.5292,3.626,3.6046,3.5519,0.0,3.4617,3.4314,3.4033,3.407,3.437,3.4795,3.5355,3.5507,0.0,3.6256,0.0,0.0,0.0,3.8218,3.8344,3.8548,3.9082,3.9615,3.9977,4.0405,4.1226,4.2722,4.354,4.4469,0.0,4.6809,4.7552,4.8298,4.8246,4.8192,4.8296,4.8212,4.826,4.8532,4.855,4.855,4.855,4.855,4.866,4.8976,4.9111,4.9489,5.0131,5.0481,5.0842,5.1229,5.1478,5.174,5.204,5.204,5.221,5.2459,5.2706,5.2791,5.2791,5.2791,5.2791,5.2791,5.2791,5.2791,5.2791,5.2791,5.2791,5.2679,5.1751,5.1714,5.2085,0.0,0.0,0.0,0.0,0.0,0.0,0.0,0.0,2.2136,2.233,2.2178,2.2666,2.4236,2.4993,2.5531,2.5901,2.5788,2.5999,2.6829,2.7143,2.7812,2.8939,2.9584,3.0477,3.169,3.1912,3.2342,3.3024,3.3512,3.3828,3.4036,3.4776,3.5219,3.5408,3.5408,3.5408,3.5408,3.5187,3.4808,3.4311,3.4677,3.4693,3.4508,3.4678,3.5273,3.6018,3.6132,3.5892,3.5436,3.5546,3.5225,3.4856,3.4856,3.5088,3.5434,3.5987,3.6118,3.6268,3.6849,0.0,0.0,3.773,3.8015,3.8368,3.8704,3.9491,4.0238,4.0556,4.0993,4.1944,4.3998,4.4346,4.5057,4.7333,4.7517,4.7693,4.8613,4.8202,4.7808,4.7905,4.7715,4.7674,4.7895,4.8025,4.8094,4.8094,4.8304,4.862,4.9091,4.9382,4.9867,5.0528,5.0928,5.1215,5.1418,5.187,5.2312,5.2699,5.2699,5.294,5.3414,5.3688,5.3784,5.3831,5.4044,5.4119,5.4156,5.4379,5.45,5.45,5.45,5.45,5.4351,5.3162,5.2828,5.294,0.0,0.0,0.0,0.0,0.0,0.0,0.0,0.0,0.0,2.2602,0.0,2.2463,2.4212,2.4846,2.5203,2.5478,2.5846,2.6064,2.6038,2.6415,2.6798,2.7147,2.8431,2.9505,3.0236,3.0907,3.1602,3.2336,3.2355,3.269,3.334,3.4017,3.4713,3.5408,3.5408,3.5408,3.5331,3.465,3.4334,3.4279,3.4175,3.3962,3.3856,3.5105,3.542,3.5235,3.5381,3.5446,3.5511,3.5654,3.5715,3.5757,3.5757,3.6303,0.0,3.6954,3.6954,3.6989,0.0,0.0,3.7009,3.7019,3.7874,3.8785,3.9181,4.0131,4.1303,4.2461,4.2405,4.2799,4.4896,4.5214,4.5721,4.7405,4.8006,4.8269,4.8316,4.8296,4.7945,4.7037,4.7335,4.7432,0.0,4.7356,4.7622,4.7622,4.8279,4.8532,4.815,4.9257,5.0059,5.0389,5.0852,5.1454,5.2274,5.1849,5.1626,5.1638,5.1638,5.1886,5.2391,5.3346,5.3784,5.3822,5.4602,5.4973,5.5047,5.5874,5.6209,5.6209,5.6209,5.6209,5.6209,5.6172,5.5131,5.3747,0.0,0.0,0.0,0.0,0.0,0.0,0.0,0.0,0.0,0.0,0.0,0.0,0.0,0.0,0.0,0.0,2.6095,2.5923,2.6432,2.6312,2.6561,2.7399,2.808,2.8747,2.9442,3.018,3.0888,3.1571,3.207,3.2639,3.3309,3.353,3.3783,3.4004,3.4004,3.4004,3.3972,3.3272,3.2956,3.2976,3.2772,3.2821,3.3061,3.3836,3.4577,3.52,0.0,3.5804,3.6332,0.0,0.0,0.0,3.6593,0.0,0.0,3.6989,3.6989,3.6989,3.6989,0.0,3.7777,3.8051,3.8783,3.9478,3.9593,4.0352,4.1131,4.1569,4.1946,4.2928,4.5284,4.5663,4.6195,4.7841,4.7941,4.7854,4.7854,4.7291,4.6915,4.6879,4.6777,0.0,0.0,0.0,0.0,4.7904,4.8144,4.8684,4.9567,5.0008,5.0521,5.1173,5.1068,5.1086,5.1383,5.1224,5.128,5.1601,5.2449,5.3231,5.3893,5.4257,5.4405,5.4405,5.4661,5.4998,5.5338,5.5633,5.5971,5.632,5.632,5.632,5.632,5.632,5.5949,5.5466,0.0,0.0,0.0,0.0,0.0,0.0,0.0,0.0,0.0,0.0,0.0,0.0,0.0,0.0,0.0,0.0,0.0,2.6041,2.6254,2.6001,2.607,2.6639,2.7116,2.7673,2.8356,2.9074,2.9769,3.0452,3.1172,3.1785,3.2215,3.2455,3.255,3.255,3.255,3.255,3.2519,3.2089,3.2,3.216,3.2208,3.2462,3.2949,3.3755,3.4507,0.0,3.5658,3.6176,3.6715,0.0,0.0,0.0,0.0,0.0,3.6989,3.6989,3.6989,3.706,3.7331,3.7742,3.8224,3.8766,3.9473,4.0091,4.0214,4.0875,4.1486,4.1685,4.198,4.2915,4.5211,4.5387,4.5824,4.775,4.7643,4.7346,4.7346,4.6846,4.6483,4.6625,4.6386,0.0,0.0,0.0,0.0,4.7819,4.8375,4.9096,5.0079,5.0409,5.0822,5.1344,5.1074,5.1027,5.1294,5.1294,5.159,5.2196,5.3163,5.3902,5.443,5.4603,5.4689,5.4725,5.4991,5.5329,5.5695,5.617,5.6547,5.6911,5.7076,5.7165,5.7165,5.7165,5.7165,5.71,0.0,0.0,0.0,0.0,0.0,0.0,0.0,0.0,0.0,0.0,0.0,0.0,0.0,0.0,0.0,0.0,0.0,0.0,2.5598,2.5505,2.5358,2.5045,2.565,2.6314,2.6988,2.7683,2.8347,2.8988,2.9769,3.016,3.0204,3.0907,3.1211,3.1211,3.1211,3.1211,3.1211,3.1172,3.1434,3.1878,3.2318,3.2794,3.3376,3.4617,3.5135,3.5304,3.6167,3.6582,0.0,0.0,0.0,0.0,0.0,0.0,0.0,3.6989,3.7025,3.72,3.7918,3.8153,3.8399,3.9171,3.9954,4.0655,4.1045,4.166,4.2297,4.2667,4.2432,4.2783,0.0,0.0,4.4749,4.7179,4.7193,4.6879,4.688,4.6845,4.6707,0.0,0.0,0.0,0.0,0.0,0.0,4.7515,0.0,4.9728,4.9763,5.05,5.0922,5.0957,5.0957,5.1294,5.2053,5.2053,5.2453,5.3254,5.3708,5.3949,5.3997,5.45,5.476,5.4796,5.5544,5.5881,5.6028,5.7337,5.7889,5.7958,5.8481,5.8687,5.8687,5.8687,5.8687,5.8465,0.0,0.0,0.0,0.0,0.0,0.0,0.0,0.0,0.0,0.0,0.0,0.0,0.0,0.0,0.0,0.0,0.0,0.0,2.6393,2.5819,2.5472,2.5377,2.5769,2.5851,2.5523,2.6735,2.742,2.7609,2.881,2.9674,3.0204,3.0907,3.1211,3.1211,3.1211,3.1211,3.1204,3.0982,3.0981,3.1077,3.1045,3.1667,3.2632,3.3546,3.4408,3.5294,3.6073,0.0,0.0,0.0,0.0,0.0,0.0,3.6989,3.6989,0.0,0.0,3.7848,3.8058,3.8971,3.993,4.014,4.0772,4.1356,4.1441,4.1603,4.1777,4.1895,4.182,4.2355,0.0,0.0,0.0,4.6787,4.697,0.0,4.6435,4.6374,0.0,0.0,0.0,4.7187,4.7375,4.8428,0.0,0.0,4.9482,4.9973,5.057,5.0781,5.1154,5.1702,5.1702,5.2102,5.2888,5.2888,5.326,5.4033,5.4141,5.4529,5.5093,5.5235,5.5292,5.5306,5.5518,5.582,5.6268,5.7018,5.7534,5.7958,5.8481,5.8687,5.8687,5.8687,5.8687,5.865,0.0,0.0,0.0,0.0,0.0,0.0,0.0,0.0,0.0,0.0,0.0,0.0,0.0,0.0,0.0,0.0,0.0,0.0,0.0,2.628,2.5888,2.5538,2.5676,2.5544,2.4995,2.605,2.6609,2.6609,2.7704,2.8589,2.9275,2.9674,3.0097,3.0584,3.039,3.0501,3.0889,3.0514,3.0576,0.0,0.0,3.1473,3.2632,3.3437,3.4363,3.5399,3.6115,0.0,0.0,0.0,0.0,3.6911,3.697,3.6989,3.706,3.7401,0.0,3.8259,3.8971,3.9789,4.0573,4.0913,4.1288,4.1604,4.1604,4.1604,4.171,4.2049,4.2131,0.0,0.0,0.0,0.0,0.0,0.0,0.0,4.6251,4.6214,4.6319,0.0,4.7116,0.0,4.8358,4.9201,4.9833,0.0,5.0219,5.043,5.0887,5.1224,5.1561,5.1983,5.2348,5.2909,5.3696,5.4033,5.4419,5.484,5.484,5.5071,5.5493,5.5493,5.5493,5.5493,0.0,5.5663,5.5986,5.6541,5.6925,5.7253,5.7771,5.8003,5.8037,5.8238,5.8352,5.8385,0.0,0.0,0.0,0.0,0.0,0.0,0.0,0.0,0.0,0.0,2.2959,0.0,0.0,0.0,0.0,0.0,0.0,0.0,0.0,0.0,2.6359,2.5598,2.557,2.5396,2.5005,2.5595,2.5902,2.5882,2.6609,2.7241,2.7821,2.7916,2.8549,2.9565,2.9218,2.9575,3.0393,3.0097,3.0425,3.1113,3.1172,3.19,3.2992,0.0,0.0,0.0,0.0,0.0,0.0,0.0,3.6911,3.6841,3.695,3.6989,3.712,3.7883,3.8188,3.8585,4.0081,4.0573,4.0808,4.1429,4.1604,4.1604,4.1604,4.1674,4.1944,4.2646,0.0,4.3383,4.4834,0.0,4.5349,4.6074,0.0,4.6214,4.6214,4.6214,4.6507,4.7292,4.7467,4.8112,4.9552,4.9798,5.0149,5.0851,5.0992,5.1062,5.1062,5.1632,5.2088,5.2299,5.3085,5.3787,5.444,5.5142,5.5493,5.5493,5.5493,5.5493,5.5493,5.5493,5.5493,5.5493,0.0,0.0,5.5537,5.6084,5.6298,5.6352,5.6887,5.7154,5.7266,5.7724,5.7958,5.8071,0.0,0.0,0.0,0.0,0.0,0.0,0.0,0.0,0.0,0.0,2.3028,2.3046,0.0,0.0,0.0,0.0,0.0,0.0,0.0,0.0,0.0,2.6024,2.6006,2.5677,2.5005,2.5381,2.5445,0.0,0.0,2.6261,2.6388,2.6988,2.7664,2.8397,2.8737,2.9243,2.9968,3.0588,3.0975,3.1133,3.1523,3.2239,3.314,3.3902,0.0,0.0,0.0,0.0,0.0,0.0,3.697,3.696,3.698,3.6989,3.712,3.7883,3.8575,3.9322,4.0246,4.0948,4.1429,4.1569,4.1604,4.1604,4.1604,4.212,0.0,0.0,0.0,4.3992,4.494,4.5115,0.0,4.6074,0.0,0.0,0.0,0.0,4.6507,0.0,0.0,0.0,0.0,0.0,0.0,0.0,0.0,5.1807,5.1807,5.1912,5.2579,5.3843,5.4685,5.5142,5.5282,5.5422,5.5493,5.5493,5.5493,5.5493,5.5493,5.5493,5.5493,5.5493,5.5493,0.0,5.5537,5.6084,5.6298,5.6352,5.6887,5.7376,5.7759,5.7877,5.8172,5.8657,0.0,0.0,0.0,0.0,0.0,0.0,0.0,2.299,2.3003,2.3034,2.3071,2.3077,2.3046,2.3358,2.385,0.0,0.0,0.0,0.0,0.0,0.0,0.0,0.0,0.0,0.0,0.0,0.0,0.0,0.0,0.0,0.0,0.0,0.0,0.0,0.0,0.0,3.0308,3.0865,3.123,3.1485,0.0,0.0,0.0,0.0,0.0,0.0,0.0,0.0,0.0,0.0,3.6989,3.6989,3.6989,3.6989,3.7235,3.8409,3.8996,3.9557,4.0737,4.1323,4.1604,4.1604,4.1604,4.1604,4.1604,0.0,0.0,0.0,0.0,4.4764,4.5524,0.0,0.0,0.0,0.0,0.0,0.0,0.0,0.0,0.0,0.0,0.0,0.0,0.0,0.0,0.0,0.0,5.2018,5.2018,5.2755,5.3738,5.4911,5.5282,5.5493,5.5493,5.5493,5.5493,5.5493,5.5493,5.5493,5.5493,5.5493,5.5493,5.5493,5.5493,0.0,5.5522,5.5779,5.5872,5.5929,5.6452,5.71,5.7732,5.7995,5.8555,5.9196,0.0,0.0,0.0,0.0,0.0,0.0,2.2873,2.3046,2.3028,2.3083,2.3089,2.3089,2.3089,2.3046,2.3365,0.0,0.0,0.0,0.0,0.0,0.0,0.0,0.0,0.0,0.0,0.0,0.0,0.0,0.0,0.0,0.0,0.0,0.0,0.0,0.0,0.0,0.0,0.0,3.1329,0.0,0.0,0.0,0.0,0.0,0.0,0.0,0.0,0.0,0.0,0.0,3.6989,3.6989,3.6989,3.713,3.7506,3.889,3.9417,3.9849,4.1218,4.1604,4.1604,4.1604,4.1604,4.1639,4.1815,4.2471,0.0,0.0,4.4799,4.5524,4.6074,0.0,0.0,0.0,0.0,0.0,0.0,0.0,0.0,0.0,0.0,0.0,0.0,0.0,0.0,0.0,0.0,0.0,5.2474,5.3808,5.4811,5.5413,5.5448,5.5433,5.5404,5.5433,5.5448,5.5448,5.5478,5.5493,5.5493,5.5493,5.5493,5.5493,5.5493,0.0,0.0,5.5493,5.5598,5.5798,5.6205,5.6914,5.7773,5.821,5.8845,5.9559,0.0,0.0,0.0,0.0,0.0,0.0,2.2844,2.3083,2.3083,2.3089,2.3089,2.3089,2.3089,2.3083,2.3399,0.0,0.0,0.0,0.0,0.0,0.0,0.0,0.0,0.0,0.0,0.0,0.0,0.0,0.0,0.0,0.0,0.0,0.0,0.0,0.0,0.0,0.0,0.0,0.0,0.0,0.0,0.0,0.0,0.0,0.0,0.0,0.0,0.0,0.0,0.0,0.0,3.6989,3.6989,3.7471,3.8153,3.9031,0.0,0.0,4.1394,4.1604,4.1604,4.1604,4.1604,4.1769,4.2506,0.0,0.0,4.4834,4.5595,4.6109,4.6179,4.6214,0.0,0.0,0.0,4.6214,0.0,0.0,0.0,0.0,0.0,0.0,0.0,0.0,0.0,0.0,0.0,0.0,5.4089,5.4931,5.5328,5.5229,5.5229,5.5154,5.5053,5.5154,5.5229,5.5229,5.5398,5.5493,5.5493,5.5493,5.5493,5.5493,5.5493,0.0,0.0,5.5493,5.5879,5.649,5.655,5.7344,5.8495,5.8552,5.8937,5.9526,0.0,0.0,0.0,0.0,0.0,0.0,2.2844,2.3089,2.3089,2.3089,2.3089,2.3089,2.3089,2.3089,2.3236,2.3558,0.0,0.0,0.0,0.0,0.0,0.0,0.0,0.0,0.0,0.0,0.0,0.0,0.0,0.0,0.0,0.0,0.0,0.0,0.0,0.0,0.0,0.0,0.0,0.0,0.0,0.0,0.0,0.0,0.0,0.0,0.0,0.0,0.0,0.0,0.0,0.0,3.7506,3.8199,0.0,0.0,3.9884,4.0678,4.1394,4.1604,4.1604,4.1604,4.1944,4.24,4.2716,0.0,4.4694,4.5045,4.57,4.6214,4.6214,4.6214,4.6214,0.0,0.0,0.0,0.0,0.0,0.0,0.0,0.0,0.0,0.0,0.0,0.0,0.0,0.0,0.0,5.4735,5.5104,5.5264,5.5063,5.5063,5.5079,5.5109,5.5169,5.5259,5.5369,5.5463,5.5493,5.5493,5.5493,5.5493,5.5493,5.5493,0.0,0.0,5.5999,5.635,5.6676,5.7491,5.8436,5.933,5.9337,5.9767,6.0467,0.0,0.0,0.0,0.0,0.0,2.1323,2.2844,2.3089,2.3089,2.3089,2.3089,2.3089,2.3089,2.3089,2.3089,2.3089,2.3782,0.0,0.0,0.0,0.0,0.0,0.0,0.0,0.0,0.0,2.7006,2.729,0.0,0.0,0.0,0.0,0.0,0.0,0.0,0.0,0.0,0.0,0.0,0.0,0.0,0.0,0.0,0.0,0.0,0.0,0.0,0.0,0.0,0.0,0.0,0.0,0.0,0.0,0.0,0.0,4.02,4.0948,4.1464,4.1604,4.1604,4.1604,4.219,4.2857,0.0,0.0,4.515,4.5384,4.584,4.6214,4.6214,4.6214,4.6214,4.6214,4.6214,4.6214,4.6214,0.0,0.0,0.0,0.0,0.0,0.0,0.0,0.0,0.0,0.0,0.0,0.0,5.5083,5.5079,5.5007,5.5007,5.5037,5.5063,5.5154,5.5214,5.5299,5.5389,5.5398,5.5398,5.5389,5.5389,5.5398,0.0,0.0,0.0,5.637,5.6877,5.7414,5.8329,5.9195,5.9885,5.989,6.0245,6.0798,0.0,0.0,0.0,0.0,0.0,0.0,2.2844,2.3089,2.3089,2.3089,2.3089,2.3089,2.3089,2.3089,2.3089,2.3089,2.3845,0.0,0.0,0.0,0.0,0.0,0.0,0.0,0.0,0.0,2.7282,2.729,2.729,2.729,0.0,0.0,0.0,0.0,0.0,0.0,0.0,0.0,0.0,0.0,0.0,0.0,3.2186,0.0,0.0,0.0,0.0,0.0,0.0,0.0,0.0,0.0,0.0,3.8645,3.9452,0.0,4.1018,4.1604,4.1604,4.1604,4.1604,4.1604,4.219,4.2997,0.0,0.0,4.5326,4.6039,4.6179,4.6214,4.6214,4.6214,4.6214,4.6214,4.6214,4.6214,4.6214,0.0,0.0,0.0,0.0,0.0,0.0,0.0,0.0,0.0,0.0,0.0,0.0,5.4915,5.5007,5.5007,5.5007,5.493,5.4795,5.5083,5.5083,5.4795,5.5098,5.5214,5.5199,5.5083,5.5098,0.0,0.0,0.0,0.0,5.6535,5.7544,5.8968,5.8983,5.944,6.0088,6.0088,6.0088,6.0123,0.0,0.0,0.0,0.0,0.0,0.0,2.2844,2.3089,2.3089,2.3089,2.3089,2.3089,2.3089,2.3089,2.3089,2.3089,2.3341,0.0,0.0,0.0,0.0,0.0,0.0,0.0,0.0,2.7313,2.729,2.729,2.729,2.729,2.729,2.729,0.0,0.0,0.0,0.0,0.0,0.0,0.0,0.0,0.0,3.1928,3.2186,0.0,0.0,0.0,0.0,0.0,0.0,0.0,0.0,0.0,0.0,0.0,0.0,4.0867,4.1429,4.1604,4.1604,4.1604,4.1734,4.226,4.3009,4.3746,4.4553,4.5314,4.5933,4.6144,4.6214,4.6214,4.6214,4.6214,4.6214,4.6214,4.6214,4.6214,0.0,0.0,0.0,0.0,0.0,0.0,0.0,0.0,0.0,0.0,0.0,0.0,0.0,5.462,5.4652,5.4652,5.4811,5.4842,5.4795,5.4888,5.4915,5.493,5.5022,5.5048,5.5068,5.5022,0.0,0.0,0.0,0.0,0.0,5.7381,5.8209,5.8845,5.9335,5.9765,6.0107,6.0107,6.0107,6.0135,0.0,0.0,0.0,0.0,0.0,0.0,2.2844,2.3089,2.3089,2.3089,2.3089,2.3089,2.3089,2.3089,2.3089,2.3089,2.3089,0.0,0.0,0.0,0.0,0.0,0.0,0.0,2.7392,2.7353,2.7313,2.729,2.729,2.7305,2.7329,2.7297,2.7305,2.7329,0.0,0.0,0.0,0.0,0.0,0.0,3.1269,3.1723,3.2187,0.0,0.0,0.0,0.0,0.0,0.0,0.0,0.0,0.0,0.0,0.0,0.0,0.0,4.1604,4.1604,4.1604,4.1604,4.1769,4.2611,4.336,0.0,4.4904,4.5665,4.6214,4.6214,4.6214,4.6214,4.6214,4.6214,4.6214,4.6214,4.6214,0.0,0.0,0.0,0.0,0.0,0.0,0.0,0.0,0.0,0.0,0.0,0.0,0.0,0.0,5.4592,5.4592,5.4478,5.4702,5.4795,5.4795,5.4857,5.4838,5.4807,5.4884,5.4915,5.4915,5.4838,0.0,0.0,0.0,0.0,0.0,5.8068,5.8806,5.9281,5.9736,5.9991,6.0107,6.0107,6.0107,6.0135,0.0,0.0,0.0,0.0,0.0,0.0,0.0,2.3089,2.3089,2.3089,2.3089,2.3089,2.3089,2.3089,2.3089,2.3089,2.3089,0.0,0.0,0.0,0.0,0.0,0.0,0.0,2.7415,2.7399,2.736,2.7297,2.729,2.7321,2.7384,2.7321,2.7329,2.7384,2.7321,2.729,0.0,0.0,0.0,0.0,3.089,3.1464,0.0,0.0,0.0,0.0,0.0,0.0,0.0,0.0,0.0,0.0,0.0,0.0,0.0,0.0,0.0,0.0,0.0,4.1604,4.1815,4.2646,4.3395,4.4132,4.4975,4.57,0.0,4.6214,4.6214,4.6214,4.6214,4.6214,4.6214,4.6214,4.6214,0.0,0.0,0.0,0.0,0.0,0.0,0.0,0.0,0.0,0.0,0.0,0.0,0.0,0.0,5.4686,5.4686,5.4529,5.4686,5.4764,5.4764,5.4884,5.4807,5.4478,5.4686,5.4764,5.4764,5.4626,0.0,0.0,0.0,0.0,0.0,5.8653,5.9249,6.0091,6.0091,6.0107,6.0107,6.0107,6.0107,6.0107,0.0,0.0,0.0,0.0,0.0,0.0,0.0,0.0,0.0,0.0,2.3089,2.3089,2.3089,2.3089,2.3089,0.0,0.0,0.0,0.0,0.0,0.0,0.0,0.0,0.0,2.7542,2.7454,2.7384,2.7368,2.7313,2.7297,2.7313,2.7353,2.7353,2.7313,2.7353,2.7337,0.0,0.0,0.0,0.0,3.121,3.1898,0.0,0.0,0.0,0.0,3.4697,3.569,0.0,0.0,0.0,0.0,0.0,0.0,0.0,0.0,4.1604,4.1604,4.1604,0.0,4.192,4.3289,4.3781,4.4273,0.0,4.6074,4.6214,4.6214,0.0,4.6214,4.6214,4.6214,4.6214,4.6214,4.6214,0.0,0.0,0.0,0.0,0.0,0.0,0.0,0.0,0.0,0.0,0.0,0.0,0.0,0.0,5.4526,5.456,5.4478,5.456,5.4592,5.4592,5.4589,5.4573,5.4478,5.456,5.4592,5.4576,5.5131,0.0,0.0,0.0,0.0,5.8311,5.8899,5.9445,5.9879,5.9879,5.9959,6.0107,6.0107,6.0107,6.0107,0.0,0.0,0.0,0.0,0.0,0.0,0.0,0.0,0.0,0.0,2.3089,2.3089,2.3089,2.3089,2.3089,0.0,0.0,0.0,0.0,0.0,0.0,0.0,0.0,2.7647,2.7602,2.7488,2.7438,2.7392,2.7321,2.7329,2.7399,2.7399,2.7399,2.7399,2.736,2.7321,0.0,0.0,0.0,2.9856,3.1063,0.0,0.0,0.0,0.0,0.0,3.4697,3.569,0.0,3.6989,3.6989,3.7271,0.0,0.0,0.0,0.0,4.1604,4.1604,4.1604,4.1885,4.2436,4.3605,4.4167,4.4764,4.5933,0.0,0.0,0.0,0.0,4.6214,4.6214,0.0,0.0,0.0,0.0,0.0,0.0,0.0,0.0,0.0,0.0,0.0,0.0,0.0,0.0,0.0,0.0,0.0,0.0,5.4478,5.4478,5.4478,5.4478,5.4478,5.4478,5.4478,5.4478,5.4478,5.4478,5.4478,5.4529,5.5272,5.5789,0.0,0.0,0.0,5.873,5.9229,5.9602,5.9795,5.9911,5.9991,6.0107,6.0107,6.0107,6.0107,0.0,0.0,0.0,0.0,0.0,0.0,0.0,0.0,0.0,0.0,0.0,0.0,0.0,0.0,0.0,0.0,0.0,0.0,0.0,0.0,0.0,0.0,2.6894,2.7664,2.7625,2.7542,2.7465,2.7415,2.7337,2.7376,2.7473,2.7446,2.7446,2.7473,2.736,2.729,0.0,0.0,0.0,2.9904,3.0869,0.0,0.0,0.0,0.0,0.0,0.0,0.0,0.0,3.6989,3.6989,3.7271,3.882,0.0,0.0,0.0,0.0,0.0,4.1604,4.2271,4.3114,4.3746,4.4483,4.5279,4.6039,0.0,0.0,0.0,0.0,0.0,0.0,0.0,0.0,0.0,0.0,0.0,0.0,0.0,0.0,0.0,0.0,0.0,0.0,0.0,0.0,0.0,0.0,0.0,0.0,5.4478,5.4478,5.4478,5.4478,5.4478,5.4478,5.4478,5.4478,5.4478,5.4478,5.4547,5.4685,5.5444,5.6219,0.0,0.0,0.0,5.9319,5.947,5.9636,5.9797,5.9975,6.0059,6.0043,6.0091,6.0091,6.0075,0.0,0.0,0.0,0.0,0.0,0.0,0.0,0.0,0.0,0.0,0.0,0.0,0.0,0.0,0.0,0.0,0.0,0.0,0.0,0.0,0.0,2.5412,2.6894,2.7701,2.7679,2.7579,2.7488,2.7473,2.7423,2.7392,2.7415,2.745,2.7442,2.7407,2.7321,2.729,2.7393,2.8773,0.0,2.9931,3.1359,0.0,0.0,0.0,0.0,0.0,0.0,0.0,0.0,3.6989,3.6989,3.7271,3.882,0.0,0.0,0.0,0.0,0.0,4.1604,4.2658,4.3746,4.3851,4.4483,4.5279,4.6039,0.0,0.0,0.0,0.0,0.0,0.0,0.0,0.0,0.0,0.0,0.0,0.0,0.0,0.0,0.0,0.0,0.0,0.0,0.0,0.0,0.0,0.0,0.0,0.0,5.4478,5.4478,5.4478,5.4478,5.4478,5.4478,5.4478,5.4478,5.4478,5.4478,5.4823,5.5444,5.6253,5.7012,0.0,0.0,5.8994,5.9302,5.9336,5.9453,5.9636,5.9781,5.9765,5.972,5.9994,5.9991,5.9879,0.0,0.0,0.0,0.0,0.0,0.0,0.0,0.0,0.0,0.0,0.0,0.0,0.0,0.0,0.0,0.0,0.0,0.0,0.0,0.0,2.5588,2.6044,2.7104,2.7708,2.7708,2.7587,2.7519,2.7557,2.7454,2.7438,2.7523,2.7496,2.745,2.7392,2.7321,2.7531,2.798,2.9108,2.9901,3.048,0.0,0.0,0.0,0.0,0.0,0.0,0.0,0.0,0.0,0.0,3.6989,3.7271,3.882,0.0,0.0,0.0,0.0,0.0,4.1604,4.2728,4.3886,4.3886,4.4787,4.577,4.6109,0.0,0.0,0.0,0.0,0.0,0.0,0.0,0.0,0.0,0.0,0.0,0.0,0.0,0.0,0.0,0.0,0.0,0.0,0.0,0.0,0.0,0.0,0.0,0.0,0.0,5.4478,5.4478,5.4478,5.4478,5.4478,5.4478,5.4478,5.4478,5.4478,5.4892,5.5616,5.6426,5.7219,5.7943,0.0,5.9047,5.9166,5.9268,5.9352,5.9453,5.9636,5.9652,5.9621,5.9767,5.9767,5.9718,0.0,0.0,0.0,0.0,0.0,0.0,0.0,0.0,0.0,0.0,0.0,0.0,0.0,0.0,0.0,0.0,0.0,0.0,0.0,2.4998,2.5763,2.657,2.7315,2.7708,2.7708,2.7594,2.7549,2.7602,2.7508,2.7508,2.7579,2.7526,2.7442,2.736,2.7486,2.7884,2.8495,2.9504,3.0334,3.1028,0.0,0.0,0.0,0.0,0.0,0.0,0.0,0.0,0.0,0.0,0.0,0.0,0.0,0.0,0.0,4.1148,4.1604,4.1604,4.1604,4.2728,4.3886,4.3886,4.5068,4.6214,4.6214,0.0,0.0,0.0,0.0,0.0,0.0,0.0,0.0,0.0,0.0,0.0,0.0,0.0,0.0,0.0,0.0,0.0,0.0,0.0,0.0,0.0,0.0,0.0,0.0,0.0,5.4478,5.4478,5.4478,5.4478,5.4478,5.4478,5.4478,5.4478,5.4478,5.4961,5.5892,5.6529,5.7288,5.8185,5.8754,5.8995,5.9012,5.9149,5.9234,5.9268,5.9436,5.9571,5.9604,5.9554,5.9571,5.9604,0.0,0.0,0.0,0.0,0.0,0.0,0.0,0.0,0.0,0.0,0.0,0.0,0.0,0.0,0.0,0.0,0.0,0.0,0.0,2.4998,2.5763,2.657,2.7315,2.7708,2.7708,2.7647,2.7594,2.7602,2.7594,2.7557,2.7503,2.7503,2.7419,2.7332,2.8006,2.8365,2.8593,3.0092,3.0846,3.1139,3.19,0.0,0.0,0.0,0.0,0.0,0.0,0.0,0.0,0.0,0.0,0.0,0.0,0.0,3.9592,4.1148,4.1604,4.1604,4.1604,4.2728,4.3886,4.3886,4.5068,0.0,4.6214,4.6214,0.0,0.0,0.0,0.0,0.0,0.0,0.0,0.0,0.0,0.0,0.0,0.0,0.0,0.0,0.0,0.0,0.0,0.0,0.0,0.0,0.0,0.0,0.0,0.0,0.0,5.4478,5.4478,5.4478,5.4478,5.4478,5.4478,5.4478,5.4478,5.5288,5.6736,5.6771,5.7598,5.8926,5.8961,5.8995,5.8995,5.9012,5.903,5.9047,5.9251,5.9436,5.9588,5.9386,5.9436,5.9604,0.0,0.0,0.0,0.0,0.0,0.0,0.0,0.0,0.0,0.0,0.0,2.3089,2.3089,0.0,0.0,0.0,0.0,0.0,0.0,2.5693,2.65,2.7237,2.7561,2.7708,2.7708,2.7647,2.7632,2.7657,2.7657,2.7625,2.7503,2.7503,2.7411,2.7324,2.8105,2.8742,2.9303,3.0489,3.1272,3.1751,3.2162,3.2293,0.0,0.0,0.0,0.0,0.0,0.0,0.0,0.0,3.7296,3.7883,3.8961,3.9638,4.0246,4.1288,4.1604,4.171,4.2225,4.3114,4.4027,4.4518,0.0,0.0,0.0,0.0,0.0,0.0,0.0,0.0,0.0,0.0,0.0,0.0,0.0,0.0,0.0,0.0,0.0,0.0,0.0,0.0,0.0,0.0,0.0,0.0,0.0,0.0,0.0,0.0,0.0,5.4478,5.4478,5.4478,5.4478,5.4478,5.4478,5.4478,5.4478,5.5322,5.6805,5.6805,5.7598,5.8995,5.8995,5.8995,5.8995,5.8995,5.8995,5.9012,5.9081,5.9149,5.9234,5.9132,5.9149,5.9251,0.0,0.0,0.0,0.0,0.0,0.0,0.0,0.0,2.3089,0.0,0.0,0.0,0.0,2.3089,0.0,0.0,0.0,0.0,2.5349,2.6149,2.6921,2.7666,2.7708,2.7708,2.7708,2.7649,2.7642,2.7708,2.7679,2.7597,2.7503,2.7473,2.7535,2.7709,2.8467,2.9278,3.0143,3.0994,3.1655,3.2152,3.2275,3.2433,0.0,0.0,0.0,0.0,0.0,0.0,0.0,0.0,3.7506,3.8224,3.9066,3.9849,4.0643,4.1394,4.1604,4.178,4.2576,4.3325,4.4097,0.0,0.0,0.0,0.0,0.0,0.0,0.0,0.0,0.0,0.0,0.0,0.0,0.0,0.0,0.0,0.0,0.0,0.0,0.0,0.0,0.0,0.0,0.0,0.0,0.0,0.0,0.0,0.0,0.0,0.0,0.0,5.4478,5.4478,5.4478,5.4478,5.4478,5.4478,5.4478,5.5322,5.6805,5.6805,5.7598,5.8995,5.8995,5.8995,5.8995,5.8995,5.8995,5.8995,5.8995,5.8995,5.8995,5.8995,5.9047,5.9098,0.0,0.0,0.0,0.0,0.0,0.0,0.0,0.0,2.3089,2.3089,2.3089,0.0,0.0,0.0,0.0,0.0,0.0,0.0,2.5342,2.6149,2.6921,2.7666,2.7708,2.7708,2.7708,2.7708,2.7708,2.7708,2.7647,2.7564,2.7496,2.7438,2.7788,2.8524,2.9221,3.0015,3.095,3.161,3.202,3.2214,3.2214,3.2721,3.3502,0.0,0.0,0.0,0.0,0.0,0.0,0.0,3.7506,3.8259,3.9066,3.9849,4.0643,4.1394,4.1604,4.178,4.2576,4.336,4.4097,0.0,0.0,0.0,0.0,0.0,0.0,0.0,0.0,0.0,0.0,0.0,0.0,0.0,0.0,0.0,0.0,0.0,0.0,0.0,0.0,0.0,0.0,0.0,0.0,0.0,0.0,0.0,0.0,0.0,0.0,0.0,5.4478,5.4478,5.4478,5.4478,5.4478,5.4478,5.4529,5.5306,5.6805,5.6805,5.7598,5.8995,5.8995,5.8995,5.8995,5.8995,5.8995,5.8995,5.8995,5.8995,5.8995,5.8995,5.9115,5.9302,0.0,0.0,0.0,0.0,0.0,0.0,0.0,0.0,2.3089,2.3089,2.3089,0.0,0.0,0.0,0.0,0.0,0.0,0.0,2.6184,2.6964,2.7455,2.7701,2.7708,2.7708,2.7708,2.7708,2.7672,2.7647,2.7617,2.7534,2.743,2.8033,2.8375,2.8504,2.9858,3.0621,3.0898,3.1751,3.2135,3.2187,3.2861,3.3247,3.3545,0.0,0.0,0.0,0.0,0.0,0.0,0.0,0.0,0.0,3.9894,4.0667,4.1323,4.1534,4.1604,4.1885,4.3219,4.3711,0.0,0.0,0.0,0.0,0.0,0.0,0.0,0.0,0.0,0.0,0.0,0.0,0.0,0.0,0.0,0.0,0.0,0.0,0.0,0.0,0.0,0.0,0.0,0.0,0.0,0.0,0.0,0.0,0.0,0.0,0.0,0.0,5.4478,5.4478,5.4478,5.4478,5.4478,5.4529,5.503,5.5789,5.6805,5.6805,5.7598,5.8995,5.8995,5.8995,5.8995,5.8995,5.8995,5.8995,5.8995,5.8995,5.8995,5.8995,5.903,5.9098,0.0,0.0,0.0,0.0,0.0,0.0,2.3089,2.3089,2.3089,2.3089,2.3089,2.3089,0.0,0.0,0.0,2.4245,2.5285,0.0,2.657,2.728,2.7708,2.7708,2.7708,2.7708,2.7708,2.7664,2.7647,2.7564,2.7564,2.7685,2.7897,2.838,2.8895,2.9384,3.0404,3.1029,3.1367,3.1872,3.2247,3.2604,3.3139,3.3744,3.4418,0.0,0.0,0.0,0.0,0.0,0.0,0.0,0.0,0.0,4.0256,4.1018,4.1604,4.1604,4.185,4.2342,4.357,0.0,0.0,0.0,0.0,0.0,0.0,0.0,0.0,0.0,0.0,0.0,0.0,0.0,0.0,0.0,0.0,0.0,0.0,0.0,0.0,0.0,0.0,0.0,0.0,0.0,0.0,0.0,0.0,0.0,0.0,0.0,0.0,0.0,5.4478,5.4478,5.4478,5.4478,5.4478,5.4529,5.5237,5.603,5.6805,5.7116,5.7874,5.8995,5.8995,5.8995,5.8995,5.8995,5.8995,5.8995,5.8995,5.8995,5.8995,5.8995,5.9047,5.9132,0.0,0.0,2.3089,2.3089,0.0,0.0,2.3089,2.3089,2.3089,2.3089,2.3089,2.3089,0.0,0.0,0.0,2.4385,2.5735,2.6641,2.6711,2.7315,2.7708,2.7708,2.7708,2.7708,2.7708,2.7647,2.7572,2.7511,2.7496,2.7863,2.8586,2.8591,2.9399,3.082,3.0898,3.1359,3.2081,3.2026,3.2461,3.3195,3.3369,3.434,3.5692,3.5772,0.0,0.0,0.0,0.0,0.0,0.0,0.0,0.0,4.0351,4.1053,4.1604,4.1604,4.2166,4.2962,4.3711,0.0,0.0,0.0,0.0,0.0,0.0,0.0,0.0,0.0,0.0,0.0,0.0,0.0,0.0,0.0,0.0,0.0,0.0,0.0,0.0,0.0,0.0,0.0,0.0,0.0,0.0,0.0,0.0,0.0,0.0,0.0,0.0,5.4478,5.4478,5.4478,5.4478,5.4478,5.4478,0.0,5.5306,5.6099,5.684,5.7564,5.8306,5.8995,5.8995,5.8995,5.8995,5.8995,5.8995,5.8995,5.8995,5.8995,5.8995,5.8995,5.9098,5.9285,0.0,0.0,2.3089,2.3089,0.0,0.0,2.3089,2.3089,2.3089,2.3089,2.3089,2.3089,2.3089,2.381,0.0,2.5103,2.6044,2.6851,2.742,2.7596,2.7708,2.7708,2.7708,2.7708,2.7708,2.7647,2.7594,2.7579,2.7485,2.7812,2.8522,2.9164,2.9919,3.082,3.1524,3.1836,3.1908,3.2616,3.2991,3.325,3.4619,3.5393,3.5772,3.6455,3.6829,0.0,0.0,0.0,0.0,0.0,0.0,0.0,4.1113,4.1464,4.1604,4.1604,4.2166,4.2962,0.0,4.4388,0.0,0.0,0.0,0.0,0.0,0.0,0.0,0.0,0.0,0.0,0.0,0.0,0.0,0.0,0.0,0.0,0.0,0.0,0.0,0.0,0.0,0.0,0.0,0.0,0.0,0.0,0.0,0.0,0.0,0.0,0.0,5.4478,5.4478,5.4478,5.4478,5.4478,5.4478,0.0,5.5908,5.6633,5.684,5.7564,5.8306,5.8995,5.8995,5.8995,5.8995,5.8995,5.8995,5.8995,5.8995,5.8995,5.8995,5.8995,5.903,5.9064,0.0,0.0,0.0,0.0,0.0,0.0,0.0,0.0,2.3089,2.3089,2.3453,2.3664,2.3664,2.4723,0.0,0.0,2.6676,2.728,2.7666,2.7708,2.7708,2.7708,2.7664,2.7642,2.7642,2.7549,2.7488,2.7488,2.7746,2.826,2.9027,2.9841,3.0586,3.1304,3.1783,3.2147,3.2436,3.2944,3.3543,3.4243,3.5149,3.5745,3.6148,3.6641,3.6866,3.6911,3.7361,0.0,0.0,0.0,0.0,0.0,0.0,0.0,4.1674,4.2049,4.2728,4.3489,0.0,0.0,0.0,0.0,0.0,0.0,0.0,0.0,0.0,0.0,0.0,0.0,0.0,0.0,0.0,0.0,0.0,0.0,0.0,0.0,0.0,0.0,0.0,0.0,0.0,0.0,0.0,0.0,0.0,0.0,0.0,5.4478,5.4478,5.4478,5.4478,5.4478,5.4478,5.4478,5.4478,5.4513,5.6081,5.7185,5.7874,5.8254,5.8616,5.8995,5.8995,5.8995,5.8995,5.8995,5.8995,5.8995,5.8995,5.8995,5.8995,5.8995,5.8995,5.9064,0.0,0.0,0.0,0.0,0.0,0.0,0.0,0.0,0.0,2.3306,2.3986,2.4491,2.4491,2.5735,2.6606,0.0,0.0,0.0,2.7708,2.7708,2.7708,2.7708,2.7654,2.7602,2.7602,2.7477,2.7461,2.7599,2.8246,2.8997,2.9816,3.0482,3.1148,3.1837,3.2032,3.2475,3.3071,3.3367,3.4189,3.5312,3.547,3.5896,3.653,3.6783,3.6903,3.7049,3.7967,3.8338,3.8657,4.0014,0.0,0.0,0.0,0.0,4.1944,4.2611,4.343,4.4214,0.0,0.0,0.0,0.0,0.0,0.0,0.0,0.0,0.0,0.0,0.0,0.0,0.0,0.0,0.0,0.0,0.0,0.0,0.0,0.0,0.0,0.0,0.0,0.0,0.0,0.0,0.0,0.0,0.0,0.0,5.4478,5.4478,5.4478,5.4478,5.4478,5.4478,5.4478,5.4478,5.4547,5.4685,5.6253,5.7702,5.8995,5.8995,5.8995,5.8995,5.8995,5.8995,5.8995,5.8995,5.8995,5.8995,5.8995,5.8995,5.8995,5.8995,5.8995,5.9099,0.0,0.0,0.0,0.0,0.0,0.0,0.0,0.0,0.0,0.0,2.4794,2.5243,2.5243,2.6044,2.6606,2.6606,2.7272,2.7708,2.7708,0.0,0.0,2.7708,2.7654,2.7602,2.7602,2.7477,2.7703,2.8353,2.9031,0.0,0.0,0.0,0.0,3.1928,3.2669,3.2995,3.3036,3.4402,3.5084,3.5279,3.6028,3.6416,3.6565,3.7363,3.7721,3.793,3.8674,3.9483,4.02,4.0421,4.0913,0.0,0.0,0.0,4.2646,4.2751,4.3816,4.4975,0.0,0.0,0.0,0.0,0.0,0.0,0.0,0.0,0.0,0.0,0.0,0.0,0.0,0.0,0.0,0.0,0.0,0.0,0.0,0.0,0.0,0.0,0.0,0.0,0.0,0.0,0.0,0.0,0.0,0.0,5.4478,5.4478,5.4478,5.4478,5.4478,5.4478,5.4478,5.4478,5.4823,5.5478,5.6996,5.8185,5.8995,5.8995,5.8995,5.8995,5.8995,5.8995,5.8995,5.8995,5.8995,5.8995,5.8995,5.8995,5.8995,5.8995,5.8995,5.9099,0.0,0.0,0.0,0.0,0.0,0.0,0.0,0.0,0.0,0.0,0.0,2.6079,2.6079,2.6753,2.721,2.721,2.749,2.7708,2.7708,2.7708,2.7679,2.7669,2.7587,2.7526,2.75,2.7799,2.8124,2.8435,2.961,0.0,0.0,3.1183,3.178,0.0,0.0,3.3464,3.4259,3.4954,3.5462,3.5846,3.6232,3.6679,3.7104,3.7511,3.797,3.8443,0.0,0.0,0.0,0.0,0.0,4.1674,4.212,0.0,0.0,0.0,0.0,0.0,4.5497,0.0,0.0,0.0,0.0,0.0,0.0,0.0,0.0,0.0,0.0,0.0,0.0,0.0,0.0,0.0,0.0,0.0,0.0,0.0,0.0,0.0,0.0,0.0,0.0,0.0,0.0,0.0,0.0,5.4478,5.4478,5.4478,5.4478,5.4478,5.4478,5.4478,5.4478,5.4478,5.5099,5.6288,5.7391,5.8288,5.8995,5.8995,5.8995,5.8995,5.8995,5.8995,5.8995,5.8995,5.8995,5.8995,5.8995,5.8995,5.8995,5.8995,5.9288,5.9771,0.0,0.0,0.0,0.0,0.0,0.0,0.0,0.0,0.0,0.0,0.0,2.6886,2.6886,0.0,0.0,0.0,2.7708,2.7708,2.7708,2.7708,2.7664,2.7602,2.7534,2.7465,2.743,2.8055,2.8497,2.8721,0.0,0.0,3.1016,3.1779,3.253,0.0,3.3208,0.0,0.0,0.0,0.0,0.0,0.0,3.695,3.7547,3.7968,0.0,3.9064,4.0119,0.0,0.0,0.0,0.0,0.0,0.0,0.0,0.0,0.0,0.0,0.0,0.0,0.0,0.0,0.0,0.0,0.0,0.0,0.0,0.0,0.0,0.0,0.0,0.0,0.0,0.0,0.0,0.0,0.0,0.0,0.0,0.0,0.0,0.0,0.0,0.0,0.0,0.0,0.0,0.0,5.4478,5.4478,5.4478,5.4478,5.4478,5.4478,5.4478,5.4478,5.4908,5.5667,5.6805,5.7736,5.8478,5.8995,5.8995,5.8995,5.8995,5.8995,5.8995,5.8995,5.8995,5.8995,5.8995,5.8995,5.8995,5.8995,5.8995,5.953,6.0323,0.0,0.0,0.0,0.0,0.0,0.0,0.0,0.0,0.0,0.0,0.0,2.7638,2.7638,2.7673,2.7708,2.7708,2.7708,2.7708,2.7708,2.7708,2.7664,2.7602,2.7534,0.0,2.7488,2.8087,2.8763,0.0,0.0,0.0,3.1765,3.249,3.3258,3.4027,3.4115,3.452,3.5259,0.0,0.0,0.0,0.0,0.0,0.0,0.0,0.0,0.0,0.0,0.0,0.0,0.0,0.0,0.0,0.0,0.0,0.0,0.0,0.0,0.0,0.0,0.0,0.0,0.0,0.0,0.0,0.0,0.0,0.0,0.0,0.0,0.0,0.0,0.0,0.0,0.0,0.0,0.0,0.0,0.0,0.0,0.0,0.0,0.0,0.0,0.0,0.0,0.0,0.0,5.4478,5.4478,5.4478,5.4478,5.4478,5.4478,5.4478,5.4478,5.5943,5.6736,5.6805,5.8254,5.8961,5.8995,5.8995,5.8995,5.8995,5.8995,5.8995,5.8995,5.8995,5.8995,5.8995,5.8995,5.8995,5.8995,5.8995,5.953,6.0323,0.0,0.0,0.0,0.0,0.0,0.0,0.0,0.0,0.0,0.0,0.0,0.0,0.0,2.7708,2.7708,2.7708,2.7708,2.7708,2.7708,2.7708,2.7664,2.7602,2.7534,2.7716,2.8132,2.8788,2.9498,0.0,0.0,3.1765,3.2524,3.2766,3.3593,3.4811,3.4841,3.5255,3.5904,3.618,0.0,0.0,0.0,0.0,0.0,0.0,0.0,0.0,0.0,0.0,0.0,0.0,0.0,0.0,0.0,0.0,0.0,0.0,0.0,0.0,0.0,0.0,0.0,0.0,0.0,0.0,0.0,0.0,0.0,0.0,0.0,0.0,0.0,0.0,0.0,0.0,0.0,0.0,0.0,0.0,0.0,0.0,0.0,0.0,0.0,0.0,0.0,0.0,0.0,0.0,5.4478,5.4478,5.4478,5.4478,5.4478,5.4478,5.4478,5.6046,5.6805,5.6805,5.8306,5.8995,5.8995,5.8995,5.8995,5.8995,5.8995,5.8995,5.8995,5.8995,5.8995,5.8995,5.8995,5.8995,5.9064,5.9599,6.0254,6.1013,0.0,0.0,0.0,2.6156,0.0,2.6957,2.6957,2.7385,2.7708,2.7708,0.0,0.0,0.0,0.0,2.7708,2.7708,2.7708,2.7708,2.7708,2.7679,2.776,2.7913,2.7871,2.8148,2.883,2.9281,2.9912,0.0,0.0,0.0,0.0,3.3179,3.3973,3.5214,3.5466,3.5835,0.0,0.0,0.0,3.7547,0.0,0.0,3.9744,0.0,0.0,0.0,0.0,0.0,0.0,0.0,0.0,0.0,0.0,0.0,0.0,0.0,0.0,0.0,0.0,0.0,0.0,0.0,0.0,0.0,0.0,0.0,0.0,0.0,0.0,0.0,0.0,0.0,0.0,0.0,0.0,0.0,0.0,0.0,0.0,0.0,0.0,0.0,0.0,0.0,0.0,0.0,0.0,0.0,5.4478,5.4478,5.4478,5.4478,5.4478,5.4478,5.4478,5.6046,5.6805,5.6805,5.8306,5.8995,5.8995,5.8995,5.8995,5.8995,5.8995,5.8995,5.8995,5.8995,5.8995,5.8995,5.8995,5.8995,5.9099,5.9909,6.0668,6.1427,2.6584,2.721,2.7708,2.7708,2.7708,2.7708,2.7708,2.7708,2.7708,2.7708,0.0,0.0,0.0,0.0,0.0,2.7708,2.7736,2.7736,2.7736,2.769,2.7948,2.8602,2.8575,2.8864,2.9626,2.9558,2.9972,3.0846,3.081,3.1499,3.2938,0.0,3.4535,3.5249,3.6008,3.6353,3.6387,0.0,3.7547,3.7685,0.0,3.9698,3.9802,0.0,0.0,0.0,4.0894,4.0917,0.0,0.0,0.0,0.0,0.0,0.0,0.0,0.0,0.0,0.0,0.0,0.0,0.0,0.0,0.0,0.0,0.0,0.0,0.0,0.0,0.0,0.0,0.0,0.0,0.0,0.0,0.0,0.0,0.0,0.0,0.0,0.0,0.0,0.0,0.0,0.0,0.0,0.0,5.4478,5.4478,5.4478,5.4478,5.4478,5.4478,5.4478,5.4478,5.4478,5.6046,5.6805,5.6805,5.8306,5.8995,5.8995,5.8995,5.8995,5.8995,5.8995,5.8995,5.8995,5.8995,5.8995,5.8995,5.8995,5.8995,5.9099,5.9944,6.0703,6.1427,2.7273,2.7516,2.7708,2.7708,2.7708,2.7708,2.7708,2.7708,2.7708,0.0,0.0,0.0,2.7708,2.7708,2.7708,2.7708,2.8202,2.8514,2.8514,2.8925,2.9287,2.9472,2.9372,2.966,3.0456,3.0386,3.0748,3.1526,3.2051,3.28,3.3776,3.4535,3.5294,0.0,3.6812,3.7157,3.7191,3.7409,0.0,0.0,3.9526,4.0055,0.0,0.0,0.0,0.0,0.0,4.1228,0.0,0.0,4.2921,4.4227,0.0,0.0,0.0,0.0,0.0,0.0,4.6189,0.0,0.0,0.0,0.0,0.0,4.5567,4.5554,0.0,0.0,0.0,0.0,0.0,0.0,0.0,0.0,0.0,0.0,0.0,0.0,0.0,0.0,0.0,0.0,0.0,0.0,0.0,0.0,5.4478,5.4478,5.4478,5.4478,5.4478,5.4478,5.4478,5.4478,5.4478,5.6046,5.6805,5.6805,5.8306,5.8995,5.8995,5.8995,5.8995,5.8995,5.8995,5.8995,5.8995,5.8995,5.8995,5.8995,5.8995,5.8995,5.9168,6.0496,6.1116,6.1496,2.7575,2.7664,2.7708,2.7708,2.7708,2.7708,2.7708,2.7708,2.7708,0.0,0.0,0.0,2.8157,2.8193,2.8333,2.8684,2.9086,2.9319,2.9252,2.959,2.9907,3.0213,3.0119,3.0413,3.1216,3.1172,3.1524,3.2248,3.2697,3.3455,3.4569,3.5018,3.5777,3.6812,3.7295,3.7847,0.0,0.0,0.0,0.0,4.0055,0.0,0.0,4.0894,4.0894,0.0,0.0,0.0,4.209,4.2746,4.3746,0.0,0.0,0.0,0.0,0.0,0.0,0.0,0.0,0.0,0.0,0.0,0.0,0.0,4.5619,4.5567,4.5502,0.0,0.0,0.0,0.0,0.0,0.0,0.0,0.0,0.0,0.0,0.0,0.0,0.0,0.0,0.0,0.0,5.4478,5.4478,5.4478,5.4478,5.4478,5.4478,5.4478,5.4478,5.4478,5.4478,5.4651,5.4961,5.6184,5.6943,5.7288,5.8444,5.8995,5.8995,5.8995,5.8995,5.8995,5.8995,5.8995,5.8995,5.8995,5.8995,5.8995,5.8995,5.9219,5.9668,6.0875,6.1496,6.1979,0.0,2.7694,2.7694,2.7708,2.7708,2.7708,2.7708,2.7708,2.7736,0.0,2.7912,2.8228,2.8965,2.9027,2.9308,3.0037,3.0162,3.0121,3.0005,3.001,3.0308,3.0906,3.0939,3.1257,3.1903,3.2007,3.2386,3.3041,3.311,3.3869,3.519,3.5397,3.6191,3.7512,3.7674,3.8468,0.0,0.0,0.0,3.9917,4.0607,4.0894,0.0,0.0,4.1021,0.0,4.1849,4.2194,4.247,4.3919,4.4872,0.0,0.0,0.0,0.0,0.0,4.58,0.0,0.0,0.0,0.0,0.0,0.0,0.0,4.5567,4.5515,4.5437,0.0,0.0,0.0,0.0,0.0,0.0,0.0,0.0,0.0,0.0,0.0,0.0,0.0,0.0,0.0,5.4478,5.4478,5.4478,5.4478,5.4478,5.4478,5.4478,5.4478,5.4478,5.4478,5.4478,5.4858,5.5582,5.6391,5.7185,5.7909,5.8651,5.8995,5.8995,5.8995,5.8995,5.8995,5.8995,5.8995,5.8995,5.8995,5.8995,5.8995,5.8995,5.9495,6.0289,6.1013,6.1806,6.2618,2.7572,2.7632,2.7654,2.7694,2.7708,2.7708,2.7708,2.7708,2.7912,2.8579,2.9246,2.9694,2.9835,2.987,2.9881,2.9922,3.0425,3.0724,3.063,3.1105,3.1466,3.1586,3.2154,3.2524,3.2697,3.3327,3.3707,3.3879,3.4466,3.4904,3.5225,3.6467,3.7191,3.7536,3.8744,3.9434,0.0,0.0,0.0,4.0676,4.086,0.0,4.0952,4.1573,4.178,4.1883,4.2689,4.3345,4.3988,0.0,4.5272,4.5423,0.0,0.0,0.0,0.0,0.0,0.0,0.0,0.0,0.0,0.0,0.0,0.0,4.5476,4.5594,4.5671,0.0,0.0,0.0,0.0,0.0,0.0,0.0,0.0,0.0,0.0,0.0,0.0,0.0,0.0,0.0,5.4444,5.4478,5.4478,5.4478,5.4478,5.4478,5.4478,5.4478,5.4478,5.4478,5.4478,5.4858,5.5582,5.6391,5.7185,5.7909,5.8651,5.8995,5.8995,5.8995,5.8995,5.8995,5.8995,5.8995,5.8995,5.8995,5.8995,5.8995,5.8995,5.9495,6.0289,6.1013,6.1806,6.2618,2.7236,2.7318,2.7338,2.7507,2.7537,2.7714,2.8213,2.8298,2.8579,2.9378,2.9803,3.0156,3.0541,3.0535,3.0633,3.0984,3.1289,3.1628,3.1946,3.2247,3.259,3.2948,3.3293,3.35,3.35,3.4259,3.4638,3.4638,3.5397,3.5949,3.6363,3.7122,3.7881,3.864,3.9353,3.9917,0.0,0.0,4.109,4.14,4.1067,0.0,4.1469,4.1849,4.224,4.2689,4.3483,4.4229,4.4906,4.5272,4.5397,0.0,0.0,4.5502,4.5515,0.0,4.5658,4.5697,0.0,0.0,0.0,4.5697,0.0,0.0,0.0,4.5761,4.5761,4.5541,0.0,0.0,0.0,0.0,0.0,0.0,0.0,0.0,0.0,0.0,0.0,0.0,0.0,0.0,5.3908,5.4287,5.4478,5.4478,5.4478,5.4478,5.4478,5.4478,5.4478,5.4478,5.4478,5.503,5.6184,5.6598,5.7357,5.8444,5.8823,5.8995,5.8995,5.8995,5.8995,5.8995,5.8995,5.8995,5.8995,5.8995,5.8995,5.8995,5.8995,5.9737,6.0806,6.1151,6.2048,6.3082,2.6875,2.6907,2.7015,2.7443,2.7573,2.7928,2.8785,2.8988,2.93,3.0089,3.0282,3.0589,3.1227,0.0,0.0,0.0,3.2065,3.232,3.3086,3.3155,3.3431,3.4086,3.4224,3.4328,3.4328,3.5018,3.5501,3.5639,3.6249,3.695,3.7709,3.7858,3.8571,3.971,0.0,0.0,0.0,0.0,0.0,4.1952,0.0,4.1711,4.224,4.2401,4.2861,4.3517,4.4264,4.4906,4.5397,4.5397,0.0,4.5397,4.5397,4.5397,0.0,0.0,0.0,0.0,0.0,0.0,0.0,0.0,0.0,4.571,0.0,0.0,0.0,4.5645,0.0,0.0,0.0,0.0,0.0,0.0,0.0,0.0,0.0,0.0,0.0,0.0,0.0,0.0,0.0,5.408,5.4478,5.4478,5.4478,5.4478,5.4478,5.4478,5.4478,5.4478,5.4478,5.5253,5.6771,5.6805,5.7529,5.8995,5.8995,5.8995,5.8995,5.8995,5.8995,5.8995,5.8995,5.8995,5.8995,5.8995,5.8995,5.903,5.9168,6.0082,6.1323,6.1461,6.2393,6.36,2.652,2.6573,2.686,2.7785,2.8188,2.8546,2.9007,2.9325,2.9781,3.0447,3.1377,0.0,0.0,0.0,0.0,0.0,0.0,0.0,3.3205,0.0,3.3502,3.4076,3.4742,3.5087,3.5087,3.5801,3.6525,3.7236,3.7329,3.7743,3.8502,3.9146,3.9526,0.0,4.0434,0.0,0.0,0.0,4.1918,0.0,4.2689,4.3,0.0,4.3793,4.4104,4.4276,4.4996,4.5328,4.5397,0.0,4.5397,4.5397,0.0,4.5397,0.0,0.0,0.0,0.0,0.0,0.0,0.0,0.0,4.571,0.0,0.0,0.0,4.5914,4.5658,0.0,0.0,0.0,0.0,0.0,0.0,0.0,0.0,0.0,0.0,0.0,0.0,0.0,0.0,0.0,5.408,5.4478,5.4478,5.4478,5.4478,5.4478,5.4478,5.4478,5.4478,5.4478,5.5253,5.6771,5.6805,5.7529,5.8995,5.8995,5.8995,5.8995,5.8995,5.8995,5.8995,5.8995,5.8995,5.8995,5.8995,5.8995,5.9064,5.9806,6.0565,6.1392,6.2082,6.2875,6.36,2.7307,2.7363,2.7583,2.8277,2.8514,2.8884,2.966,3.0165,3.0745,3.1443,3.1706,0.0,0.0,0.0,0.0,0.0,0.0,3.2963,0.0,0.0,0.0,3.5342,3.5663,3.5835,3.5835,3.6605,3.7157,3.7502,3.7916,3.8502,3.9261,3.9572,3.9951,0.0,4.0756,0.0,4.0963,0.0,0.0,0.0,0.0,0.0,0.0,4.4333,4.4574,4.4975,4.5294,4.5397,4.5397,0.0,4.5397,0.0,0.0,0.0,0.0,0.0,0.0,0.0,0.0,0.0,0.0,0.0,0.0,0.0,0.0,0.0,4.599,0.0,0.0,0.0,0.0,0.0,0.0,0.0,0.0,0.0,0.0,0.0,0.0,0.0,0.0,0.0,0.0,0.0,0.0,0.0,5.4478,5.4478,5.4478,5.4478,5.4478,5.4478,5.4478,5.5253,5.6771,5.6805,5.7529,5.8995,5.8995,5.8995,5.8995,5.8995,5.8995,5.8995,5.8995,5.8995,5.8995,5.8995,5.8995,5.9099,6.0358,6.1013,6.1392,6.2204,6.2963,6.36,2.8312,2.8182,2.8204,2.8786,2.8915,2.9317,3.0403,3.0887,3.1391,3.2108,0.0,0.0,3.2849,3.2916,0.0,0.0,0.0,3.3384,0.0,0.0,3.479,3.5842,3.6199,0.0,0.0,3.7333,3.7881,3.8088,3.864,3.9296,4.002,4.002,4.0434,4.1205,0.0,4.1331,4.1585,0.0,0.0,4.3552,4.4298,4.4941,4.5328,4.4803,4.4941,4.5397,4.5397,4.5397,4.5397,4.5397,4.5397,0.0,4.5397,0.0,0.0,0.0,0.0,0.0,4.5397,0.0,0.0,0.0,0.0,0.0,0.0,0.0,0.0,0.0,0.0,0.0,0.0,0.0,0.0,0.0,0.0,0.0,0.0,0.0,0.0,0.0,0.0,0.0,0.0,0.0,0.0,0.0,0.0,5.4478,5.4478,5.4478,5.4478,5.4478,5.4478,5.5253,5.6771,5.6805,5.7529,5.8995,5.8995,5.8995,5.8995,5.8995,5.8995,5.8995,5.8995,5.8995,5.8995,5.8995,5.915,5.9461,6.0771,6.1427,6.1703,6.2496,6.3135,6.36,2.9278,2.8702,2.8362,2.9221,2.9483,2.9938,3.11,3.1287,3.1506,0.0,0.0,0.0,0.0,0.0,0.0,0.0,0.0,3.285,3.4016,0.0,3.4309,0.0,0.0,0.0,0.0,3.7934,3.8916,3.9629,3.9629,4.0089,4.086,4.086,4.1262,4.1952,4.1952,4.2413,4.3172,4.3897,4.4242,4.4345,4.5065,4.5363,4.5397,0.0,4.5363,4.5397,4.5397,0.0,0.0,4.5397,4.5397,0.0,0.0,0.0,0.0,0.0,0.0,0.0,0.0,0.0,0.0,4.5567,0.0,0.0,0.0,0.0,4.5812,0.0,0.0,0.0,0.0,0.0,0.0,0.0,0.0,0.0,0.0,0.0,0.0,0.0,0.0,0.0,0.0,0.0,0.0,0.0,0.0,0.0,5.4478,5.4478,5.4478,5.4478,5.4478,5.5253,5.6771,5.6805,5.7529,5.8995,5.8995,5.8995,5.8995,5.8995,5.8995,5.8995,5.8995,5.8995,5.8995,5.8995,5.9461,6.022,6.1013,6.1772,6.2549,6.3289,6.3565,6.36,3.0087,3.0426,3.0553,3.0402,0.0,3.0695,3.1408,3.149,3.1748,0.0,0.0,0.0,0.0,0.0,3.3292,0.0,0.0,3.4137,3.4088,3.4917,0.0,0.0,0.0,3.7437,0.0,0.0,3.9468,3.9698,4.0227,4.0641,4.0917,4.14,4.1745,4.2021,0.0,4.293,0.0,0.0,0.0,0.0,0.0,4.5397,4.5397,0.0,0.0,4.5397,4.5397,4.5397,0.0,4.5397,4.5397,4.5397,4.5397,4.5397,4.5397,4.5397,4.5397,0.0,0.0,0.0,4.541,4.5463,0.0,0.0,0.0,0.0,0.0,0.0,0.0,0.0,0.0,0.0,0.0,0.0,0.0,0.0,0.0,0.0,0.0,0.0,0.0,0.0,0.0,0.0,0.0,0.0,0.0,0.0,0.0,5.4478,5.4478,5.4478,5.4478,5.5253,5.6771,5.6805,5.7529,5.8995,5.8995,5.8995,5.8995,5.8995,5.8995,5.8995,5.8995,5.8995,5.8995,5.8995,5.9461,6.0254,6.1013,6.1772,6.2583,6.3342,6.36,6.36,3.0756,3.1238,3.1565,0.0,0.0,0.0,0.0,0.0,0.0,0.0,3.2964,0.0,3.3844,0.0,3.4436,0.0,3.4752,3.5029,3.458,3.5388,0.0,3.572,3.6927,0.0,0.0,0.0,3.9807,3.9807,4.0558,4.1032,4.1297,4.178,4.2297,4.2849,0.0,0.0,0.0,0.0,4.4699,0.0,0.0,4.5397,0.0,0.0,4.5397,4.5397,0.0,4.5397,4.5397,4.5397,4.5397,4.5397,4.5397,4.5397,4.5397,4.5397,4.5397,4.5397,4.5397,4.5397,0.0,4.5397,4.5397,0.0,4.5515,0.0,0.0,0.0,0.0,0.0,0.0,0.0,0.0,0.0,0.0,0.0,0.0,5.0757,0.0,0.0,0.0,0.0,0.0,0.0,0.0,0.0,0.0,0.0,0.0,0.0,5.4478,5.4478,5.4478,5.5253,5.6771,5.6805,5.7529,5.8995,5.8995,5.8995,5.8995,5.8995,5.8995,5.8995,5.8995,5.8995,5.8995,5.8995,5.9633,6.0634,6.1116,6.1944,6.2963,6.3427,6.36,6.36,3.1242,3.1274,3.1422,0.0,3.1819,0.0,0.0,0.0,3.2608,0.0,3.3909,3.4302,3.4365,3.4997,3.5408,3.5408,3.544,0.0,3.5408,3.5472,0.0,0.0,3.6662,3.7334,3.7334,0.0,0.0,0.0,0.0,4.1273,4.1987,4.209,4.2884,4.4311,4.4345,0.0,4.5397,4.5397,4.5397,4.5397,4.5397,4.5384,4.5357,4.5384,4.5384,4.5357,4.5384,4.5397,4.5397,4.5397,4.5397,4.5397,4.5397,4.5397,4.5397,4.5432,4.5466,4.5466,4.55,4.55,4.55,4.55,0.0,0.0,0.0,0.0,4.554,0.0,0.0,0.0,0.0,0.0,0.0,0.0,0.0,0.0,0.0,0.0,0.0,0.0,0.0,0.0,0.0,0.0,0.0,0.0,0.0,0.0,0.0,0.0,5.4478,5.4478,5.4478,5.5253,5.6771,5.6805,5.7529,5.8995,5.8995,5.8995,5.8995,5.8995,5.8995,5.8995,5.8995,5.8995,5.8995,5.8995,5.9909,6.1289,6.1289,6.2255,6.36,6.36,6.36,6.36,3.2038,3.2437,3.281,0.0,3.2901,3.29,0.0,0.0,0.0,0.0,3.4194,3.4523,3.5061,3.5282,3.5408,3.5408,3.5868,0.0,0.0,0.0,0.0,3.617,3.7355,3.8033,3.8033,3.8942,0.0,3.9986,0.0,0.0,4.2021,4.316,4.3931,4.4298,0.0,0.0,4.5397,4.5397,4.5397,4.5397,4.5397,4.511,0.0,0.0,4.511,4.4797,4.5251,4.5397,4.5397,4.5397,4.5397,4.5397,4.5397,4.5397,4.55,4.6134,4.6307,4.641,4.6962,4.71,4.71,4.71,4.71,4.71,0.0,0.0,0.0,0.0,0.0,0.0,0.0,0.0,0.0,0.0,0.0,0.0,0.0,0.0,0.0,0.0,0.0,0.0,0.0,0.0,0.0,0.0,0.0,0.0,0.0,0.0,0.0,5.4478,5.4478,5.5253,5.6771,5.6805,5.7529,5.8995,5.8995,5.8995,5.8995,5.8995,5.8995,5.8995,5.8995,5.8995,5.8995,5.8995,5.9909,6.1289,6.1289,6.2255,6.36,6.36,6.36,6.36,3.2721,0.0,0.0,3.4162,0.0,0.0,3.3783,0.0,0.0,3.4681,3.5047,0.0,3.5791,3.6406,3.6753,3.6753,3.7371,0.0,0.0,0.0,0.0,3.7371,3.801,3.8232,3.7958,3.8521,0.0,3.9747,0.0,0.0,4.2608,4.3463,4.4057,4.4413,0.0,4.5002,0.0,4.5291,4.5264,4.5002,4.5002,0.0,0.0,4.4457,4.4339,4.4097,4.4471,4.4749,4.5002,4.5002,4.5207,4.548,4.548,4.5932,4.65,4.6962,4.7065,4.7169,4.7582,4.7686,4.7686,4.7686,4.7686,4.7686,4.7686,4.7686,4.7686,0.0,0.0,0.0,0.0,0.0,0.0,0.0,0.0,0.0,0.0,0.0,0.0,0.0,0.0,0.0,0.0,0.0,0.0,0.0,0.0,0.0,0.0,0.0,0.0,5.4478,5.4478,5.5253,5.6771,5.6805,5.7529,5.8995,5.8995,5.8995,5.8995,5.8995,5.8995,5.8995,5.8995,5.8995,5.903,5.9392,6.022,6.1358,6.2048,6.2841,6.36,6.36,6.36,6.36,0.0,0.0,0.0,0.0,0.0,0.0,0.0,3.4492,0.0,3.544,0.0,3.6581,3.6661,3.7844,3.8634,3.8634,0.0,3.9503,3.9503,3.9503,3.925,3.8666,3.8634,3.8365,3.778,3.8214,0.0,0.0,0.0,0.0,4.317,4.3285,4.3704,4.4373,0.0,0.0,0.0,4.5042,4.4934,0.0,4.4359,4.3968,4.3376,4.3451,4.3436,4.341,4.3583,4.4033,4.4541,4.4626,4.5128,4.5751,4.5837,4.6697,4.772,4.7824,4.7858,4.7858,4.7962,4.7996,4.7996,4.7996,4.7996,4.7996,4.7996,4.7996,4.7996,4.7996,4.7996,4.7996,0.0,0.0,0.0,0.0,0.0,0.0,0.0,0.0,0.0,0.0,0.0,0.0,0.0,0.0,0.0,0.0,0.0,0.0,0.0,0.0,0.0,5.4529,5.4478,5.5253,5.6771,0.0,5.7529,5.8995,5.8995,5.8995,5.8995,5.8995,5.8995,5.8995,5.8995,5.8995,5.9064,5.9875,6.0703,6.1599,6.3048,6.36,6.36,6.36,6.36,6.36,0.0,0.0,0.0,0.0,0.0,3.5552,3.5981,3.5552,3.5458,3.6139,3.6848,3.7512,3.8065,3.8871,3.9313,3.9313,3.9439,0.0,0.0,0.0,0.0,3.9345,3.9313,3.9281,3.9155,3.9232,3.9602,0.0,0.0,0.0,4.2584,4.3163,4.3543,0.0,0.0,0.0,4.4519,4.4631,0.0,4.3691,4.3691,4.332,4.2802,4.332,4.3199,4.2899,4.3997,4.4471,4.4667,4.5226,4.5858,4.654,4.7138,4.7499,4.7824,4.8444,4.8617,4.8755,4.941,4.9597,4.9597,4.9597,4.9597,4.9597,4.9597,4.9597,4.9597,4.9597,4.9597,4.9597,4.9597,0.0,0.0,0.0,0.0,0.0,0.0,0.0,0.0,0.0,0.0,0.0,0.0,0.0,0.0,0.0,0.0,0.0,0.0,0.0,0.0,0.0,5.4478,0.0,0.0,0.0,5.7529,5.8995,5.8995,5.8995,5.8995,5.8995,5.8995,5.8995,5.8995,5.8995,5.9064,5.9875,6.1013,6.2376,6.3255,6.36,6.36,6.36,6.36,6.36,0.0,0.0,0.0,0.0,0.0,0.0,0.0,3.7213,0.0,3.7465,3.8112,3.8649,3.8997,3.9661,4.0072,4.0072,4.0388,4.0577,4.0577,4.0577,4.0419,4.0103,4.0072,0.0,3.9503,3.9503,3.9833,4.0511,0.0,0.0,4.2511,0.0,0.0,4.3047,0.0,4.3499,0.0,0.0,0.0,4.3032,4.3032,4.2647,4.2142,4.2831,4.288,4.2782,4.3783,4.4365,4.4707,4.5022,4.5602,4.6261,4.6622,4.7212,4.7875,4.8213,4.8572,4.8943,4.9319,4.9693,5.0011,5.0011,5.0011,5.0011,5.0011,5.0011,5.0011,5.0011,5.0011,5.0025,5.0092,5.0106,0.0,0.0,0.0,0.0,0.0,0.0,0.0,0.0,0.0,0.0,0.0,0.0,0.0,0.0,0.0,0.0,0.0,0.0,0.0,0.0,0.0,0.0,0.0,0.0,0.0,5.8995,5.8995,5.8995,5.8995,5.8995,5.8995,5.8995,5.8995,5.8995,5.9099,6.0289,6.1668,6.3101,6.348,6.36,6.36,6.36,6.36,6.36,0.0,3.6739,0.0,0.0,3.7843,0.0,3.8649,3.8855,3.8887,3.8729,3.9313,3.9724,3.9724,4.0388,4.0798,4.0798,4.1304,4.1605,4.1605,4.1605,4.1367,4.083,4.0798,4.0546,3.9945,3.9945,4.023,0.0,0.0,0.0,0.0,0.0,0.0,0.0,0.0,0.0,0.0,0.0,4.2956,4.238,4.238,4.2157,4.1921,4.249,4.2806,4.3011,4.3657,4.4257,4.4725,4.4883,4.5398,4.6036,4.6204,4.6996,4.7918,4.7918,4.8367,4.8898,4.8898,4.9436,5.0011,5.0011,5.0011,5.0011,5.0011,5.0011,5.0011,5.0011,5.0011,5.004,5.0149,5.0163,0.0,0.0,0.0,0.0,0.0,0.0,0.0,0.0,0.0,0.0,0.0,0.0,0.0,0.0,0.0,0.0,0.0,0.0,0.0,0.0,0.0,5.5391,5.6771,0.0,5.7702,5.8995,5.8995,5.8995,5.8995,5.8995,5.8995,5.8995,5.8995,5.9168,5.9599,6.0806,6.222,6.36,6.36,6.36,6.36,6.36,6.36,6.36,0.0,0.0,0.0,0.0,0.0,0.0,0.0,3.9977,4.0166,3.9503,4.004,4.0514,4.0514,4.1083,4.151,4.151,4.1573,4.1605,4.1605,4.1605,4.1573,4.151,4.151,4.1478,4.1415,4.1415,4.1447,0.0,0.0,0.0,0.0,0.0,0.0,0.0,0.0,0.0,0.0,4.2663,4.2301,4.1703,4.1703,4.2066,4.2617,4.268,4.3074,4.3688,4.4352,4.4636,4.4812,4.5484,4.6156,4.6801,4.7474,4.7802,4.7918,4.7918,4.8367,4.8898,4.8898,4.9436,5.0011,5.0011,5.0011,5.0011,5.0011,5.0011,5.0011,5.0011,5.0011,5.0011,5.0025,5.0025,5.004,0.0,0.0,0.0,0.0,0.0,0.0,0.0,0.0,0.0,0.0,0.0,0.0,0.0,0.0,0.0,0.0,0.0,0.0,5.4529,0.0,5.5927,5.6805,5.746,5.8219,5.8995,5.8995,5.8995,5.8995,5.8995,5.8995,5.8995,5.8995,5.9806,6.1116,6.1254,6.222,6.36,6.36,6.36,6.36,6.36,6.36,6.36,0.0,0.0,0.0,0.0,0.0,0.0,0.0,4.0419,4.064,4.0735,4.102,4.1209,4.1209,4.1447,4.1605,4.1605,4.1605,4.1605,4.1605,4.1605,4.1605,4.1605,4.1605,4.1605,4.1605,4.1605,4.1605,0.0,0.0,0.0,0.0,0.0,0.0,0.0,0.0,4.1981,4.1981,4.1981,4.1867,4.1637,4.2079,4.2459,4.2806,4.3579,4.4085,4.4383,4.511,4.5363,4.5412,4.571,4.599,4.6262,4.6547,4.6635,4.6635,4.6635,4.7439,4.8288,4.8288,4.9135,5.0011,5.0011,5.0011,5.0011,5.0011,5.0011,5.0011,5.0011,5.0011,5.0011,5.0011,5.0011,5.0011,0.0,0.0,0.0,0.0,0.0,0.0,0.0,0.0,0.0,0.0,0.0,0.0,0.0,0.0,0.0,0.0,0.0,0.0,5.4529,0.0,5.5996,5.6805,5.7529,5.8288,5.8995,5.8995,5.8995,5.8995,5.8995,5.8995,5.8995,5.8995,5.9857,6.1289,6.1289,6.222,6.36,6.36,6.36,6.36,6.36,6.36,6.36,3.8792,0.0,3.9819,0.0,3.9977,4.0293,4.0798,4.0893,4.1051,4.1542,4.1605,4.1605,4.1605,4.1605,4.1605,4.1605,4.1605,4.1605,4.1605,4.1605,4.1605,4.1605,4.1605,0.0,4.1605,4.1605,4.1605,4.1605,4.1605,0.0,0.0,0.0,0.0,0.0,4.1605,4.1605,4.1605,4.1826,4.1904,4.1984,4.2695,4.3105,4.339,4.4338,4.4826,4.5078,4.5615,4.5805,4.5805,4.5805,4.5805,4.5805,4.5805,4.5805,4.5805,4.5805,4.6652,4.7572,4.7572,4.8606,4.9664,4.9664,4.9845,5.008,5.0272,5.0306,5.0375,5.0582,5.0651,5.0651,5.0651,5.0651,5.0651,5.0651,0.0,0.0,0.0,0.0,0.0,0.0,0.0,5.1899,5.2735,0.0,0.0,0.0,0.0,0.0,0.0,0.0,0.0,0.0,0.0,0.0,0.0,5.7771,5.8478,5.8995,5.8995,5.8995,5.8995,5.8995,5.8995,5.8995,5.8995,5.9857,6.1289,6.1289,6.222,6.36,6.36,6.36,6.36,6.36,6.36,6.36,3.9503,4.0072,4.0577,4.0577,4.1114,4.1573,4.1605,4.1605,4.1605,4.1605,4.1605,4.1605,4.1605,4.1605,4.1605,4.1605,4.1605,4.1605,4.1605,4.1605,4.1605,0.0,0.0,4.1605,4.1605,4.1605,4.1605,4.1605,0.0,0.0,4.1605,0.0,4.1605,4.1605,4.1605,4.1605,4.1637,4.2395,4.268,4.2743,4.3404,4.4099,4.4685,4.4699,4.5142,4.5773,4.5805,4.5805,4.5805,4.5805,4.5805,4.5805,4.5805,4.5805,4.5805,4.5805,4.6266,4.6828,4.6828,4.7852,4.8914,4.8914,4.9451,5.0183,5.0927,5.1099,5.1306,5.203,5.2168,5.2168,5.2168,5.2168,5.2168,5.2168,0.0,0.0,0.0,0.0,0.0,0.0,5.2592,5.2934,5.3548,0.0,0.0,0.0,0.0,0.0,0.0,0.0,0.0,5.4478,5.5977,0.0,5.6805,5.8254,5.8995,5.8995,5.8995,5.8995,5.8995,5.8995,5.8995,5.8995,5.8995,5.9857,6.1289,6.1289,6.222,6.36,6.36,6.36,6.36,6.36,6.36,6.36,3.9731,4.0523,4.1158,4.0793,4.1231,4.1605,4.1605,4.1605,4.1605,4.1605,4.1605,4.1605,4.1605,4.1605,4.1605,0.0,4.1605,4.1605,0.0,4.1605,4.1605,4.1605,4.1605,4.1605,4.1605,4.1605,4.1605,4.1605,0.0,0.0,0.0,4.1605,4.1605,4.1605,4.1605,4.1889,4.2364,4.2617,4.2947,4.3436,4.4099,4.451,4.4731,4.5268,4.5584,4.5805,4.5805,4.5805,4.5805,4.5805,4.5805,4.5868,4.636,4.6171,4.5886,4.636,4.7001,4.7742,4.8701,4.9692,5.0534,5.1001,5.1344,5.1548,5.1789,5.1858,5.1927,5.2168,5.2203,5.2203,5.2203,5.2203,5.2203,5.2203,5.2203,0.0,0.0,0.0,0.0,0.0,0.0,5.3445,0.0,5.4368,0.0,0.0,0.0,0.0,0.0,0.0,0.0,0.0,5.6253,0.0,5.7529,5.8513,5.8995,5.8995,5.8995,5.8995,5.8995,5.8995,5.8995,5.8995,5.8995,5.9857,6.1289,6.1289,6.222,6.36,6.36,6.36,6.36,6.36,6.36,6.3669,4.0149,4.0743,4.1189,4.0851,4.1072,4.1306,4.1306,4.1306,4.1373,4.1572,4.1605,4.1605,4.1605,4.1605,0.0,4.1605,4.1605,4.1605,4.1605,4.1605,4.1605,4.1605,4.1605,4.1605,4.1605,0.0,0.0,4.1605,4.1605,4.1605,4.1605,4.1605,4.1763,4.2016,4.2016,4.241,4.3105,4.3327,4.3706,4.4131,4.4826,4.511,4.5142,4.5615,4.5805,4.5805,4.5805,4.5805,4.5837,4.6108,4.6171,4.6297,4.6992,4.6929,4.6676,4.7087,4.7723,4.8524,4.9405,5.0343,5.1262,5.1722,5.2001,5.2272,5.2582,5.2858,5.3065,5.3065,5.3065,5.3065,5.3065,5.3065,5.3065,5.3065,5.3065,5.3065,5.3065,0.0,0.0,0.0,0.0,0.0,0.0,5.4655,0.0,0.0,0.0,0.0,0.0,0.0,0.0,5.5582,5.6391,0.0,5.7909,5.8616,5.8995,5.8995,5.8995,5.8995,5.8995,5.8995,5.8995,5.8995,5.8995,5.9857,6.1289,6.1289,6.222,6.36,6.36,6.36,6.36,6.36,6.36,6.3703,4.0595,4.0763,0.0,0.0,4.0732,0.0,4.0783,4.0817,4.1021,4.1539,4.1605,4.1605,4.1605,4.1605,4.1605,4.1605,0.0,0.0,0.0,4.1605,4.1605,4.1605,4.1605,4.1605,4.1605,4.1605,4.1637,4.17,4.17,4.17,4.1763,4.1763,4.2111,4.2758,4.2758,4.3137,4.3815,4.4447,4.4731,4.4826,4.5521,4.5805,4.5805,4.5805,4.5805,4.5823,4.5837,4.5868,4.5963,4.6645,4.6866,4.6992,4.7751,4.7972,4.7972,4.7972,4.8472,4.903,4.9116,5.0187,5.1285,5.1333,5.1859,5.2548,5.3322,5.4011,5.4478,5.4478,5.4478,5.4478,5.4478,5.4478,5.4478,5.4478,5.4478,5.4478,5.4478,0.0,0.0,0.0,0.0,0.0,0.0,5.4623,5.4478,0.0,0.0,0.0,0.0,0.0,5.4927,5.5651,5.646,5.7219,5.7978,5.8668,5.8995,5.8995,5.8995,5.8995,5.8995,5.8995,5.8995,5.8995,5.8995,5.9857,6.1289,6.1289,6.222,6.36,6.36,6.36,6.36,6.36,6.36,6.3703,0.0,0.0,4.0526,3.9648,4.0231,4.0783,4.0783,4.1139,4.1456,4.1588,4.1605,4.1605,4.1605,4.1605,4.1605,4.1605,4.1605,4.1605,4.1605,4.1605,4.1605,4.1605,4.1605,4.1605,4.1605,4.1605,4.1889,4.2459,4.2459,4.2695,4.3183,4.32,4.3312,4.3467,4.3467,4.3846,4.4478,4.4636,4.5015,4.5552,4.571,4.5805,4.5805,4.5805,4.5805,4.5868,4.6392,4.655,4.6676,4.7403,4.7624,4.7751,4.8465,4.8655,4.8655,4.8655,4.8789,4.919,5.0306,5.1266,5.2096,5.2724,5.3416,5.3996,5.4203,5.4375,5.4478,5.4478,5.4478,5.4478,5.4478,5.4478,5.4478,5.4478,5.4478,5.4478,5.4478,5.4478,0.0,0.0,5.4545,5.4529,5.4576,5.4545,5.4478,0.0,0.0,0.0,0.0,5.534,5.5685,5.6495,5.7253,5.8012,5.872,5.8892,5.8995,5.8995,5.8995,5.8995,5.8995,5.8995,5.8995,5.8995,5.8995,5.9857,6.1289,6.1289,6.222,6.36,6.36,6.36,6.36,6.36,6.36,6.3772,3.9162,3.9595,3.9826,3.9199,3.9796,4.0374,4.0374,4.0885,4.1323,4.1572,4.1605,4.1605,4.1605,4.1605,4.1605,4.1605,4.1605,4.1605,4.1605,4.1605,4.1605,4.1605,4.1921,4.2094,4.2094,4.241,4.2758,4.3154,4.3169,4.3341,4.372,4.3706,4.3864,4.4162,4.4162,4.4541,4.5205,4.5205,4.5426,4.5805,4.5805,4.5805,4.5805,4.5805,4.6013,4.6297,4.6676,4.7024,4.7403,4.813,4.8351,4.8478,4.9141,4.9363,4.9363,4.9363,4.9635,5.0102,5.0873,5.1645,5.2403,5.3213,5.3946,5.4478,5.4478,5.4478,5.4478,5.4478,5.4478,5.4478,5.4478,5.4478,5.4478,5.4478,5.4478,5.4478,5.4478,5.4478,0.0,5.4478,5.4478,5.4478,5.4478,5.4478,5.4478,5.4478,5.4478,0.0,5.5547,5.5927,5.6495,5.7288,5.7702,5.8254,5.8995,5.8995,5.8995,5.8995,5.8995,5.8995,5.8995,5.8995,5.8995,5.8995,5.8995,5.9857,6.1289,6.1289,6.222,6.36,6.36,6.36,6.36,6.36,6.36,6.3807,3.887,3.9035,3.9053,3.898,3.9403,3.9796,3.9796,4.027,4.0834,4.1258,4.1517,4.1647,4.1647,4.1808,4.1904,4.1904,4.1904,4.1873,4.1763,4.1763,4.181,4.1904,4.2505,4.2853,4.2853,4.3404,4.3752,4.385,4.3846,4.391,4.4036,4.4036,4.432,4.4857,4.4857,4.5205,4.5805,4.5805,4.5805,4.5805,4.5805,4.5837,4.5931,4.5931,4.636,4.6992,4.7087,4.753,4.8162,4.8825,4.9047,4.9141,4.9722,4.9912,4.9912,4.9912,5.0389,5.0914,5.0914,5.1461,5.2261,5.3179,5.3881,5.4367,5.4463,5.4478,5.4478,5.4478,5.4478,5.4478,5.4478,5.4478,5.4478,5.4478,5.4478,5.4478,5.4478,0.0,5.4478,5.4478,5.4478,5.4478,5.4478,5.4478,5.4478,5.4478,5.4582,5.4996,5.5754,5.6529,5.7288,5.8047,5.8081,5.8392,5.8995,5.8995,5.8995,5.8995,5.8995,5.8995,5.8995,5.8995,5.8995,5.8995,5.915,5.9978,6.1323,6.1427,6.2324,6.36,6.36,6.36,6.36,6.36,6.3669,6.3979,3.8427,3.8741,3.8925,3.8427,3.8833,3.9217,3.9217,3.969,4.0065,4.0152,4.111,4.1776,4.1776,4.2736,4.3373,4.3373,4.3373,4.312,4.2585,4.2522,4.2789,4.3341,4.3467,4.3531,4.3531,4.3657,4.3973,4.4541,4.4541,4.4857,4.5457,4.5457,4.5521,4.5615,4.5615,4.5679,4.5805,4.5805,4.5805,4.5805,4.5805,4.6139,4.6645,4.6645,4.7087,4.7814,4.837,4.8655,4.8845,4.9501,4.9754,4.9754,4.988,4.9912,4.9912,4.9912,5.001,5.0077,5.0077,5.0666,5.159,5.306,5.3483,5.3749,5.4351,5.4478,5.4478,5.4478,5.4478,5.4478,5.4478,5.4478,5.4478,5.4478,5.4478,5.4478,5.4478,0.0,5.4478,5.4478,5.4478,5.4478,5.4478,5.4478,5.4478,5.4478,5.5065,5.5789,5.6564,5.7322,5.8081,5.8806,5.8823,5.8892,5.8995,5.8995,5.8995,5.8995,5.8995,5.8995,5.8995,5.8995,5.8995,5.903,5.9737,6.0496,6.1358,6.2013,6.2825,6.36,6.36,6.36,6.36,6.36,6.3979,6.4669,3.8258,3.8427,3.8519,3.824,3.8686,3.909,3.909,3.9878,4.0448,4.0448,4.1546,4.2333,4.2333,4.3137,4.372,4.372,4.3688,4.3706,4.3769,4.3453,4.339,4.3674,4.4053,4.4415,4.4826,4.4826,4.4984,4.53,4.53,4.5457,4.5805,4.5805,4.5805,4.5805,4.5805,4.5805,4.5805,4.5805,4.5994,4.631,4.6218,4.6678,4.7384,4.724,4.7719,4.8478,4.8781,4.9141,4.9489,4.9785,4.9912,4.9912,4.9912,4.9912,4.9912,4.9912,4.9912,4.9912,4.9912,5.08,5.1849,5.2594,5.3399,5.4076,5.4415,5.4478,5.4478,5.4478,5.4478,5.4478,5.4478,5.4478,5.4478,5.4478,5.4478,0.0,0.0,5.4478,5.4478,5.4478,5.4478,5.4478,5.4478,5.4478,5.4651,5.5065,5.5409,5.6099,5.7322,5.7736,5.8254,5.8961,5.8995,5.8995,5.8995,5.8995,5.8995,5.8995,5.8995,5.8995,5.8995,5.8995,5.8995,5.903,5.984,6.0634,6.1358,6.2169,6.291,6.36,6.36,6.36,6.36,6.36,6.4048,6.4807,3.8202,3.8202,3.8202,3.8202,3.8692,3.9106,3.9106,4.0028,4.078,4.0927,4.2065,4.2883,4.3058,4.3733,4.4194,4.4194,4.418,4.4401,4.492,4.4478,4.4194,4.4197,4.4685,4.5205,4.5773,4.5805,4.5805,4.5805,4.5805,4.5805,4.5805,4.5805,4.5805,4.5805,4.5805,4.5886,4.6044,4.6044,4.6424,4.7037,4.6887,4.7366,4.8111,4.7907,4.8374,4.9141,4.9141,4.9457,4.9912,4.9912,4.9912,4.9912,4.9912,4.9912,4.9912,4.9912,4.9912,4.9912,4.9912,5.09,5.1993,5.2172,5.323,5.4303,5.4447,5.4478,5.4478,5.4478,5.4478,5.4478,5.4478,5.4478,5.4478,5.4478,0.0,0.0,0.0,5.4478,5.4478,5.4478,5.4478,5.4478,5.4478,5.4667,5.4996,5.5547,5.5927,5.6651,5.784,5.8081,5.8426,5.8961,5.8995,5.8995,5.8995,5.8995,5.8995,5.8995,5.8995,5.8995,5.8995,5.8995,5.8995,5.903,6.0047,6.0771,6.1392,6.2358,6.3101,6.36,6.36,6.36,6.36,6.36,6.4186,6.5048,3.8202,3.8202,3.8202,3.8202,3.8763,3.9189,3.9189,3.9722,4.0383,4.098,4.2176,4.3184,4.3771,4.4911,4.5647,4.5647,4.5665,4.5665,4.571,4.5679,4.5647,4.5665,4.5679,4.5742,4.5805,4.5805,4.5805,4.5805,4.5805,4.5805,4.5805,4.5805,4.5805,4.5805,4.5805,4.6139,4.674,4.674,4.715,4.7814,4.7795,4.8225,4.8825,4.8794,4.9217,4.9817,4.9817,4.9848,4.9912,4.9912,4.9912,4.9912,4.9912,4.9912,4.9912,4.9912,4.9912,4.9912,4.9912,5.0544,5.1364,5.2029,5.2855,5.3649,5.4351,5.4478,5.4478,5.4478,5.4478,5.4478,5.4478,5.4478,5.4478,5.4478,0.0,0.0,5.4478,5.4478,5.4478,5.4478,5.4478,5.4478,5.4478,5.5134,5.5547,5.5582,5.6927,5.7771,5.7909,5.8564,5.8926,5.8995,5.8995,5.8995,5.8995,5.8995,5.8995,5.8995,5.8995,5.8995,5.8995,5.8995,5.8995,5.9064,6.0565,6.1254,6.1427,6.291,6.3531,6.36,6.36,6.36,6.36,6.36,6.455,6.5826,3.8202,3.8522,3.8812,3.8812,3.9334,3.977,3.977,4.0321,4.0828,4.1066,4.2521,4.3659,4.3888,4.5035,4.5805,4.5805,4.5805,4.5805,4.5805,4.5805,4.5805,4.5805,4.5805,4.5805,4.5805,4.5805,4.5805,4.5805,4.5805,4.5805,4.5805,4.5805,4.6026,4.6424,4.6424,4.6834,4.7466,4.7466,4.7877,4.849,4.827,4.8686,4.9481,4.9244,4.9461,4.9912,4.9912,4.9912,4.9912,4.9912,4.9912,4.9912,4.9912,4.9912,4.9912,4.9912,4.9912,4.9912,4.9912,5.0805,5.1957,5.2768,5.3516,5.4175,5.4431,5.4478,5.4478,5.4478,5.4478,5.4478,5.4478,5.4478,5.4478,5.4478,0.0,5.4478,5.4478,5.4478,5.4478,5.4478,5.4478,5.4685,5.5134,5.5444,5.5996,5.6961,5.7564,5.8116,5.8547,5.8857,5.8995,5.8995,5.8995,5.8995,5.8995,5.8995,5.8995,5.8995,5.8995,5.8995,5.8995,5.8995,5.8995,5.9064,6.0634,6.1289,6.1427,6.2944,6.36,6.36,6.36,6.36,6.36,6.36,6.4584,6.5895,3.8522,3.9044,3.9479,3.9479,4.0002,4.0408,4.0408,4.0989,4.1477,4.1679,4.2832,4.3693,4.3888,4.4685,4.5265,4.545,4.5499,4.5591,4.5805,4.5805,4.5805,4.5805,4.5805,4.5805,4.5805,4.5805,4.5805,4.5805,4.5805,4.59,4.6108,4.6108,4.6487,4.715,4.715,4.753,4.8193,4.8193,4.8604,4.9185,4.8922,4.9244,4.9872,4.9582,4.9673,4.9912,4.9912,4.9912,4.9912,4.9912,4.9912,4.9912,4.9912,4.9912,4.9912,4.9912,4.9912,4.9971,5.0195,5.1238,5.235,5.2889,5.3765,5.4478,5.4478,5.4478,5.4478,5.4478,5.4478,5.4478,5.4478,5.4478,5.4478,5.4478,5.4478,5.4478,5.4478,5.4478,5.4582,5.4823,5.4858,5.5134,5.5892,5.6168,5.6754,5.784,5.8099,5.8478,5.8961,5.8995,5.8995,5.8995,5.8995,5.8995,5.8995,5.8995,5.8995,5.8995,5.8995,5.8995,5.8995,5.8995,5.8995,5.9064,6.0634,6.1289,6.1427,6.2944,6.36,6.36,6.36,6.36,6.36,6.36,6.4584,6.5895,3.9218,3.9683,4.0118,4.0118,4.067,4.1105,4.1105,4.1657,4.231,4.29,4.3001,4.322,4.383,4.3907,4.4159,4.4756,4.4812,4.5086,4.5769,4.5805,4.5805,4.5805,4.5805,4.5805,4.5805,4.5805,4.5805,4.5805,4.5805,4.6152,4.6803,4.6803,4.7214,4.7909,4.7909,4.8288,4.8908,4.8908,4.9299,4.9912,4.9912,4.9912,4.9912,4.9912,4.9912,4.9912,4.9912,4.9912,4.9912,4.9912,4.9912,4.9912,4.9912,4.9912,4.9912,4.9912,4.9912,5.0058,5.0857,5.1645,5.2175,5.2226,5.3365,5.4478,5.4478,5.4478,5.4478,5.4478,5.4478,5.4478,5.4478,5.4478,5.4478,5.4478,5.4478,5.4478,5.4529,5.4529,5.4789,5.5513,5.5616,5.5927,5.6736,5.746,5.7909,5.7909,5.8599,5.8995,5.8995,5.8995,5.8995,5.8995,5.8995,5.8995,5.8995,5.8995,5.8995,5.8995,5.8995,5.8995,5.8995,5.8995,5.8995,5.9099,6.0634,6.1289,6.1427,6.2979,6.36,6.36,6.36,6.36,6.36,6.36,6.4584,6.5895,3.9828,4.035,4.0786,4.0786,4.1366,4.1802,4.1802,4.1976,4.2175,4.2331,4.2749,4.3061,4.324,4.4013,4.4605,4.4774,4.5216,4.5591,4.5805,4.5805,4.5805,4.5805,4.5805,4.5805,4.5805,4.5805,4.6044,4.6518,4.6518,4.6866,4.7561,4.7561,4.794,4.8604,4.8604,4.8983,4.9596,4.9596,4.9722,4.9892,4.9753,4.9793,4.9892,4.9753,4.9793,4.9912,4.9912,4.9912,4.9912,4.9912,4.9912,4.9912,4.9912,4.9912,4.9912,4.9912,4.9912,4.9971,5.0195,5.0838,5.1682,5.2768,5.3765,5.4478,5.4478,5.4478,5.4478,5.4478,5.4478,5.4478,5.4478,5.4478,5.4478,5.4478,5.4478,5.4685,5.5203,5.5272,5.5547,5.6357,5.646,5.6736,5.7495,5.7771,5.8099,5.8616,5.8857,5.8995,5.8995,5.8995,5.8995,5.8995,5.8995,5.8995,5.8995,5.8995,5.8995,5.8995,5.8995,5.8995,5.8995,5.8995,5.9323,5.9909,6.0875,6.1634,6.2238,6.3204,6.36,6.36,6.36,6.36,6.36,6.36,6.4584,6.5895,4.0495,4.1047,4.1482,4.1482,4.1831,4.2092,4.2092,4.2092,4.2092,4.2092,4.2412,4.2627,4.2627,4.3299,4.3916,4.4396,4.5265,4.5805,4.5805,4.6044,4.6202,4.6202,4.6487,4.6487,4.6202,4.6202,4.655,4.7245,4.7245,4.7593,4.8288,4.8288,4.8636,4.9299,4.9299,4.9501,4.9892,4.9832,4.9832,4.9892,4.9693,4.9733,4.9892,4.9773,4.9812,4.9912,4.9912,4.9912,4.9912,4.9912,4.9912,4.9912,4.9912,4.9912,4.9912,4.9912,4.9912,4.9912,4.9912,5.0704,5.1773,5.2699,5.35,5.4125,5.4431,5.4478,5.4478,5.4478,5.4478,5.4478,5.4478,5.4478,5.4478,5.4478,5.472,5.5099,5.5547,5.5858,5.634,5.715,5.7253,5.7529,5.8237,5.8357,5.8513,5.8961,5.8995,5.8995,5.8995,5.8995,5.8995,5.8995,5.8995,5.8995,5.8995,5.8995,5.8995,5.8995,5.8995,5.8995,5.8995,5.8995,5.9461,6.022,6.0978,6.1772,6.2549,6.3308,6.36,6.36,6.36,6.36,6.36,6.36,6.4584,6.5895,4.1192,4.1686,4.2092,4.2092,4.2092,4.2092,4.2092,4.2092,4.2092,4.2092,4.2092,4.2092,4.2092,4.2154,4.2657,4.3791,4.5061,4.5837,4.5886,4.6455,4.6834,4.6898,4.753,4.7624,4.6992,4.6929,4.7245,4.7972,4.7972,4.832,4.9003,4.9003,4.9331,4.9912,4.9912,4.9912,4.9892,4.9693,4.9733,4.9892,4.9693,4.9733,4.9912,4.9912,4.9912,4.9912,4.9912,4.9912,4.9912,4.9912,4.9912,4.9912,4.9912,4.9912,4.9912,4.9912,4.9912,4.9912,4.9912,5.0976,5.2137,5.2157,5.2787,5.3583,5.4335,5.4478,5.4478,5.4478,5.4478,5.4478,5.4478,5.4547,5.4598,5.4598,5.5203,5.572,5.5789,5.646,5.7185,5.7909,5.8012,5.8237,5.8926,5.8995,5.8995,5.8995,5.8995,5.8995,5.8995,5.8995,5.8995,5.8995,5.8995,5.8995,5.8995,5.8995,5.8995,5.8995,5.8995,5.8995,5.8995,5.8995,5.9461,6.0323,6.1013,6.1772,6.2652,6.3324,6.36,6.36,6.36,6.36,6.36,6.36,6.4584,6.593,4.1889,4.2005,4.2092,4.2092,4.2092,4.2092,4.2092,4.2092,4.2092,4.2092,4.2092,4.2092,4.2092,4.2535,4.3081,4.383,4.5061,4.6026,4.655,4.6708,4.7056,4.7624,4.7814,4.8067,4.8434,4.7909,4.8004,4.8667,4.8667,4.9015,4.969,4.969,4.9754,4.9912,4.9912,4.9912,4.9892,4.9693,4.9733,4.9892,4.9693,4.9733,4.9912,4.9912,4.9912,4.9912,4.9912,4.9912,4.9912,4.9912,4.9912,4.9912,4.9912,4.9912,4.9912,4.9912,4.9912,4.9912,4.9912,5.0589,5.148,5.2065,5.2787,5.3583,5.4335,5.4478,5.4478,5.4478,5.4478,5.4478,5.4478,5.4961,5.5375,5.5375,5.603,5.6736,5.7306,5.7564,5.7943,5.8651,5.8754,5.8823,5.8961,5.8995,5.8995,5.8995,5.8995,5.8995,5.8995,5.8995,5.8995,5.8995,5.8995,5.8995,5.8995,5.8995,5.8995,5.8995,5.8995,5.8995,5.8995,5.8995,5.9771,6.1082,6.122,6.2082,6.3358,6.3531,6.36,6.36,6.36,6.36,6.36,6.36,6.4584,6.6068,4.2092,4.2092,4.2092,4.2092,4.2092,4.2092,4.2092,4.2092,4.2092,4.2092,4.2092,4.2092,4.2092,4.2372,4.3069,4.4323,4.5547,4.6582,4.7277,4.7624,4.7972,4.8351,4.8699,4.9015,4.9363,4.9047,4.9047,4.9394,4.9394,4.9564,4.9912,4.9912,4.9912,4.9912,4.9912,4.9912,4.9892,4.9693,4.9733,4.9892,4.9693,4.9733,4.9912,4.9912,4.9912,4.9912,4.9912,4.9912,4.9912,4.9912,4.9912,4.9912,4.9912,4.9912,4.9912,4.9912,4.9912,4.9912,4.9912,5.0742,5.1736,5.2119,5.3078,5.4011,5.4415,5.4478,5.4478,5.4478,5.4789,5.503,5.503,5.5651,5.6168,5.6168,5.684,5.746,5.784,5.8202,5.8564,5.8926,5.8995,5.8995,5.8995,5.8995,5.8995,5.8995,5.8995,5.8995,5.8995,5.8995,5.8995,5.8995,5.8995,5.8995,5.8995,5.8995,5.8995,5.8995,5.8995,5.8995,5.8995,5.9392,6.022,6.1323,6.1703,6.253,6.36,6.36,6.36,6.36,6.36,6.36,6.36,6.36,6.4584,6.6102,4.2092,4.2092,4.2092,4.2092,4.2092,4.2092,4.2092,4.2092,4.2092,4.2092,4.2092,4.2092,4.2092,4.2283,4.3121,4.4859,4.5978,4.7032,4.8004,4.8476,4.8855,4.9047,4.9596,4.9912,4.9912,4.9912,4.9912,4.9912,4.9912,4.9912,4.9912,4.9912,4.9912,4.9912,4.9912,4.9912,4.9892,4.9693,4.9733,4.9892,4.9693,4.9733,4.9912,4.9912,4.9912,4.9912,4.9912,4.9912,4.9912,4.9912,4.9912,4.9912,4.9912,4.9912,4.9912,4.9912,4.9912,4.9951,5.0058,5.1145,5.221,5.2385,5.3449,5.4513,5.4651,5.4685,5.4685,5.4685,5.5272,5.5789,5.5789,5.646,5.6978,5.6978,5.7598,5.8081,5.8081,5.8616,5.8995,5.8995,5.8995,5.8995,5.8995,5.8995,5.8995,5.8995,5.8995,5.8995,5.8995,5.8995,5.8995,5.8995,5.8995,5.8995,5.8995,5.8995,5.8995,5.8995,5.8995,5.8995,5.903,5.984,6.0599,6.1358,6.2151,6.2928,6.36,6.36,6.36,6.36,6.36,6.36,6.3634,6.3894,6.4826,6.6102,4.2092,4.2092,4.2092,4.2092,4.2092,4.2092,4.2092,4.2092,4.2092,4.2092,4.2092,4.2092,4.2092,4.3025,4.4035,4.4929,4.5565,4.6735,4.8641,4.8317,4.8551,4.9702,4.9848,4.9912,4.9912,4.9912,4.9912,4.9912,4.9912,4.9912,4.9912,4.9912,4.9912,4.9912,4.9912,4.9912,4.9892,4.9693,4.9733,4.9892,4.9693,4.9733,4.9912,4.9912,4.9912,4.9912,4.9912,4.9912,4.9912,4.9912,4.9912,4.9912,4.9912,4.9912,4.9912,4.9912,4.9912,5.0038,5.0755,5.1572,5.2367,5.3061,5.3881,5.4651,5.5306,5.5444,5.5444,5.5444,5.6065,5.6633,5.6633,5.7253,5.7771,5.7771,5.8375,5.8857,5.8857,5.8926,5.8995,5.8995,5.8995,5.8995,5.8995,5.8995,5.8995,5.8995,5.8995,5.8995,5.8995,5.8995,5.8995,5.8995,5.8995,5.8995,5.8995,5.8995,5.8995,5.8995,5.8995,5.8995,5.903,5.984,6.0599,6.1358,6.2151,6.2928,6.36,6.36,6.36,6.36,6.36,6.36,6.3738,6.5102,6.5723,6.6102,4.2092,4.2092,4.2092,4.2092,4.2092,4.2092,4.2092,4.2092,4.2092,4.2092,4.2092,4.2092,4.2092,4.3196,4.4212,4.4939,4.5858,4.7119,4.8789,4.8631,4.8876,4.984,4.9912,4.9912,4.9912,4.9912,4.9912,4.9912,4.9912,4.9912,4.9912,4.9912,4.9912,4.9912,4.9912,4.9912,4.9892,4.9812,4.9832,4.9892,4.9812,4.9832,4.9912,4.9912,4.9912,4.9912,4.9912,4.9912,4.9912,4.9912,4.9912,4.9912,4.9912,4.9912,4.9912,4.9912,4.9912,5.0089,5.0857,5.1645,5.2403,5.3213,5.4254,5.5203,5.5513,5.6271,5.6754,5.6357,5.6874,5.7426,5.7426,5.8012,5.8513,5.8513,5.8788,5.8995,5.8995,5.8995,5.8995,5.8995,5.8995,5.8995,5.8995,5.8995,5.8995,5.8995,5.8995,5.8995,5.8995,5.8995,5.8995,5.8995,5.8995,5.8995,5.8995,5.8995,5.8995,5.8995,5.8995,5.9237,5.9702,6.0461,6.122,6.2013,6.2772,6.3289,6.36,6.36,6.36,6.36,6.36,6.36,6.3772,6.5343,6.5895,6.6102]},{"header":{"parameterUnit":"m.s-1","parameterCategory":1,"la1":30.6,"la2":28.766,"lo1":-90.7593,"lo2":-88.6598,"dy":0.0162,"dx":0.0183,"nx":116,"ny":114,"refTime":"2024-03-25T06:00:00:Z","depth":0,"parameterNumber":3,"parameterNumberName":"V-component_of_WINDS"},"data":[0.0,0.0,0.0,0.0,0.0,0.0,0.0,0.0,0.0,0.0,0.0,0.0,0.0,0.0,0.0,0.0,0.0,0.0,0.0,0.0,0.0,0.0,0.0,0.0,0.0,0.0,0.0,0.0,0.0,0.0,0.0,0.0,0.0,0.0,0.0,0.0,0.0,0.0,0.0,0.0,0.0,0.0,0.0,0.0,0.0,0.0,0.0,0.0,0.0,0.0,0.0,0.0,0.0,0.0,0.0,0.0,0.0,0.0,0.0,0.0,0.0,0.0,0.0,0.0,0.0,0.0,0.0,0.0,0.0,0.0,0.0,0.0,0.0,0.0,0.0,0.0,0.0,0.0,0.0,0.0,0.0,0.0,0.0,0.0,0.0,0.0,0.0,0.0,0.0,0.0,0.0,0.0,0.0,0.0,0.0,0.0,0.0,0.0,0.0,0.0,0.0,0.0,0.0,0.0,0.0,0.0,0.0,0.0,0.0,0.0,0.0,0.0,0.0,0.0,0.0,0.0,0.0,0.0,0.0,0.0,0.0,0.0,0.0,0.0,0.0,0.0,0.0,0.0,0.0,0.0,0.0,0.0,0.0,0.0,0.0,0.0,0.0,0.0,0.0,0.0,0.0,0.0,0.0,0.0,0.0,0.0,0.0,0.0,0.0,0.0,0.0,0.0,0.0,0.0,0.0,0.0,0.0,0.0,0.0,0.0,0.0,0.0,0.0,0.0,0.0,0.0,0.0,0.0,0.0,0.0,0.0,0.0,0.0,0.0,0.0,0.0,0.0,0.0,0.0,0.0,0.0,0.0,0.0,0.0,0.0,0.0,0.0,0.0,0.0,0.0,0.0,0.0,0.0,0.0,0.0,0.0,0.0,0.0,0.0,0.0,0.0,0.0,0.0,0.0,0.0,0.0,0.0,0.0,0.0,0.0,0.0,0.0,0.0,0.0,0.0,0.0,0.0,0.0,0.0,0.0,0.0,0.0,0.0,0.0,0.0,0.0,0.0,0.0,0.0,0.0,0.0,0.0,0.0,0.0,0.0,0.0,0.0,0.0,0.0,0.0,0.0,0.0,0.0,0.0,0.0,0.0,0.0,0.0,0.0,0.0,0.0,0.0,0.0,0.0,0.0,0.0,0.0,0.0,0.0,0.0,0.0,0.0,0.0,0.0,0.0,0.0,0.0,0.0,0.0,0.0,0.0,0.0,0.0,0.0,0.0,0.0,0.0,0.0,0.0,0.0,0.0,0.0,0.0,0.0,0.0,0.0,0.0,0.0,0.0,0.0,0.0,0.0,0.0,0.0,0.0,0.0,0.0,0.0,0.0,0.0,0.0,0.0,0.0,0.0,0.0,0.0,0.0,0.0,0.0,0.0,0.0,0.0,0.0,0.0,0.0,0.0,0.0,0.0,0.0,0.0,0.0,0.0,0.0,0.0,0.0,0.0,0.0,0.0,0.0,0.0,0.0,0.0,0.0,0.0,0.0,0.0,0.0,0.0,0.0,0.0,0.0,0.0,0.0,0.0,0.0,0.0,0.0,0.0,0.0,0.0,0.0,0.0,0.0,0.0,0.0,0.0,0.0,0.0,0.0,0.0,0.0,0.0,0.0,0.0,0.0,0.0,0.0,0.0,0.0,0.0,0.0,0.0,0.0,0.0,0.0,0.0,0.0,0.0,0.0,0.0,0.0,0.0,0.0,0.0,0.0,0.0,0.0,0.0,0.0,0.0,0.0,0.0,0.0,0.0,0.0,0.0,0.0,0.0,0.0,0.0,0.0,0.0,0.0,0.0,0.0,0.0,0.0,0.0,0.0,0.0,0.0,0.0,0.0,0.0,0.0,0.0,0.0,0.0,0.0,0.0,0.0,0.0,0.0,0.0,0.0,0.0,0.0,0.0,0.0,0.0,0.0,0.0,0.0,0.0,0.0,0.0,0.0,0.0,0.0,0.0,0.0,0.0,0.0,0.0,0.0,0.0,0.0,0.0,0.0,0.0,0.0,0.0,0.0,0.0,0.0,0.0,0.0,0.0,0.0,0.0,0.0,0.0,0.0,0.0,0.0,0.0,0.0,0.0,0.0,0.0,0.0,0.0,0.0,0.0,0.0,0.0,0.0,0.0,0.0,0.0,0.0,0.0,0.0,0.0,0.0,0.0,0.0,0.0,0.0,0.0,0.0,0.0,0.0,0.0,0.0,0.0,0.0,0.0,0.0,0.0,0.0,0.0,0.0,0.0,0.0,0.0,0.0,0.0,0.0,0.0,0.0,0.0,0.0,0.0,0.0,0.0,0.0,0.0,0.0,0.0,0.0,0.0,0.0,0.0,0.0,0.0,0.0,0.0,0.0,0.0,0.0,0.0,0.0,0.0,0.0,0.0,0.0,0.0,0.0,0.0,0.0,0.0,0.0,0.0,0.0,0.0,0.0,0.0,0.0,0.0,0.0,0.0,0.0,0.0,0.0,0.0,0.0,0.0,0.0,0.0,0.0,0.0,0.0,0.0,0.0,0.0,0.0,0.0,0.0,0.0,0.0,0.0,0.0,0.0,0.0,0.0,0.0,0.0,0.0,0.0,0.0,0.0,0.0,0.0,0.0,0.0,0.0,0.0,0.0,0.0,0.0,0.0,0.0,0.0,0.0,0.0,0.0,0.0,0.0,0.0,0.0,0.0,0.0,0.0,0.0,0.0,0.0,0.0,0.0,0.0,0.0,0.0,0.0,0.0,0.0,0.0,0.0,0.0,0.0,0.0,0.0,0.0,0.0,0.0,0.0,0.0,0.0,0.0,0.0,0.0,0.0,0.0,0.0,0.0,0.0,0.0,0.0,0.0,0.0,0.0,0.0,0.0,0.0,0.0,0.0,0.0,0.0,0.0,0.0,0.0,0.0,0.0,0.0,0.0,0.0,0.0,0.0,0.0,0.0,0.0,0.0,0.0,0.0,0.0,0.0,0.0,0.0,0.0,0.0,0.0,0.0,0.0,0.0,0.0,0.0,0.0,0.0,0.0,0.0,0.0,0.0,0.0,0.0,0.0,0.0,0.0,0.0,0.0,0.0,0.0,0.0,0.0,0.0,0.0,0.0,0.0,0.0,0.0,0.0,0.0,0.0,0.0,0.0,0.0,0.0,0.0,0.0,0.0,0.0,0.0,0.0,0.0,0.0,0.0,0.0,0.0,0.0,0.0,0.0,0.0,0.0,0.0,0.0,0.0,0.0,0.0,0.0,0.0,0.0,0.0,0.0,0.0,0.0,0.0,0.0,0.0,0.0,0.0,0.0,0.0,0.0,0.0,0.0,0.0,0.0,0.0,0.0,0.0,0.0,0.0,0.0,0.0,0.0,0.0,0.0,0.0,0.0,0.0,0.0,0.0,0.0,0.0,0.0,0.0,0.0,0.0,0.0,0.0,0.0,0.0,0.0,0.0,0.0,0.0,0.0,0.0,0.0,0.0,0.0,0.0,0.0,0.0,0.0,0.0,0.0,0.0,0.0,0.0,0.0,0.0,0.0,0.0,0.0,0.0,0.0,0.0,0.0,0.0,0.0,0.0,0.0,0.0,0.0,0.0,0.0,0.0,0.0,0.0,0.0,0.0,0.0,0.0,0.0,0.0,0.0,0.0,0.0,0.0,0.0,0.0,0.0,0.0,0.0,0.0,0.0,0.0,0.0,0.0,0.0,0.0,0.0,0.0,0.0,0.0,0.0,0.0,0.0,0.0,0.0,0.0,0.0,0.0,0.0,0.0,0.0,0.0,0.0,0.0,0.0,0.0,0.0,0.0,0.0,0.0,0.0,0.0,0.0,0.0,0.0,0.0,0.0,0.0,0.0,0.0,0.0,0.0,0.0,0.0,0.0,0.0,0.0,0.0,0.0,0.0,0.0,0.0,0.0,0.0,0.0,0.0,0.0,0.0,0.0,0.0,0.0,0.0,0.0,0.0,0.0,0.0,0.0,0.0,0.0,0.0,0.0,0.0,0.0,0.0,0.0,0.0,0.0,0.0,0.0,0.0,0.0,0.0,0.0,0.0,0.0,0.0,0.0,0.0,0.0,0.0,0.0,0.0,0.0,0.0,0.0,0.0,0.0,0.0,0.0,0.0,0.0,0.0,0.0,0.0,0.0,0.0,0.0,0.0,0.0,0.0,0.0,0.0,0.0,0.0,0.0,0.0,0.0,0.0,0.0,0.0,0.0,0.0,0.0,0.0,0.0,0.0,0.0,0.0,0.0,0.0,0.0,0.0,0.0,0.0,0.0,0.0,0.0,0.0,0.0,0.0,0.0,0.0,0.0,0.0,0.0,0.0,0.0,0.0,0.0,0.0,0.0,0.0,0.0,0.0,0.0,0.0,0.0,0.0,0.0,0.0,0.0,0.0,0.0,0.0,0.0,0.0,0.0,0.0,0.0,0.0,0.0,0.0,0.0,0.0,0.0,0.0,0.0,0.0,0.0,0.0,0.0,0.0,0.0,0.0,0.0,0.0,0.0,0.0,0.0,0.0,0.0,0.0,0.0,0.0,0.0,0.0,0.0,0.0,0.0,0.0,0.0,0.0,0.0,0.0,0.0,0.0,0.0,0.0,0.0,0.0,0.0,0.0,0.0,0.0,0.0,0.0,0.0,0.0,0.0,0.0,0.0,0.0,0.0,0.0,0.0,0.0,0.0,0.0,0.0,0.0,0.0,0.0,0.0,0.0,0.0,0.0,0.0,0.0,0.0,0.0,0.0,0.0,0.0,0.0,0.0,0.0,0.0,0.0,0.0,0.0,0.0,0.0,0.0,0.0,0.0,0.0,0.0,0.0,0.0,0.0,0.0,0.0,0.0,0.0,0.0,0.0,0.0,0.0,0.0,0.0,0.0,0.0,0.0,0.0,0.0,0.0,0.0,0.0,0.0,0.0,0.0,0.0,0.0,0.0,0.0,0.0,0.0,0.0,0.0,0.0,0.0,0.0,0.0,0.0,0.0,0.0,0.0,0.0,0.0,0.0,0.0,0.0,0.0,0.0,0.0,0.0,0.0,0.0,0.0,0.0,0.0,0.0,0.0,0.0,0.0,0.0,0.0,0.0,0.0,0.0,0.0,0.0,0.0,0.0,0.0,0.0,0.0,0.0,0.0,0.0,0.0,0.0,0.0,0.0,0.0,0.0,0.0,0.0,0.0,0.0,0.0,0.0,0.0,0.0,0.0,0.0,0.0,0.0,0.0,0.0,0.0,0.0,0.0,0.0,0.0,0.0,0.0,0.0,0.0,0.0,0.0,0.0,0.0,0.0,0.0,0.0,0.0,0.0,0.0,0.0,0.0,0.0,0.0,0.0,0.0,0.0,0.0,0.0,0.0,0.0,0.0,0.0,0.0,0.0,0.0,0.0,0.0,0.0,0.0,0.0,0.0,0.0,0.0,0.0,0.0,0.0,0.0,0.0,0.0,0.0,0.0,0.0,0.0,0.0,0.0,0.0,0.0,0.0,0.0,0.0,0.0,0.0,0.0,0.0,0.0,0.0,0.0,0.0,0.0,0.0,0.0,0.0,0.0,0.0,0.0,0.0,0.0,0.0,0.0,0.0,0.0,0.0,0.0,0.0,0.0,0.0,0.0,0.0,0.0,0.0,0.0,0.0,0.0,0.0,0.0,0.0,0.0,0.0,0.0,0.0,0.0,0.0,0.0,0.0,0.0,0.0,0.0,0.0,0.0,0.0,0.0,0.0,0.0,0.0,0.0,0.0,0.0,0.0,0.0,0.0,0.0,0.0,0.0,0.0,0.0,0.0,0.0,0.0,0.0,0.0,0.0,0.0,0.0,0.0,0.0,0.0,0.0,0.0,0.0,0.0,0.0,0.0,0.0,0.0,0.0,0.0,0.0,0.0,0.0,0.0,0.0,0.0,0.0,0.0,0.0,0.0,0.0,0.0,0.0,0.0,0.0,0.0,0.0,0.0,0.0,0.0,0.0,0.0,0.0,0.0,0.0,0.0,0.0,0.0,0.0,0.0,0.0,0.0,0.0,0.0,0.0,0.0,0.0,0.0,0.0,0.0,0.0,0.0,0.0,0.0,0.0,0.0,0.0,0.0,0.0,0.0,0.0,0.0,0.0,0.0,0.0,0.0,0.0,0.0,0.0,0.0,0.8014,0.0,0.0,0.0,0.0,0.0,0.0,0.0,0.0,0.0,0.0,0.0,0.0,0.0,0.0,0.0,0.0,0.0,0.0,0.0,0.0,0.0,0.0,0.0,0.0,1.1253,1.1512,1.1489,1.1686,0.0,0.0,0.0,0.0,0.0,0.0,0.0,1.2188,1.2581,1.2757,1.2686,1.315,1.3444,1.3576,1.3293,1.3252,1.3387,0.0,0.0,0.0,0.0,0.0,0.0,0.0,0.0,0.0,0.0,0.0,0.0,0.0,0.0,0.0,0.0,0.0,0.0,0.0,0.0,0.0,0.0,0.0,0.0,0.0,0.0,0.0,0.0,0.0,0.0,0.0,0.0,0.0,0.0,0.0,0.0,0.0,0.0,0.0,0.0,0.0,0.0,0.0,0.0,0.0,0.0,0.0,0.0,0.0,0.0,0.0,0.0,0.0,0.0,0.0,0.0,0.0,0.0,0.0,0.0,0.0,0.0,0.0,0.0,0.0,0.0,0.0,0.0,0.0,0.0,0.0,0.7868,0.0,0.0,0.0,0.0,0.0,0.0,0.0,0.0,0.0,0.0,0.0,0.0,0.0,0.0,0.0,0.0,0.0,0.0,0.0,0.0,0.0,1.0769,1.1418,1.1565,1.1682,1.1888,1.1893,1.1867,1.1813,1.17,0.0,0.0,0.0,0.0,1.2664,1.3093,1.3258,1.3138,1.3627,1.3935,1.4055,1.407,1.401,1.389,1.3845,0.0,0.0,0.0,0.0,0.0,0.0,0.0,0.0,0.0,0.0,0.0,0.0,0.0,0.0,0.0,0.0,0.0,0.0,0.0,0.0,0.0,0.0,0.0,0.0,0.0,0.0,0.0,0.0,0.0,0.0,0.0,0.0,0.0,0.0,0.0,0.0,0.0,0.0,0.0,0.0,0.0,0.0,0.0,0.0,0.0,0.0,0.0,0.0,0.0,0.0,0.0,0.0,0.0,0.0,0.0,0.0,0.0,0.0,0.0,0.0,0.0,0.0,0.0,0.9093,0.9557,1.0424,1.0575,1.102,1.1542,0.9594,0.9144,0.9661,0.0,0.0,0.0,0.0,0.0,0.0,0.0,0.0,0.0,0.0,0.0,0.0,0.0,0.0,0.0,0.0,0.0,0.0,0.0,0.0,1.1382,1.1492,1.1804,1.1987,1.1906,1.1893,1.1993,1.2209,1.2201,0.0,0.0,0.0,1.3032,1.2937,1.3464,1.3715,1.37,1.4052,1.4237,1.4267,1.4372,1.4357,1.4222,1.404,1.3965,1.3935,0.0,0.0,0.0,0.0,0.0,0.0,0.0,0.0,0.0,0.0,0.0,0.0,0.0,0.0,0.0,0.0,0.0,0.0,0.0,0.0,0.0,0.0,0.0,0.0,0.0,0.0,0.0,0.0,0.0,0.0,0.0,0.0,0.0,0.0,0.0,0.0,0.0,0.0,0.0,0.0,0.0,0.9372,0.9495,0.0,0.0,0.0,0.0,0.0,0.0,0.0,0.0,0.0,0.0,0.0,0.0,0.0,1.0456,1.1362,1.1496,1.1531,1.1435,1.1435,1.1518,1.1654,1.1694,1.1754,1.1834,1.1523,0.0,1.0278,1.0118,0.0,0.0,0.0,0.0,0.0,0.0,0.0,0.0,0.0,0.0,0.0,0.0,0.0,0.0,0.0,0.0,0.0,0.0,0.0,0.0,0.0,1.2153,1.2178,1.2393,1.2369,1.2514,1.2887,1.2707,0.0,0.0,1.3261,1.34,1.357,1.3909,1.4194,1.4424,1.4561,1.4777,1.5088,1.5135,1.5135,1.5073,1.4995,1.4603,1.3995,1.3995,0.0,0.0,0.0,0.0,0.0,0.0,0.0,0.0,0.0,0.0,0.0,0.0,0.0,0.0,0.0,0.0,0.0,0.0,0.0,0.0,0.0,0.0,0.0,0.0,0.0,0.0,0.0,0.0,0.0,0.0,0.0,0.0,0.0,0.0,0.0,0.0,0.0,0.0,0.0,0.9411,0.9582,0.9933,1.0002,1.0029,0.0,0.0,0.0,0.0,0.0,0.0,0.0,0.0,0.0,1.1567,1.124,1.1407,1.2123,1.2123,1.228,1.2581,1.2581,1.2653,1.2798,1.2798,1.2798,1.2798,1.2798,1.2549,1.2082,1.1366,1.0545,0.9735,0.0,0.0,0.0,0.0,0.8959,0.8984,0.0,0.0,0.0,0.0,0.0,0.0,0.0,0.0,0.0,0.0,0.0,0.0,1.2563,1.2418,1.2413,1.2754,1.2846,1.3058,1.3488,1.3259,1.3299,1.3766,1.3683,1.3752,1.3995,1.4297,1.4617,1.4953,1.5171,1.5474,1.5845,1.5955,1.6026,1.5991,1.59,1.5278,1.4273,1.4273,1.4189,1.407,0.0,0.0,0.0,0.0,0.0,0.0,0.0,0.0,0.0,0.0,0.0,0.0,0.0,0.0,0.0,0.0,0.0,0.0,0.0,0.0,0.0,0.0,0.0,0.0,0.0,0.0,0.0,0.0,0.0,0.0,0.0,0.0,0.0,0.0,0.0,0.0,0.0,0.9844,0.9937,1.0314,1.0401,1.045,0.0,0.0,0.0,0.0,0.0,0.0,1.1597,1.1698,1.1865,1.2099,1.2171,1.234,1.2593,1.2605,1.2834,1.3304,1.3304,1.3437,1.369,1.369,1.369,1.369,1.369,1.369,1.3617,1.2519,1.1785,1.1316,1.117,1.0763,1.0287,1.0352,1.0321,1.0338,0.0,0.0,0.0,0.0,0.0,0.0,0.0,0.0,0.0,0.0,0.0,1.2575,1.2178,1.2503,1.2754,1.2715,1.3119,1.35,1.3857,1.386,1.3975,1.4243,1.4246,1.4157,1.3995,1.4567,1.4935,1.5096,1.5865,1.6233,1.6268,1.6653,1.6835,1.6835,1.6433,1.581,1.5043,1.5043,1.4748,1.4282,1.4282,0.0,0.0,0.0,0.0,0.0,0.0,0.0,0.0,0.0,0.0,0.0,0.0,0.0,0.0,0.0,0.0,0.0,0.0,0.0,0.0,0.0,0.0,0.0,0.0,0.0,0.0,0.0,0.0,0.0,0.0,0.0,0.0,0.0,0.0,0.0,0.0,0.0,0.0,1.1026,1.1044,0.0,0.0,0.0,0.0,1.1826,1.185,1.1862,1.1882,1.2115,1.2388,1.2662,1.2906,1.3171,1.3437,1.3437,1.3569,1.387,1.387,1.4002,1.4256,1.4256,1.4256,1.4256,1.4256,1.4256,1.422,1.3641,1.3277,1.3074,1.3051,1.287,1.2655,1.2904,1.3006,1.3041,0.0,0.0,0.0,0.0,0.0,0.0,1.1332,1.1828,1.2482,1.3261,1.3351,1.3374,1.3552,1.3345,1.3313,1.3635,1.3693,1.3885,1.4321,1.4222,1.4197,1.4297,1.4297,1.4439,1.4705,1.5166,1.5686,1.6266,1.6798,1.7202,1.7459,1.7605,1.7679,1.766,1.7532,1.7147,1.6597,1.5824,1.5242,1.4815,1.4815,1.4529,0.0,0.0,0.0,0.0,0.0,0.0,0.0,0.0,0.0,0.0,0.0,0.0,0.0,0.0,0.0,0.0,0.0,0.0,0.0,0.0,0.0,0.0,0.0,0.0,0.0,0.0,0.0,0.0,0.0,0.0,0.0,0.0,0.0,0.0,0.0,0.0,0.0,1.1309,1.1364,0.0,1.1737,1.1761,1.187,1.2135,1.2324,1.2485,1.2665,1.2918,1.3206,1.3471,1.3545,1.3845,1.4256,1.4268,1.4425,1.4678,1.4678,1.4727,1.4823,1.4823,1.4823,1.4823,1.4823,1.4823,1.4799,1.4618,1.428,1.3885,1.3717,1.3576,1.3495,1.342,1.3383,1.3406,0.0,0.0,0.0,0.0,0.0,0.0,1.1578,1.2221,1.2946,1.3759,1.3716,1.3671,1.3815,1.3726,1.3786,1.407,1.4119,1.4261,1.4549,1.4444,1.4357,1.4357,1.4499,1.4799,1.5294,1.5826,1.6431,1.711,1.7912,1.8304,1.832,1.9014,1.9183,1.892,1.9088,1.9006,1.8697,1.7731,1.6627,1.5496,1.5349,1.4979,1.4481,0.0,0.0,0.0,0.0,0.0,0.0,0.0,0.0,0.0,0.0,0.0,0.0,0.0,0.0,0.0,0.0,0.0,0.0,0.0,0.0,0.0,0.0,0.0,0.0,0.0,0.0,0.0,0.0,0.0,0.0,0.0,0.0,0.0,0.0,0.0,1.1318,1.1718,1.1774,1.1918,1.2268,1.2304,1.2412,1.2677,1.2964,1.3194,1.3352,1.3702,1.4002,1.4148,1.4268,1.4485,1.4822,1.4822,1.498,1.5234,1.5234,1.5282,1.5366,1.5366,1.5366,1.5366,1.5366,1.5366,1.5366,1.5366,1.5161,1.4799,1.4449,1.4316,1.4292,1.4123,1.4051,1.4051,0.0,0.0,0.0,0.0,0.0,1.2052,1.1682,1.2746,1.3409,1.2933,1.3314,1.3411,1.2836,1.3642,1.4153,1.3936,1.4345,1.4592,1.4517,1.4491,1.4509,1.4509,1.4928,1.5313,1.5714,1.6523,1.7146,1.7567,1.9104,1.9487,1.88,2.0791,2.126,2.0489,2.0927,2.1151,2.1148,2.0686,1.8919,1.6425,1.5949,1.5446,1.4974,0.0,0.0,0.0,0.0,0.0,0.0,0.0,0.0,0.0,0.0,0.0,0.0,0.0,0.0,0.0,0.0,0.0,0.0,0.0,0.0,0.0,0.0,0.0,0.0,0.0,0.0,0.0,0.0,0.0,0.0,0.0,0.0,0.0,1.1296,1.1611,1.2015,1.2268,1.2316,1.2533,1.3075,1.3123,1.3244,1.3509,1.3785,1.393,1.3942,1.4425,1.4714,1.4714,1.4992,1.5125,1.5125,1.5125,1.5258,1.5511,1.5511,1.5644,1.5885,1.5885,1.5885,1.5885,1.5885,1.5885,1.5885,1.5885,1.5885,1.5837,1.5318,1.5125,1.5113,1.5113,1.5113,1.5113,0.0,0.0,0.0,0.0,0.0,1.1867,1.2147,1.2986,1.3801,1.4398,1.4293,1.4229,1.4345,1.4915,1.506,1.447,1.4882,1.4989,1.4536,1.4491,1.4619,1.4928,1.559,1.6012,1.6121,1.7202,1.8099,1.8811,1.924,1.9655,2.0004,2.0002,1.9864,1.9648,1.9751,2.0159,2.0658,2.0239,1.9969,1.9712,1.8078,1.7182,1.6696,0.0,0.0,0.0,0.0,0.0,0.0,0.0,0.0,0.0,0.0,0.0,0.0,0.0,0.0,0.0,0.0,0.0,0.0,0.0,0.0,0.0,0.0,0.0,0.0,0.0,0.0,0.0,0.0,0.0,0.0,0.0,0.0,1.2316,1.1778,1.1994,1.228,1.2566,1.2762,1.3087,1.364,1.3688,1.3858,1.4352,1.4425,1.4557,1.4763,1.492,1.5089,1.5282,1.5354,1.5487,1.5668,1.568,1.5716,1.5777,1.5777,1.5825,1.5885,1.5885,1.5885,1.5885,1.5885,1.5885,1.5885,1.5885,1.5885,1.5861,1.5523,1.539,1.5366,1.5185,1.5113,1.5113,0.0,0.0,0.0,0.0,0.0,1.2112,1.259,1.3373,1.4151,1.4731,1.457,1.4457,1.4578,1.525,1.5373,1.4625,1.5085,1.5152,1.4536,1.4656,1.5139,1.6031,1.6229,1.6694,1.7541,1.8241,1.901,1.9804,2.0523,2.0721,2.0527,2.1087,2.1183,2.0856,2.1202,2.1623,2.2019,2.1802,2.1993,2.2313,2.0604,1.9141,1.7897,1.6954,1.6248,1.5689,1.5299,1.5033,1.4886,1.4805,0.0,0.0,0.0,0.0,0.0,0.0,0.0,0.0,0.0,0.0,0.0,0.0,0.0,0.0,0.0,0.0,0.0,0.0,0.0,0.0,0.0,0.0,0.0,0.0,1.2581,1.2856,1.2738,1.2858,1.3073,1.3338,1.3616,1.3931,1.4364,1.4413,1.4533,1.4834,1.498,1.5113,1.527,1.5378,1.5511,1.5656,1.5656,1.5741,1.5885,1.5885,1.5885,1.5885,1.5885,1.5885,1.5885,1.5885,1.5885,0.0,1.5885,1.5885,1.5885,1.5885,1.5885,0.0,0.0,0.0,0.0,0.0,1.5439,1.5439,0.0,0.0,0.0,0.0,0.0,1.2561,1.3013,1.3772,1.4326,1.4385,1.435,1.4231,1.4023,1.5083,1.5446,1.458,1.5123,1.5274,1.4725,1.4992,1.5864,1.7416,1.6937,1.7469,1.9255,1.9482,1.9951,2.072,2.2214,2.2239,2.0916,2.3073,2.3713,2.306,2.3768,2.4159,2.4233,2.4164,2.4196,2.4169,2.305,2.114,1.8923,1.8434,1.743,1.6265,1.5848,1.5456,1.5144,1.5058,0.0,0.0,0.0,0.0,0.0,0.0,0.0,0.0,0.0,0.0,0.0,0.0,0.0,0.0,0.0,0.0,0.0,0.0,0.0,0.0,0.0,0.0,0.0,0.0,1.3015,1.34,1.3882,1.4026,1.4147,1.4328,1.4594,1.4834,1.5125,1.5149,1.5161,1.5197,1.5415,1.5547,1.5547,0.0,0.0,0.0,0.0,1.5885,1.5885,1.5885,1.5885,1.5885,1.5885,1.5885,1.5885,1.5885,1.5885,1.5885,1.5885,1.5885,1.5885,1.5885,1.5885,1.5885,1.5885,1.5885,1.5885,1.5885,1.5885,1.5885,0.0,0.0,0.0,0.0,0.0,1.2679,1.3521,1.3703,1.3916,1.4338,1.4022,1.3818,1.3984,1.5438,1.591,1.461,1.5497,1.6058,1.5868,1.5695,1.6279,1.7829,1.8428,1.8895,1.9293,2.0614,2.1553,2.2044,2.2421,2.2761,2.3088,2.3356,2.339,2.3252,2.341,2.3822,2.4404,2.399,2.4153,2.471,2.41,2.259,2.0601,1.9485,1.8497,1.7642,1.708,1.683,1.667,1.607,1.5843,1.5774,1.5496,0.0,0.0,0.0,0.0,0.0,0.0,0.0,0.0,0.0,0.0,0.0,0.0,0.0,0.0,0.0,0.0,0.0,0.0,0.0,0.0,1.3015,1.3616,1.4099,1.4208,1.4775,1.5052,1.4678,1.4871,1.5137,1.5403,1.5427,1.5511,1.5728,1.5789,1.5813,1.5813,1.5861,0.0,1.5885,1.5885,1.5885,1.5885,1.5885,1.5885,1.5885,0.0,0.0,1.5885,1.5885,1.5885,1.5885,1.5885,1.5885,1.5885,1.5885,1.5885,1.5885,1.5885,1.5885,1.5885,1.5885,1.5885,1.5885,0.0,0.0,0.0,0.0,0.0,1.2471,1.3892,1.3827,1.3798,1.4326,1.394,1.383,1.4425,1.5549,1.6015,1.5448,1.5686,1.6311,1.7375,1.6687,1.7168,1.9262,1.948,1.9928,2.0739,2.1636,2.2296,2.2703,2.3366,2.3697,2.3719,2.4239,2.45,2.45,2.45,2.4716,2.5088,2.48,2.4782,2.487,2.4641,2.3324,2.142,2.0579,1.9479,1.8319,1.7825,1.7461,1.7135,1.6777,1.6404,1.6088,1.5982,1.5611,1.5095,0.0,0.0,0.0,0.0,0.0,0.0,0.0,0.0,0.0,0.0,0.0,0.0,0.0,0.0,1.2569,1.2846,0.0,1.3232,1.3652,1.4039,1.4437,1.4847,1.5246,1.5403,1.5137,1.5342,1.5547,1.568,1.5692,1.5753,1.5885,1.5885,1.5885,1.5885,1.5885,1.5885,1.5885,1.6018,1.6118,1.6118,1.6223,1.6296,1.6296,1.6296,1.6296,1.6296,1.6296,1.6296,1.6296,1.6296,1.6296,1.6296,1.6296,1.6296,1.6296,1.6296,1.6127,1.5885,1.5885,1.597,1.6118,0.0,0.0,0.0,0.0,0.0,1.2201,1.3966,1.3881,1.3727,1.4058,1.3789,1.3866,1.4602,1.5395,1.6055,1.6441,1.581,1.6339,1.8574,1.7513,1.7962,2.0578,2.036,2.0786,2.2161,2.2562,2.2918,2.3224,2.4344,2.4619,2.41,2.5292,2.588,2.5994,2.5994,2.5994,2.5972,2.5788,2.5444,2.5031,2.4824,2.357,2.1752,2.1437,2.0265,1.876,1.8357,1.7824,1.7297,1.7189,1.6741,1.6192,1.6157,1.6067,1.5917,1.5451,1.5293,0.0,0.0,0.0,0.0,0.0,0.0,0.0,0.0,0.0,1.2723,1.2771,1.2783,1.2868,1.3123,1.3256,1.3556,1.4195,1.4425,1.4763,1.5403,1.5535,1.565,1.5885,1.5897,1.5885,1.5885,1.5885,1.5885,1.5885,1.5885,1.5992,1.6205,1.6019,1.6016,1.6306,1.6299,1.6335,1.6384,1.6836,1.7046,1.7046,1.7046,1.7046,1.7058,1.6806,1.6706,1.6706,1.6706,1.6706,1.6706,1.6706,1.6706,1.6706,1.6706,1.6429,1.6054,1.6054,1.6187,1.6384,0.0,0.0,0.0,0.0,0.0,0.0,1.3476,1.3644,1.3445,1.303,1.3338,1.358,1.3496,1.4927,1.6212,1.7042,1.6054,1.6339,1.8574,1.7513,1.7962,2.0578,2.1163,2.166,2.2201,2.3388,2.4022,2.4073,2.4627,2.5108,2.5489,2.6132,2.6634,2.703,2.703,2.703,2.6981,2.6086,2.567,2.5536,2.4636,2.3283,2.1794,2.1752,2.0681,1.9182,1.8797,1.8261,1.7676,1.717,1.681,1.6503,1.6322,1.6507,1.6629,1.5872,0.0,1.5472,1.4671,1.4697,0.0,1.5122,1.4559,1.3938,0.0,0.0,1.2771,1.3003,1.3051,1.3135,1.34,1.3845,1.4195,1.428,1.4896,1.539,1.5487,1.5704,1.6235,1.7239,1.6511,1.5885,1.5885,1.5885,1.5885,1.5885,1.5885,1.6338,1.7371,1.6444,1.6476,1.7741,1.6804,1.6404,1.6658,1.7745,1.8299,1.8299,1.8299,1.8299,1.8271,1.7185,1.6706,1.6706,1.6706,1.6706,1.6706,1.6706,1.6706,1.6706,1.6706,1.667,1.661,1.661,1.6634,1.6658,0.0,0.0,0.0,0.0,0.0,0.0,0.0,1.3338,1.3042,1.2825,1.2994,1.3313,1.3777,1.5516,1.6653,1.668,1.6553,1.6812,1.7707,1.7853,1.8679,2.0407,2.1319,2.2133,2.2884,2.3453,2.3884,2.42,2.4682,2.5008,2.5237,2.5784,2.6152,2.6339,2.6339,2.6339,2.6293,2.588,2.5513,2.5154,2.4269,2.3069,2.1735,2.0995,2.012,1.9254,1.899,1.8564,0.0,1.7757,1.7319,1.6922,1.6848,1.6856,1.6877,1.6793,1.6746,0.0,1.6618,0.0,0.0,0.0,1.5103,1.4671,1.4126,1.3912,1.381,1.3838,1.4036,1.417,1.401,1.4147,1.4449,0.0,1.5833,1.6316,1.581,1.6937,1.7779,1.7608,1.7726,1.7595,1.6948,1.6895,1.6895,1.6895,1.6895,1.7172,1.7796,1.7421,1.7525,1.8277,1.8686,1.8946,1.9027,1.9696,1.9667,1.8973,1.8973,1.8617,1.7903,1.7412,1.7153,1.7153,1.7153,1.7153,1.7153,1.7153,1.7153,1.7153,1.7153,1.7153,1.7117,1.6815,1.6803,1.6923,0.0,0.0,0.0,0.0,0.0,0.0,0.0,0.0,1.2909,1.265,1.2837,1.3318,1.4116,1.5731,1.6699,1.656,1.6807,1.7127,1.7569,1.8158,1.8981,2.0099,2.1151,2.2117,2.2972,2.3132,2.3471,2.3994,2.432,2.4549,2.4728,2.5237,2.5559,2.5696,2.5696,2.5696,2.5696,2.5536,2.526,2.4814,2.3889,2.2746,2.1511,2.0478,1.9678,1.9126,1.891,1.861,1.83,1.8087,1.7683,1.7284,1.7284,1.7256,1.7259,1.7552,1.764,1.7689,1.7923,0.0,0.0,1.6283,1.6014,1.5672,1.4712,1.4618,1.4621,1.4312,1.4718,1.4956,1.4508,1.4946,1.5404,1.5494,1.6536,1.7094,1.6472,1.7753,1.8681,1.8539,1.8916,1.902,1.8565,1.8225,1.8042,1.8042,1.815,1.842,1.8937,1.8833,1.8986,1.9554,2.035,2.079,2.0807,2.1353,2.1202,2.0328,2.0328,1.9695,1.849,1.7801,1.7508,1.7491,1.7593,1.7617,1.7629,1.7702,1.7708,1.7708,1.7708,1.7708,1.766,1.7274,1.7165,1.7201,0.0,0.0,0.0,0.0,0.0,0.0,0.0,0.0,0.0,1.224,0.0,1.3732,1.4156,1.5077,1.6056,1.7064,1.6645,1.7027,1.8723,1.8324,1.8526,1.9656,2.068,2.1461,2.1917,2.2455,2.296,2.3413,2.3453,2.3723,2.4223,2.4687,2.5191,2.5696,2.5696,2.5696,2.567,2.5146,2.4916,2.4791,2.3516,2.2293,2.1155,2.0678,1.9735,1.8685,1.8492,1.8281,1.8069,1.7873,1.7661,1.7488,1.7488,1.7706,0.0,1.7974,1.7974,1.7991,0.0,0.0,1.7951,1.7931,1.7586,1.699,1.5954,1.5355,1.4778,1.4053,1.4705,1.5235,1.4777,1.6596,1.7579,1.5775,1.6676,1.7569,1.7556,1.7608,1.8434,2.0544,1.9849,1.9617,0.0,1.9797,1.915,1.915,1.9506,2.0227,2.1312,2.0719,2.0927,2.2237,2.1259,2.0822,2.1087,2.231,2.2918,2.289,2.289,2.2225,2.0902,1.8564,1.7508,1.752,1.7774,1.7895,1.7919,1.8155,1.8263,1.8263,1.8263,1.8263,1.8263,1.8251,1.7913,1.7496,0.0,0.0,0.0,0.0,0.0,0.0,0.0,0.0,0.0,0.0,0.0,0.0,0.0,0.0,0.0,0.0,1.6326,1.6814,1.6597,1.7852,1.8728,1.903,2.0098,2.091,2.1415,2.1927,2.2415,2.2937,2.3247,2.3659,2.42,2.4361,2.4545,2.4705,2.4705,2.4705,2.4682,2.4118,2.3889,2.3794,2.2523,2.1468,2.0584,1.9906,1.9241,1.8667,0.0,1.844,1.8437,0.0,0.0,0.0,1.7823,0.0,0.0,1.7991,1.7991,1.7991,1.7991,0.0,1.8247,1.7668,1.7572,1.7551,1.719,1.7206,1.7169,1.6821,1.7241,1.7317,1.6175,1.662,1.7099,1.6912,1.7895,1.867,1.867,1.9952,2.0918,2.0903,2.1225,0.0,0.0,0.0,0.0,2.0705,2.084,2.1263,2.2069,2.1939,2.2131,2.2784,2.3206,2.345,2.3552,2.3988,2.3776,2.2974,2.2398,2.2049,2.1877,2.1065,2.068,2.068,2.0777,2.0324,1.9495,1.9598,1.9102,1.83,1.83,1.83,1.83,1.83,1.8179,1.8022,0.0,0.0,0.0,0.0,0.0,0.0,0.0,0.0,0.0,0.0,0.0,0.0,0.0,0.0,0.0,0.0,0.0,1.6411,1.6069,1.7476,1.834,1.848,1.9364,2.0128,2.0649,2.1123,2.1629,2.215,2.2622,2.304,2.3379,2.358,2.3649,2.3649,2.3649,2.3649,2.3626,2.3287,2.301,2.265,2.1546,2.0656,1.9945,1.9268,1.8882,0.0,1.8636,1.8657,1.8632,0.0,0.0,0.0,0.0,0.0,1.7991,1.7991,1.7991,1.8025,1.8182,1.8408,1.8489,1.8077,1.8223,1.8376,1.801,1.8252,1.8417,1.7963,1.8362,1.8465,1.7383,1.7793,1.8282,1.818,1.9098,1.9823,1.9823,2.1072,2.1861,2.1556,2.2156,0.0,0.0,0.0,0.0,2.2045,2.2333,2.2634,2.3021,2.3239,2.3463,2.3636,2.4395,2.4853,2.5018,2.5018,2.4676,2.4028,2.3012,2.2672,2.2929,2.2513,2.2304,2.2319,2.2392,2.1969,2.1136,2.0757,2.0059,1.9249,1.8752,1.8608,1.8608,1.8608,1.8608,1.8553,0.0,0.0,0.0,0.0,0.0,0.0,0.0,0.0,0.0,0.0,0.0,0.0,0.0,0.0,0.0,0.0,0.0,0.0,1.7024,1.7163,1.7448,1.803,1.8593,1.914,1.9608,2.0113,2.0595,2.1109,2.1629,2.1888,2.1894,2.2455,2.2702,2.2702,2.2702,2.2702,2.2702,2.2622,2.2189,2.1477,2.0663,1.99,1.9221,1.8844,1.8706,1.8722,1.8928,1.8891,0.0,0.0,0.0,0.0,0.0,0.0,0.0,1.7991,1.8008,1.8094,1.8494,1.8634,1.8754,1.9132,1.9487,1.9473,1.8543,1.8603,1.8611,1.7646,1.8203,1.8769,0.0,0.0,2.0867,1.9512,2.0184,2.0903,2.0995,2.0979,2.1378,0.0,0.0,0.0,0.0,0.0,0.0,2.3143,0.0,2.422,2.4237,2.4597,2.4802,2.4819,2.4819,2.5018,2.5423,2.5423,2.5583,2.5902,2.476,2.4231,2.4218,2.3064,2.2543,2.2557,2.2794,2.2897,2.2744,2.1652,2.1177,2.0987,1.9603,1.9104,1.9104,1.9104,1.9104,1.9032,0.0,0.0,0.0,0.0,0.0,0.0,0.0,0.0,0.0,0.0,0.0,0.0,0.0,0.0,0.0,0.0,0.0,0.0,1.5839,1.6687,1.7282,1.7421,1.836,1.8782,1.8501,1.9424,1.9945,2.0082,2.0956,2.156,2.1894,2.2455,2.2702,2.2702,2.2702,2.2702,2.2645,2.1745,2.1268,2.0987,1.9826,1.9121,1.8792,1.9003,1.8901,1.8741,1.9105,0.0,0.0,0.0,0.0,0.0,0.0,1.7991,1.7991,0.0,0.0,1.8459,1.8562,1.9007,1.9448,1.9551,1.9859,2.0087,1.9822,1.9844,1.9843,1.9592,1.9752,1.9807,0.0,0.0,0.0,2.0435,2.0698,0.0,2.2055,2.2182,0.0,0.0,0.0,2.3014,2.3074,2.3587,0.0,0.0,2.41,2.434,2.4631,2.4733,2.4949,2.5252,2.5252,2.5412,2.576,2.576,2.5977,2.6354,2.6042,2.6045,2.6315,2.6014,2.5893,2.5863,2.5962,2.5402,2.4393,2.3109,2.2013,2.0987,1.9603,1.9104,1.9104,1.9104,1.9104,1.9092,0.0,0.0,0.0,0.0,0.0,0.0,0.0,0.0,0.0,0.0,0.0,0.0,0.0,0.0,0.0,0.0,0.0,0.0,0.0,1.6026,1.6652,1.7185,1.7812,1.8137,1.8098,1.8905,1.9333,1.9333,2.0151,2.0795,2.1245,2.156,2.1642,2.1564,2.1903,2.1681,2.1056,2.0703,2.019,0.0,0.0,1.8377,1.8158,1.8558,1.8658,1.8625,1.9026,0.0,0.0,0.0,0.0,1.8152,1.8031,1.7991,1.8025,1.8216,0.0,1.8686,1.9007,1.938,1.9734,1.9927,2.0138,2.0292,2.0292,2.0292,2.0343,2.0537,2.0549,0.0,0.0,0.0,0.0,0.0,0.0,0.0,2.2527,2.2603,2.2654,0.0,2.298,0.0,2.3553,2.3964,2.4272,0.0,2.446,2.4562,2.4785,2.4984,2.5183,2.5389,2.5532,2.5806,2.6153,2.6354,2.6542,2.6747,2.6747,2.6897,2.7103,2.7103,2.7103,2.7103,0.0,2.6662,2.5884,2.4548,2.3543,2.2733,2.1384,2.0861,2.0766,2.0195,1.9985,1.989,0.0,0.0,0.0,0.0,0.0,0.0,0.0,0.0,0.0,0.0,1.1556,0.0,0.0,0.0,0.0,0.0,0.0,0.0,0.0,0.0,1.5897,1.7024,1.7065,1.7393,1.8084,1.8468,1.8711,1.8804,1.9333,1.9792,2.019,2.0259,2.0247,2.0154,2.0721,2.0279,1.9177,1.9639,1.9127,1.7986,1.7884,1.7705,1.7496,0.0,0.0,0.0,0.0,0.0,0.0,0.0,1.8152,1.8293,1.8072,1.7991,1.808,1.8477,1.8652,1.8819,1.9495,1.9734,1.9876,2.0206,2.0292,2.0292,2.0292,2.0326,2.0486,2.0829,0.0,2.1189,2.1867,0.0,2.2149,2.2534,0.0,2.2603,2.2603,2.2603,2.2714,2.3066,2.3151,2.3433,2.4135,2.4254,2.4425,2.4768,2.4836,2.487,2.487,2.5217,2.544,2.5543,2.5891,2.6234,2.6589,2.6932,2.7103,2.7103,2.7103,2.7103,2.7103,2.7103,2.7103,2.7103,0.0,0.0,2.7012,2.567,2.5102,2.4979,2.3636,2.2983,2.2702,2.151,2.0987,2.0671,0.0,0.0,0.0,0.0,0.0,0.0,0.0,0.0,0.0,0.0,1.1418,1.1381,0.0,0.0,0.0,0.0,0.0,0.0,0.0,0.0,0.0,1.6439,1.6468,1.6975,1.8084,1.769,1.7734,0.0,0.0,1.908,1.9172,1.9608,2.0007,2.0326,1.9843,1.9725,1.9835,1.879,1.8223,1.7952,1.7339,1.7164,1.7298,1.7695,0.0,0.0,0.0,0.0,0.0,0.0,1.8031,1.8052,1.8011,1.7991,1.808,1.8477,1.884,1.9179,1.9602,1.9944,2.0206,2.0275,2.0292,2.0292,2.0292,2.0572,0.0,0.0,0.0,2.1456,2.1919,2.2004,0.0,2.2534,0.0,0.0,0.0,0.0,2.2714,0.0,0.0,0.0,0.0,0.0,0.0,0.0,0.0,2.5303,2.5303,2.5354,2.568,2.6297,2.6709,2.6932,2.7,2.7069,2.7103,2.7103,2.7103,2.7103,2.7103,2.7103,2.7103,2.7103,2.7103,0.0,2.7012,2.567,2.5102,2.4979,2.3636,2.2421,2.1416,2.1209,2.0386,1.9449,0.0,0.0,0.0,0.0,0.0,0.0,0.0,1.1494,1.1469,1.1406,1.133,1.1318,1.1381,1.163,1.1956,0.0,0.0,0.0,0.0,0.0,0.0,0.0,0.0,0.0,0.0,0.0,0.0,0.0,0.0,0.0,0.0,0.0,0.0,0.0,0.0,0.0,1.8121,1.8023,1.7782,1.7407,0.0,0.0,0.0,0.0,0.0,0.0,0.0,0.0,0.0,0.0,1.7991,1.7991,1.7991,1.7991,1.8111,1.8733,1.9046,1.932,1.9841,2.0155,2.0292,2.0292,2.0292,2.0292,2.0292,0.0,0.0,0.0,0.0,2.1833,2.2234,0.0,0.0,0.0,0.0,0.0,0.0,0.0,0.0,0.0,0.0,0.0,0.0,0.0,0.0,0.0,0.0,2.5406,2.5406,2.5766,2.6246,2.6782,2.7,2.7103,2.7103,2.7103,2.7103,2.7103,2.7103,2.7103,2.7103,2.7103,2.7103,2.7103,2.7103,0.0,2.7043,2.6419,2.6128,2.6006,2.4656,2.3834,2.3325,2.2662,2.2075,2.1582,0.0,0.0,0.0,0.0,0.0,0.0,1.1202,1.1381,1.1418,1.1305,1.1293,1.1293,1.1293,1.1381,1.1617,0.0,0.0,0.0,0.0,0.0,0.0,0.0,0.0,0.0,0.0,0.0,0.0,0.0,0.0,0.0,0.0,0.0,0.0,0.0,0.0,0.0,0.0,0.0,1.7366,0.0,0.0,0.0,0.0,0.0,0.0,0.0,0.0,0.0,0.0,0.0,1.7991,1.7991,1.7991,1.8059,1.8268,1.8994,1.9252,1.9436,2.0103,2.0292,2.0292,2.0292,2.0292,2.0309,2.0394,2.0743,0.0,0.0,2.185,2.2234,2.2534,0.0,0.0,0.0,0.0,0.0,0.0,0.0,0.0,0.0,0.0,0.0,0.0,0.0,0.0,0.0,0.0,0.0,2.5629,2.628,2.6807,2.7177,2.7194,2.7224,2.7285,2.7224,2.7194,2.7194,2.7133,2.7103,2.7103,2.7103,2.7103,2.7103,2.7103,0.0,0.0,2.7103,2.7154,2.7101,2.606,2.5638,2.5534,2.4521,2.4112,2.3912,0.0,0.0,0.0,0.0,0.0,0.0,1.1173,1.1305,1.1305,1.1293,1.1293,1.1293,1.1293,1.1305,1.146,0.0,0.0,0.0,0.0,0.0,0.0,0.0,0.0,0.0,0.0,0.0,0.0,0.0,0.0,0.0,0.0,0.0,0.0,0.0,0.0,0.0,0.0,0.0,0.0,0.0,0.0,0.0,0.0,0.0,0.0,0.0,0.0,0.0,0.0,0.0,0.0,1.7991,1.7991,1.8251,1.8634,1.9063,0.0,0.0,2.0189,2.0292,2.0292,2.0292,2.0292,2.04,2.076,0.0,0.0,2.1867,2.2269,2.2551,2.2585,2.2603,0.0,0.0,0.0,2.2603,0.0,0.0,0.0,0.0,0.0,0.0,0.0,0.0,0.0,0.0,0.0,0.0,2.6417,2.6829,2.7172,2.7461,2.7461,2.7612,2.79,2.7612,2.7461,2.7461,2.7207,2.7103,2.7103,2.7103,2.7103,2.7103,2.7103,0.0,0.0,2.7103,2.7292,2.7552,2.7429,2.6854,2.612,2.5993,2.5207,2.4201,0.0,0.0,0.0,0.0,0.0,0.0,1.1173,1.1293,1.1293,1.1293,1.1293,1.1293,1.1293,1.1293,1.1349,1.149,0.0,0.0,0.0,0.0,0.0,0.0,0.0,0.0,0.0,0.0,0.0,0.0,0.0,0.0,0.0,0.0,0.0,0.0,0.0,0.0,0.0,0.0,0.0,0.0,0.0,0.0,0.0,0.0,0.0,0.0,0.0,0.0,0.0,0.0,0.0,0.0,1.8268,1.8631,0.0,0.0,1.9453,1.9785,2.0189,2.0292,2.0292,2.0292,2.0486,2.0709,2.0863,0.0,2.1799,2.197,2.232,2.2603,2.2603,2.2603,2.2603,0.0,0.0,0.0,0.0,0.0,0.0,0.0,0.0,0.0,0.0,0.0,0.0,0.0,0.0,0.0,2.7402,2.7361,2.7478,2.7792,2.7792,2.7762,2.7702,2.7581,2.7401,2.7267,2.7164,2.7103,2.7103,2.7103,2.7103,2.7103,2.7103,0.0,0.0,2.7313,2.7484,2.7528,2.7,2.6631,2.6454,2.6535,2.6337,2.5901,0.0,0.0,0.0,0.0,0.0,1.0371,1.1173,1.1293,1.1293,1.1293,1.1293,1.1293,1.1293,1.1293,1.1293,1.1293,1.1744,0.0,0.0,0.0,0.0,0.0,0.0,0.0,0.0,0.0,1.4931,1.4491,0.0,0.0,0.0,0.0,0.0,0.0,0.0,0.0,0.0,0.0,0.0,0.0,0.0,0.0,0.0,0.0,0.0,0.0,0.0,0.0,0.0,0.0,0.0,0.0,0.0,0.0,0.0,0.0,1.9607,1.9944,2.0223,2.0292,2.0292,2.0292,2.0606,2.0932,0.0,0.0,2.2021,2.2166,2.2389,2.2603,2.2603,2.2603,2.2603,2.2603,2.2603,2.2603,2.2603,0.0,0.0,0.0,0.0,0.0,0.0,0.0,0.0,0.0,0.0,0.0,0.0,2.784,2.7762,2.799,2.799,2.793,2.7792,2.7612,2.7491,2.7496,2.7315,2.7207,2.7207,2.7315,2.7315,2.7207,0.0,0.0,0.0,2.7532,2.7741,2.7886,2.7238,2.7133,2.7409,2.7491,2.7654,2.7667,0.0,0.0,0.0,0.0,0.0,0.0,1.1173,1.1293,1.1293,1.1293,1.1293,1.1293,1.1293,1.1293,1.1293,1.1293,1.1614,0.0,0.0,0.0,0.0,0.0,0.0,0.0,0.0,0.0,1.4506,1.4491,1.4491,1.4491,0.0,0.0,0.0,0.0,0.0,0.0,0.0,0.0,0.0,0.0,0.0,0.0,1.6334,0.0,0.0,0.0,0.0,0.0,0.0,0.0,0.0,0.0,0.0,1.8874,1.9269,0.0,1.9978,2.0292,2.0292,2.0292,2.0292,2.0292,2.0606,2.1,0.0,0.0,2.2107,2.2517,2.2585,2.2603,2.2603,2.2603,2.2603,2.2603,2.2603,2.2603,2.2603,0.0,0.0,0.0,0.0,0.0,0.0,0.0,0.0,0.0,0.0,0.0,0.0,2.817,2.799,2.799,2.799,2.814,2.8487,2.784,2.784,2.8487,2.781,2.7491,2.7521,2.784,2.781,0.0,0.0,0.0,0.0,2.7727,2.8066,2.88,2.8768,2.8991,2.9266,2.9266,2.9266,2.9283,0.0,0.0,0.0,0.0,0.0,0.0,1.1173,1.1293,1.1293,1.1293,1.1293,1.1293,1.1293,1.1293,1.1293,1.1293,1.14,0.0,0.0,0.0,0.0,0.0,0.0,0.0,0.0,1.4446,1.4491,1.4491,1.4491,1.4491,1.4491,1.4491,0.0,0.0,0.0,0.0,0.0,0.0,0.0,0.0,0.0,1.6665,1.6334,0.0,0.0,0.0,0.0,0.0,0.0,0.0,0.0,0.0,0.0,0.0,0.0,1.9932,2.0206,2.0292,2.0292,2.0292,2.0383,2.064,2.0977,2.1336,2.173,2.2132,2.2465,2.2568,2.2603,2.2603,2.2603,2.2603,2.2603,2.2603,2.2603,2.2603,0.0,0.0,0.0,0.0,0.0,0.0,0.0,0.0,0.0,0.0,0.0,0.0,0.0,2.8737,2.8677,2.8677,2.8457,2.8397,2.8487,2.8307,2.817,2.814,2.796,2.7822,2.787,2.796,0.0,0.0,0.0,0.0,0.0,2.8922,2.9101,2.9139,2.9381,2.9392,2.9316,2.9316,2.9316,2.9168,0.0,0.0,0.0,0.0,0.0,0.0,1.1173,1.1293,1.1293,1.1293,1.1293,1.1293,1.1293,1.1293,1.1293,1.1293,1.1293,0.0,0.0,0.0,0.0,0.0,0.0,0.0,1.4297,1.4372,1.4446,1.4491,1.4491,1.4461,1.4417,1.4476,1.4461,1.4417,0.0,0.0,0.0,0.0,0.0,0.0,1.6408,1.6382,1.6246,0.0,0.0,0.0,0.0,0.0,0.0,0.0,0.0,0.0,0.0,0.0,0.0,0.0,2.0292,2.0292,2.0292,2.0292,2.04,2.0812,2.1148,0.0,2.1901,2.2303,2.2603,2.2603,2.2603,2.2603,2.2603,2.2603,2.2603,2.2603,2.2603,0.0,0.0,0.0,0.0,0.0,0.0,0.0,0.0,0.0,0.0,0.0,0.0,0.0,0.0,2.8874,2.8874,2.9005,2.8666,2.8487,2.8487,2.8367,2.8319,2.8379,2.8229,2.817,2.817,2.8319,0.0,0.0,0.0,0.0,0.0,2.9468,2.948,2.9314,2.954,2.9463,2.9316,2.9316,2.9316,2.9168,0.0,0.0,0.0,0.0,0.0,0.0,0.0,1.1293,1.1293,1.1293,1.1293,1.1293,1.1293,1.1293,1.1293,1.1293,1.1293,0.0,0.0,0.0,0.0,0.0,0.0,0.0,1.4252,1.4282,1.4357,1.4476,1.4491,1.4431,1.4312,1.4431,1.4417,1.4312,1.4431,1.4491,0.0,0.0,0.0,0.0,1.5867,1.5945,0.0,0.0,0.0,0.0,0.0,0.0,0.0,0.0,0.0,0.0,0.0,0.0,0.0,0.0,0.0,0.0,0.0,2.0292,2.0394,2.0829,2.1165,2.1525,2.1936,2.232,0.0,2.2603,2.2603,2.2603,2.2603,2.2603,2.2603,2.2603,2.2603,0.0,0.0,0.0,0.0,0.0,0.0,0.0,0.0,0.0,0.0,0.0,0.0,0.0,0.0,2.8696,2.8696,2.8993,2.8696,2.8546,2.8546,2.8229,2.8379,2.9005,2.8696,2.8546,2.8546,2.8893,0.0,0.0,0.0,0.0,0.0,2.9523,2.9379,2.9349,2.9349,2.9316,2.9316,2.9316,2.9316,2.9316,0.0,0.0,0.0,0.0,0.0,0.0,0.0,0.0,0.0,0.0,1.1293,1.1293,1.1293,1.1293,1.1293,0.0,0.0,0.0,0.0,0.0,0.0,0.0,0.0,0.0,1.392,1.4178,1.4312,1.4342,1.4446,1.4476,1.4446,1.4372,1.4372,1.4446,1.4372,1.4402,0.0,0.0,0.0,0.0,1.6182,1.6297,0.0,0.0,0.0,0.0,1.6899,1.7359,0.0,0.0,0.0,0.0,0.0,0.0,0.0,0.0,2.0292,2.0292,2.0292,0.0,2.0446,2.1114,2.1353,2.1593,0.0,2.2534,2.2603,2.2603,0.0,2.2603,2.2603,2.2603,2.2603,2.2603,2.2603,0.0,0.0,0.0,0.0,0.0,0.0,0.0,0.0,0.0,0.0,0.0,0.0,0.0,0.0,2.8916,2.8934,2.9005,2.8934,2.8874,2.8874,2.8797,2.8826,2.9005,2.8934,2.8874,2.8904,2.9275,0.0,0.0,0.0,0.0,3.0193,3.0416,3.0207,2.9691,2.9691,2.9528,2.9316,2.9316,2.9316,2.9316,0.0,0.0,0.0,0.0,0.0,0.0,0.0,0.0,0.0,0.0,1.1293,1.1293,1.1293,1.1293,1.1293,0.0,0.0,0.0,0.0,0.0,0.0,0.0,0.0,1.3709,1.3799,1.4025,1.4207,1.4297,1.4431,1.4417,1.4282,1.4282,1.4282,1.4282,1.4357,1.4431,0.0,0.0,0.0,1.5315,1.587,0.0,0.0,0.0,0.0,0.0,1.6899,1.7359,0.0,1.7991,1.7991,1.8128,0.0,0.0,0.0,0.0,2.0292,2.0292,2.0292,2.0429,2.0726,2.1268,2.1542,2.1833,2.2465,0.0,0.0,0.0,0.0,2.2603,2.2603,0.0,0.0,0.0,0.0,0.0,0.0,0.0,0.0,0.0,0.0,0.0,0.0,0.0,0.0,0.0,0.0,0.0,0.0,2.9005,2.9005,2.9005,2.9005,2.9005,2.9005,2.9005,2.9005,2.9005,2.9005,2.9005,2.8993,2.9427,2.9702,0.0,0.0,0.0,3.0573,3.0628,3.0328,2.9772,2.9626,2.9463,2.9316,2.9316,2.9316,2.9316,0.0,0.0,0.0,0.0,0.0,0.0,0.0,0.0,0.0,0.0,0.0,0.0,0.0,0.0,0.0,0.0,0.0,0.0,0.0,0.0,0.0,0.0,1.3117,1.3586,1.3754,1.392,1.407,1.4252,1.4402,1.4327,1.4055,1.4192,1.4192,1.4055,1.4357,1.4491,0.0,0.0,0.0,1.5134,1.5475,0.0,0.0,0.0,0.0,0.0,0.0,0.0,0.0,1.7991,1.7991,1.8128,1.896,0.0,0.0,0.0,0.0,0.0,2.0292,2.0617,2.1028,2.1336,2.1696,2.2114,2.2517,0.0,0.0,0.0,0.0,0.0,0.0,0.0,0.0,0.0,0.0,0.0,0.0,0.0,0.0,0.0,0.0,0.0,0.0,0.0,0.0,0.0,0.0,0.0,0.0,2.9005,2.9005,2.9005,2.9005,2.9005,2.9005,2.9005,2.9005,2.9005,2.9005,2.9042,2.9115,2.9519,2.9892,0.0,0.0,0.0,3.0879,3.0588,3.0263,2.9855,2.9495,2.9414,2.9447,2.9349,2.9349,2.9382,0.0,0.0,0.0,0.0,0.0,0.0,0.0,0.0,0.0,0.0,0.0,0.0,0.0,0.0,0.0,0.0,0.0,0.0,0.0,0.0,0.0,1.2412,1.3117,1.3511,1.3556,1.3845,1.4025,1.4055,1.4237,1.4297,1.4252,1.41,1.4115,1.4267,1.4431,1.4491,1.4546,1.5279,0.0,1.5168,1.5892,0.0,0.0,0.0,0.0,0.0,0.0,0.0,0.0,1.7991,1.7991,1.8128,1.896,0.0,0.0,0.0,0.0,0.0,2.0292,2.0805,2.1336,2.1388,2.1696,2.2114,2.2517,0.0,0.0,0.0,0.0,0.0,0.0,0.0,0.0,0.0,0.0,0.0,0.0,0.0,0.0,0.0,0.0,0.0,0.0,0.0,0.0,0.0,0.0,0.0,0.0,2.9005,2.9005,2.9005,2.9005,2.9005,2.9005,2.9005,2.9005,2.9005,2.9005,2.9188,2.9519,2.991,3.0314,0.0,0.0,3.1162,3.0912,3.0847,3.062,3.0263,2.9887,2.992,3.0183,2.9545,2.9463,2.9691,0.0,0.0,0.0,0.0,0.0,0.0,0.0,0.0,0.0,0.0,0.0,0.0,0.0,0.0,0.0,0.0,0.0,0.0,0.0,0.0,1.2497,1.272,1.322,1.3496,1.3496,1.383,1.3965,1.389,1.4178,1.4207,1.4043,1.401,1.41,1.4297,1.4431,1.4619,1.4857,1.5314,1.5483,1.5467,0.0,0.0,0.0,0.0,0.0,0.0,0.0,0.0,0.0,0.0,1.7991,1.8128,1.896,0.0,0.0,0.0,0.0,0.0,2.0292,2.084,2.1405,2.1405,2.1874,2.2354,2.2551,0.0,0.0,0.0,0.0,0.0,0.0,0.0,0.0,0.0,0.0,0.0,0.0,0.0,0.0,0.0,0.0,0.0,0.0,0.0,0.0,0.0,0.0,0.0,0.0,0.0,2.9005,2.9005,2.9005,2.9005,2.9005,2.9005,2.9005,2.9005,2.9005,2.9225,2.9611,3.0002,3.0424,3.0809,0.0,3.1313,3.117,3.0976,3.0815,3.062,3.0263,3.023,3.0378,3.0003,3.0003,3.01,0.0,0.0,0.0,0.0,0.0,0.0,0.0,0.0,0.0,0.0,0.0,0.0,0.0,0.0,0.0,0.0,0.0,0.0,0.0,1.2192,1.2583,1.2977,1.3322,1.3496,1.3496,1.3815,1.3905,1.3799,1.4073,1.4073,1.3845,1.395,1.4115,1.4357,1.4538,1.4787,1.5052,1.54,1.5581,1.5682,0.0,0.0,0.0,0.0,0.0,0.0,0.0,0.0,0.0,0.0,0.0,0.0,0.0,0.0,0.0,2.0069,2.0292,2.0292,2.0292,2.084,2.1405,2.1405,2.2012,2.2603,2.2603,0.0,0.0,0.0,0.0,0.0,0.0,0.0,0.0,0.0,0.0,0.0,0.0,0.0,0.0,0.0,0.0,0.0,0.0,0.0,0.0,0.0,0.0,0.0,0.0,0.0,2.9005,2.9005,2.9005,2.9005,2.9005,2.9005,2.9005,2.9005,2.9005,2.9262,2.9758,3.0057,3.0461,3.0937,3.1281,3.141,3.1377,3.112,3.1041,3.0976,3.0653,3.0476,3.0411,3.0508,3.0476,3.0411,0.0,0.0,0.0,0.0,0.0,0.0,0.0,0.0,0.0,0.0,0.0,0.0,0.0,0.0,0.0,0.0,0.0,0.0,0.0,1.2192,1.2583,1.2977,1.3322,1.3496,1.3496,1.3709,1.3815,1.3799,1.3815,1.389,1.3995,1.3995,1.416,1.4494,1.4891,1.4963,1.4865,1.5623,1.5781,1.5547,1.5948,0.0,0.0,0.0,0.0,0.0,0.0,0.0,0.0,0.0,0.0,0.0,0.0,0.0,1.9337,2.0069,2.0292,2.0292,2.0292,2.084,2.1405,2.1405,2.2012,0.0,2.2603,2.2603,0.0,0.0,0.0,0.0,0.0,0.0,0.0,0.0,0.0,0.0,0.0,0.0,0.0,0.0,0.0,0.0,0.0,0.0,0.0,0.0,0.0,0.0,0.0,0.0,0.0,2.9005,2.9005,2.9005,2.9005,2.9005,2.9005,2.9005,2.9005,2.9397,3.0167,3.0185,3.0626,3.1373,3.1391,3.141,3.141,3.1377,3.1345,3.1313,3.1009,3.0653,3.0443,3.075,3.0653,3.0411,0.0,0.0,0.0,0.0,0.0,0.0,0.0,0.0,0.0,0.0,0.0,1.1293,1.1293,0.0,0.0,0.0,0.0,0.0,0.0,1.2549,1.2943,1.3303,1.3442,1.3496,1.3496,1.3709,1.3739,1.3601,1.3601,1.3754,1.3995,1.3995,1.4175,1.4509,1.4787,1.5002,1.5193,1.5535,1.5805,1.5982,1.5948,1.5947,0.0,0.0,0.0,0.0,0.0,0.0,0.0,0.0,1.8165,1.8477,1.9029,1.9333,1.9602,2.0138,2.0292,2.0343,2.0623,2.1028,2.1473,2.1713,0.0,0.0,0.0,0.0,0.0,0.0,0.0,0.0,0.0,0.0,0.0,0.0,0.0,0.0,0.0,0.0,0.0,0.0,0.0,0.0,0.0,0.0,0.0,0.0,0.0,0.0,0.0,0.0,0.0,2.9005,2.9005,2.9005,2.9005,2.9005,2.9005,2.9005,2.9005,2.9415,3.0204,3.0204,3.0626,3.141,3.141,3.141,3.141,3.141,3.141,3.1377,3.1249,3.112,3.1041,3.1152,3.112,3.1009,0.0,0.0,0.0,0.0,0.0,0.0,0.0,0.0,1.1293,0.0,0.0,0.0,0.0,1.1293,0.0,0.0,0.0,0.0,1.2363,1.2772,1.3149,1.3494,1.3496,1.3496,1.3496,1.3616,1.3631,1.3496,1.3556,1.3722,1.3995,1.4055,1.4276,1.4617,1.4938,1.5241,1.5525,1.5749,1.5999,1.6228,1.5982,1.6016,0.0,0.0,0.0,0.0,0.0,0.0,0.0,0.0,1.8268,1.8669,1.908,1.9436,1.9768,2.0189,2.0292,2.0377,2.0794,2.1131,2.1508,0.0,0.0,0.0,0.0,0.0,0.0,0.0,0.0,0.0,0.0,0.0,0.0,0.0,0.0,0.0,0.0,0.0,0.0,0.0,0.0,0.0,0.0,0.0,0.0,0.0,0.0,0.0,0.0,0.0,0.0,0.0,2.9005,2.9005,2.9005,2.9005,2.9005,2.9005,2.9005,2.9415,3.0204,3.0204,3.0626,3.141,3.141,3.141,3.141,3.141,3.141,3.141,3.141,3.141,3.141,3.141,3.1313,3.1216,0.0,0.0,0.0,0.0,0.0,0.0,0.0,0.0,1.1293,1.1293,1.1293,0.0,0.0,0.0,0.0,0.0,0.0,0.0,1.2377,1.2772,1.3149,1.3494,1.3496,1.3496,1.3496,1.3496,1.3496,1.3496,1.3709,1.3875,1.401,1.4207,1.4466,1.4829,1.5435,1.5687,1.5749,1.6346,1.6403,1.6105,1.6105,1.6225,1.6408,0.0,0.0,0.0,0.0,0.0,0.0,0.0,1.8268,1.8686,1.908,1.9436,1.9768,2.0189,2.0292,2.0377,2.0794,2.1148,2.1508,0.0,0.0,0.0,0.0,0.0,0.0,0.0,0.0,0.0,0.0,0.0,0.0,0.0,0.0,0.0,0.0,0.0,0.0,0.0,0.0,0.0,0.0,0.0,0.0,0.0,0.0,0.0,0.0,0.0,0.0,0.0,2.9005,2.9005,2.9005,2.9005,2.9005,2.9005,2.8993,2.9445,3.0204,3.0204,3.0626,3.141,3.141,3.141,3.141,3.141,3.141,3.141,3.141,3.141,3.141,3.141,3.1184,3.0912,0.0,0.0,0.0,0.0,0.0,0.0,0.0,0.0,1.1293,1.1293,1.1293,0.0,0.0,0.0,0.0,0.0,0.0,0.0,1.2789,1.3151,1.3391,1.3511,1.3496,1.3496,1.3496,1.3496,1.3571,1.3709,1.3769,1.3935,1.4222,1.4418,1.4692,1.5036,1.5481,1.5792,1.5935,1.6156,1.6263,1.6246,1.6295,1.6396,1.6588,0.0,0.0,0.0,0.0,0.0,0.0,0.0,0.0,0.0,1.9431,1.9807,2.0155,2.0257,2.0292,2.0429,2.1079,2.1319,0.0,0.0,0.0,0.0,0.0,0.0,0.0,0.0,0.0,0.0,0.0,0.0,0.0,0.0,0.0,0.0,0.0,0.0,0.0,0.0,0.0,0.0,0.0,0.0,0.0,0.0,0.0,0.0,0.0,0.0,0.0,0.0,2.9005,2.9005,2.9005,2.9005,2.9005,2.8993,2.9299,2.9702,3.0204,3.0204,3.0626,3.141,3.141,3.141,3.141,3.141,3.141,3.141,3.141,3.141,3.141,3.141,3.1345,3.1216,0.0,0.0,0.0,0.0,0.0,0.0,1.1293,1.1293,1.1293,1.1293,1.1293,1.1293,0.0,0.0,0.0,1.1776,1.2315,0.0,1.2977,1.3305,1.3496,1.3496,1.3496,1.3496,1.3496,1.3586,1.3709,1.3875,1.3875,1.4068,1.4426,1.4597,1.4962,1.546,1.5701,1.5938,1.6134,1.6262,1.6386,1.6546,1.6613,1.6801,1.7113,0.0,0.0,0.0,0.0,0.0,0.0,0.0,0.0,0.0,1.958,1.9978,2.0292,2.0292,2.0412,2.0651,2.1251,0.0,0.0,0.0,0.0,0.0,0.0,0.0,0.0,0.0,0.0,0.0,0.0,0.0,0.0,0.0,0.0,0.0,0.0,0.0,0.0,0.0,0.0,0.0,0.0,0.0,0.0,0.0,0.0,0.0,0.0,0.0,0.0,0.0,2.9005,2.9005,2.9005,2.9005,2.9005,2.8993,2.9409,2.9831,3.0204,3.0369,3.0772,3.141,3.141,3.141,3.141,3.141,3.141,3.141,3.141,3.141,3.141,3.141,3.1313,3.1152,0.0,0.0,1.1293,1.1293,0.0,0.0,1.1293,1.1293,1.1293,1.1293,1.1293,1.1293,0.0,0.0,0.0,1.1844,1.2552,1.3012,1.3046,1.3322,1.3496,1.3496,1.3496,1.3496,1.3496,1.3709,1.386,1.398,1.401,1.4235,1.4624,1.4785,1.5263,1.6001,1.602,1.6151,1.6368,1.6561,1.6741,1.6936,1.7025,1.7356,1.7796,1.7811,0.0,0.0,0.0,0.0,0.0,0.0,0.0,0.0,1.9653,1.9995,2.0292,2.0292,2.0566,2.0983,2.1319,0.0,0.0,0.0,0.0,0.0,0.0,0.0,0.0,0.0,0.0,0.0,0.0,0.0,0.0,0.0,0.0,0.0,0.0,0.0,0.0,0.0,0.0,0.0,0.0,0.0,0.0,0.0,0.0,0.0,0.0,0.0,0.0,2.9005,2.9005,2.9005,2.9005,2.9005,2.9005,0.0,2.9445,2.9868,3.0222,3.0607,3.1043,3.141,3.141,3.141,3.141,3.141,3.141,3.141,3.141,3.141,3.141,3.141,3.1216,3.0944,0.0,0.0,1.1293,1.1293,0.0,0.0,1.1293,1.1293,1.1293,1.1293,1.1293,1.1293,1.1293,1.1597,0.0,1.2244,1.272,1.3114,1.3374,1.3459,1.3496,1.3496,1.3496,1.3496,1.3496,1.3709,1.3815,1.3845,1.4118,1.442,1.4749,1.5121,1.5533,1.6001,1.6171,1.6419,1.6788,1.6866,1.6991,1.7171,1.7497,1.7695,1.7811,1.7928,1.7963,0.0,0.0,0.0,0.0,0.0,0.0,0.0,2.0052,2.0223,2.0292,2.0292,2.0566,2.0983,0.0,2.189,0.0,0.0,0.0,0.0,0.0,0.0,0.0,0.0,0.0,0.0,0.0,0.0,0.0,0.0,0.0,0.0,0.0,0.0,0.0,0.0,0.0,0.0,0.0,0.0,0.0,0.0,0.0,0.0,0.0,0.0,0.0,2.9005,2.9005,2.9005,2.9005,2.9005,2.9005,0.0,2.9727,3.0112,3.0222,3.0607,3.1043,3.141,3.141,3.141,3.141,3.141,3.141,3.141,3.141,3.141,3.141,3.141,3.1345,3.1281,0.0,0.0,0.0,0.0,0.0,0.0,0.0,0.0,1.1293,1.1293,1.1439,1.1541,1.1541,1.2042,0.0,0.0,1.3029,1.3305,1.3494,1.3496,1.3496,1.3496,1.3586,1.3631,1.3631,1.3905,1.4025,1.4025,1.4463,1.4829,1.5131,1.5514,1.5943,1.6426,1.6435,1.6668,1.7043,1.7081,1.7369,1.7802,1.8006,1.8213,1.8368,1.8344,1.8331,1.8328,1.8298,0.0,0.0,0.0,0.0,0.0,0.0,0.0,2.0326,2.0537,2.084,2.124,0.0,0.0,0.0,0.0,0.0,0.0,0.0,0.0,0.0,0.0,0.0,0.0,0.0,0.0,0.0,0.0,0.0,0.0,0.0,0.0,0.0,0.0,0.0,0.0,0.0,0.0,0.0,0.0,0.0,0.0,0.0,2.9005,2.9005,2.9005,2.9005,2.9005,2.9005,2.9005,2.9005,2.9023,2.9819,3.0406,3.0772,3.0974,3.1208,3.141,3.141,3.141,3.141,3.141,3.141,3.141,3.141,3.141,3.141,3.141,3.141,3.1446,0.0,0.0,0.0,0.0,0.0,0.0,0.0,0.0,0.0,1.1383,1.1682,1.1895,1.1895,1.2552,1.2994,0.0,0.0,0.0,1.3496,1.3496,1.3496,1.3496,1.3694,1.3799,1.3799,1.4133,1.4333,1.4406,1.4939,1.5357,1.5646,1.5889,1.6301,1.6839,1.6719,1.6883,1.7261,1.737,1.7821,1.8456,1.8489,1.8686,1.8991,1.8843,1.8778,1.875,1.8749,1.888,1.9116,1.9543,0.0,0.0,0.0,0.0,2.0486,2.0812,2.1182,2.1624,0.0,0.0,0.0,0.0,0.0,0.0,0.0,0.0,0.0,0.0,0.0,0.0,0.0,0.0,0.0,0.0,0.0,0.0,0.0,0.0,0.0,0.0,0.0,0.0,0.0,0.0,0.0,0.0,0.0,0.0,2.9005,2.9005,2.9005,2.9005,2.9005,2.9005,2.9005,2.9005,2.9042,2.9115,2.991,3.0681,3.141,3.141,3.141,3.141,3.141,3.141,3.141,3.141,3.141,3.141,3.141,3.141,3.141,3.141,3.141,3.1465,0.0,0.0,0.0,0.0,0.0,0.0,0.0,0.0,0.0,0.0,1.2076,1.2312,1.2312,1.272,1.2994,1.2994,1.332,1.3496,1.3496,0.0,0.0,1.3496,1.3694,1.3799,1.3799,1.4133,1.446,1.4819,1.5375,0.0,0.0,0.0,0.0,1.6665,1.6848,1.7153,1.7496,1.8004,1.8385,1.8684,1.8855,1.8957,1.9009,1.9166,1.9065,1.8911,1.9256,1.9471,1.9607,1.9687,1.9927,0.0,0.0,0.0,2.0829,2.088,2.1371,2.1936,0.0,0.0,0.0,0.0,0.0,0.0,0.0,0.0,0.0,0.0,0.0,0.0,0.0,0.0,0.0,0.0,0.0,0.0,0.0,0.0,0.0,0.0,0.0,0.0,0.0,0.0,0.0,0.0,0.0,0.0,2.9005,2.9005,2.9005,2.9005,2.9005,2.9005,2.9005,2.9005,2.9188,2.9537,3.0345,3.0937,3.141,3.141,3.141,3.141,3.141,3.141,3.141,3.141,3.141,3.141,3.141,3.141,3.141,3.141,3.141,3.1465,0.0,0.0,0.0,0.0,0.0,0.0,0.0,0.0,0.0,0.0,0.0,1.2737,1.2737,1.3048,1.3271,1.3271,1.3408,1.3496,1.3496,1.3496,1.3556,1.3664,1.383,1.395,1.4088,1.4529,1.4836,1.5,1.5702,0.0,0.0,1.6319,1.661,0.0,0.0,1.7606,1.8192,1.8464,1.8757,1.9034,1.9139,1.9297,1.9496,1.9475,1.9608,1.9799,0.0,0.0,0.0,0.0,0.0,2.0326,2.0572,0.0,0.0,0.0,0.0,0.0,2.2467,0.0,0.0,0.0,0.0,0.0,0.0,0.0,0.0,0.0,0.0,0.0,0.0,0.0,0.0,0.0,0.0,0.0,0.0,0.0,0.0,0.0,0.0,0.0,0.0,0.0,0.0,0.0,0.0,2.9005,2.9005,2.9005,2.9005,2.9005,2.9005,2.9005,2.9005,2.9005,2.9335,2.9929,3.0516,3.0992,3.141,3.141,3.141,3.141,3.141,3.141,3.141,3.141,3.141,3.141,3.141,3.141,3.141,3.141,3.1524,3.1781,0.0,0.0,0.0,0.0,0.0,0.0,0.0,0.0,0.0,0.0,0.0,1.3132,1.3132,0.0,0.0,0.0,1.3496,1.3496,1.3496,1.3496,1.3586,1.3799,1.3935,1.407,1.4222,1.4799,1.5132,1.5211,0.0,0.0,1.647,1.6697,1.7115,0.0,1.7588,0.0,0.0,0.0,0.0,0.0,0.0,1.9621,1.9912,1.995,0.0,2.0552,2.0469,0.0,0.0,0.0,0.0,0.0,0.0,0.0,0.0,0.0,0.0,0.0,0.0,0.0,0.0,0.0,0.0,0.0,0.0,0.0,0.0,0.0,0.0,0.0,0.0,0.0,0.0,0.0,0.0,0.0,0.0,0.0,0.0,0.0,0.0,0.0,0.0,0.0,0.0,0.0,0.0,2.9005,2.9005,2.9005,2.9005,2.9005,2.9005,2.9005,2.9005,2.9195,2.9599,3.0204,3.0699,3.1134,3.141,3.141,3.141,3.141,3.141,3.141,3.141,3.141,3.141,3.141,3.141,3.141,3.141,3.141,3.1653,3.2074,0.0,0.0,0.0,0.0,0.0,0.0,0.0,0.0,0.0,0.0,0.0,1.3461,1.3461,1.3478,1.3496,1.3496,1.3496,1.3496,1.3496,1.3496,1.3586,1.3799,1.3935,0.0,1.4025,1.4738,1.5213,0.0,0.0,0.0,1.689,1.7275,1.766,1.8045,1.7878,1.8114,1.8723,0.0,0.0,0.0,0.0,0.0,0.0,0.0,0.0,0.0,0.0,0.0,0.0,0.0,0.0,0.0,0.0,0.0,0.0,0.0,0.0,0.0,0.0,0.0,0.0,0.0,0.0,0.0,0.0,0.0,0.0,0.0,0.0,0.0,0.0,0.0,0.0,0.0,0.0,0.0,0.0,0.0,0.0,0.0,0.0,0.0,0.0,0.0,0.0,0.0,0.0,2.9005,2.9005,2.9005,2.9005,2.9005,2.9005,2.9005,2.9005,2.9745,3.0167,3.0204,3.0974,3.1391,3.141,3.141,3.141,3.141,3.141,3.141,3.141,3.141,3.141,3.141,3.141,3.141,3.141,3.141,3.1653,3.2074,0.0,0.0,0.0,0.0,0.0,0.0,0.0,0.0,0.0,0.0,0.0,0.0,0.0,1.3496,1.3496,1.3496,1.3496,1.3496,1.3496,1.3496,1.3586,1.3799,1.3935,1.4179,1.4567,1.5166,1.5663,0.0,0.0,1.689,1.7293,1.7422,1.7862,1.8485,1.8428,1.8647,1.9091,1.9237,0.0,0.0,0.0,0.0,0.0,0.0,0.0,0.0,0.0,0.0,0.0,0.0,0.0,0.0,0.0,0.0,0.0,0.0,0.0,0.0,0.0,0.0,0.0,0.0,0.0,0.0,0.0,0.0,0.0,0.0,0.0,0.0,0.0,0.0,0.0,0.0,0.0,0.0,0.0,0.0,0.0,0.0,0.0,0.0,0.0,0.0,0.0,0.0,0.0,0.0,2.9005,2.9005,2.9005,2.9005,2.9005,2.9005,2.9005,2.98,3.0204,3.0204,3.1043,3.141,3.141,3.141,3.141,3.141,3.141,3.141,3.141,3.141,3.141,3.141,3.141,3.141,3.1446,3.1689,3.2038,3.2441,0.0,0.0,0.0,1.2757,0.0,1.3166,1.3166,1.3357,1.3496,1.3496,0.0,0.0,0.0,0.0,1.3496,1.3496,1.3496,1.3496,1.3496,1.3556,1.3746,1.405,1.422,1.4536,1.5088,1.5487,1.5883,0.0,0.0,0.0,0.0,1.7642,1.8064,1.8724,1.8833,1.9054,0.0,0.0,0.0,1.9912,0.0,0.0,2.1104,0.0,0.0,0.0,0.0,0.0,0.0,0.0,0.0,0.0,0.0,0.0,0.0,0.0,0.0,0.0,0.0,0.0,0.0,0.0,0.0,0.0,0.0,0.0,0.0,0.0,0.0,0.0,0.0,0.0,0.0,0.0,0.0,0.0,0.0,0.0,0.0,0.0,0.0,0.0,0.0,0.0,0.0,0.0,0.0,0.0,2.9005,2.9005,2.9005,2.9005,2.9005,2.9005,2.9005,2.98,3.0204,3.0204,3.1043,3.141,3.141,3.141,3.141,3.141,3.141,3.141,3.141,3.141,3.141,3.141,3.141,3.141,3.1465,3.1854,3.2258,3.2661,1.3128,1.3271,1.3496,1.3496,1.3496,1.3496,1.3496,1.3496,1.3496,1.3496,0.0,0.0,0.0,0.0,0.0,1.3496,1.3528,1.3528,1.3528,1.3711,1.4068,1.4593,1.4816,1.5106,1.5504,1.5633,1.5853,1.6121,1.6274,1.6726,1.7513,0.0,1.8338,1.8742,1.9146,1.9329,1.9347,0.0,1.9912,1.9985,0.0,2.1108,2.1163,0.0,0.0,0.0,2.1687,2.1727,0.0,0.0,0.0,0.0,0.0,0.0,0.0,0.0,0.0,0.0,0.0,0.0,0.0,0.0,0.0,0.0,0.0,0.0,0.0,0.0,0.0,0.0,0.0,0.0,0.0,0.0,0.0,0.0,0.0,0.0,0.0,0.0,0.0,0.0,0.0,0.0,0.0,0.0,2.9005,2.9005,2.9005,2.9005,2.9005,2.9005,2.9005,2.9005,2.9005,2.98,3.0204,3.0204,3.1043,3.141,3.141,3.141,3.141,3.141,3.141,3.141,3.141,3.141,3.141,3.141,3.141,3.141,3.1465,3.1873,3.2276,3.2661,1.3672,1.3532,1.3496,1.3496,1.3496,1.3496,1.3496,1.3496,1.3496,0.0,0.0,0.0,1.3496,1.3496,1.3496,1.3496,1.3908,1.4158,1.4158,1.456,1.4882,1.5037,1.5229,1.5522,1.5939,1.6072,1.6306,1.6674,1.7019,1.744,1.7935,1.8338,1.8741,0.0,1.9547,1.9731,1.9749,1.9838,0.0,0.0,2.1016,2.1269,0.0,0.0,0.0,0.0,0.0,2.1892,0.0,0.0,2.2701,2.3238,0.0,0.0,0.0,0.0,0.0,0.0,2.2653,0.0,0.0,0.0,0.0,0.0,2.3879,2.3904,0.0,0.0,0.0,0.0,0.0,0.0,0.0,0.0,0.0,0.0,0.0,0.0,0.0,0.0,0.0,0.0,0.0,0.0,0.0,0.0,2.9005,2.9005,2.9005,2.9005,2.9005,2.9005,2.9005,2.9005,2.9005,2.98,3.0204,3.0204,3.1043,3.141,3.141,3.141,3.141,3.141,3.141,3.141,3.141,3.141,3.141,3.141,3.141,3.141,3.1501,3.2166,3.2496,3.2698,1.3767,1.3586,1.3496,1.3496,1.3496,1.3496,1.3496,1.3496,1.3496,0.0,0.0,0.0,1.3733,1.375,1.3819,1.399,1.4324,1.4558,1.4604,1.4975,1.53,1.5561,1.5742,1.6022,1.6424,1.6509,1.6762,1.7147,1.7385,1.7789,1.8357,1.8595,1.8998,1.9547,1.9804,2.0097,0.0,0.0,0.0,0.0,2.1269,0.0,0.0,2.1687,2.1687,0.0,0.0,0.0,2.235,2.2698,2.323,0.0,0.0,0.0,0.0,0.0,0.0,0.0,0.0,0.0,0.0,0.0,0.0,0.0,2.378,2.3879,2.4003,0.0,0.0,0.0,0.0,0.0,0.0,0.0,0.0,0.0,0.0,0.0,0.0,0.0,0.0,0.0,0.0,2.9005,2.9005,2.9005,2.9005,2.9005,2.9005,2.9005,2.9005,2.9005,2.9005,2.9097,2.9262,2.9874,3.0277,3.0461,3.1116,3.141,3.141,3.141,3.141,3.141,3.141,3.141,3.141,3.141,3.141,3.141,3.141,3.1488,3.1726,3.2368,3.2698,3.2955,0.0,1.3526,1.3526,1.3496,1.3496,1.3496,1.3496,1.3496,1.3528,0.0,1.3613,1.3768,1.4127,1.4177,1.4314,1.4691,1.4792,1.4875,1.5021,1.527,1.5631,1.6175,1.6364,1.6598,1.6963,1.7018,1.722,1.7568,1.7605,1.8009,1.8686,1.8796,1.9218,1.9893,2.0005,2.0427,0.0,0.0,0.0,2.1196,2.1562,2.1687,0.0,0.0,2.1782,0.0,2.2222,2.2405,2.2552,2.3321,2.3859,0.0,0.0,0.0,0.0,0.0,2.3431,0.0,0.0,0.0,0.0,0.0,0.0,0.0,2.3879,2.3978,2.4127,0.0,0.0,0.0,0.0,0.0,0.0,0.0,0.0,0.0,0.0,0.0,0.0,0.0,0.0,0.0,2.9005,2.9005,2.9005,2.9005,2.9005,2.9005,2.9005,2.9005,2.9005,2.9005,2.9005,2.9207,2.9592,2.9984,3.0406,3.0791,3.1226,3.141,3.141,3.141,3.141,3.141,3.141,3.141,3.141,3.141,3.141,3.141,3.141,3.1634,3.2056,3.2441,3.2863,3.3251,1.386,1.3739,1.3694,1.3526,1.3496,1.3496,1.3496,1.3496,1.3613,1.3939,1.4264,1.4503,1.4572,1.4589,1.4655,1.4837,1.5315,1.5676,1.586,1.63,1.6621,1.6728,1.7074,1.7293,1.7385,1.7697,1.7899,1.799,1.8302,1.8559,1.8705,1.9364,1.9749,1.9932,2.0573,2.094,0.0,0.0,0.0,2.1599,2.1668,0.0,2.1746,2.2075,2.2185,2.224,2.2638,2.2986,2.3358,0.0,2.4103,2.4152,0.0,0.0,0.0,0.0,0.0,0.0,0.0,0.0,0.0,0.0,0.0,0.0,2.4053,2.3829,2.368,0.0,0.0,0.0,0.0,0.0,0.0,0.0,0.0,0.0,0.0,0.0,0.0,0.0,0.0,0.0,2.8986,2.9005,2.9005,2.9005,2.9005,2.9005,2.9005,2.9005,2.9005,2.9005,2.9005,2.9207,2.9592,2.9984,3.0406,3.0791,3.1226,3.141,3.141,3.141,3.141,3.141,3.141,3.141,3.141,3.141,3.141,3.141,3.141,3.1634,3.2056,3.2441,3.2863,3.3251,1.4425,1.4354,1.4231,1.3902,1.3842,1.3837,1.3798,1.3802,1.3939,1.4349,1.4637,1.4892,1.5082,1.5183,1.5336,1.5596,1.5857,1.6224,1.663,1.6898,1.7169,1.7495,1.7679,1.7789,1.7789,1.8192,1.8393,1.8393,1.8796,1.9089,1.9309,1.9712,2.0115,2.0518,2.0924,2.1196,0.0,0.0,2.1819,2.1984,2.1778,0.0,2.202,2.2222,2.24,2.2638,2.3059,2.3486,2.3877,2.4103,2.4202,0.0,0.0,2.4003,2.3978,0.0,2.3705,2.363,0.0,0.0,0.0,2.363,0.0,0.0,0.0,2.3506,2.3506,2.3929,0.0,0.0,0.0,0.0,0.0,0.0,0.0,0.0,0.0,0.0,0.0,0.0,0.0,0.0,2.8663,2.8865,2.9005,2.9005,2.9005,2.9005,2.9005,2.9005,2.9005,2.9005,2.9005,2.9299,2.9874,3.0094,3.0497,3.1116,3.1318,3.141,3.141,3.141,3.141,3.141,3.141,3.141,3.141,3.141,3.141,3.141,3.141,3.1763,3.2331,3.2514,3.2991,3.3541,1.5167,1.503,1.4917,1.4534,1.4373,1.4365,1.4489,1.4433,1.4509,1.494,1.5077,1.5251,1.5633,0.0,0.0,0.0,1.6825,1.7095,1.7569,1.7605,1.7752,1.81,1.8173,1.8228,1.8228,1.8595,1.8851,1.8924,1.9274,1.9621,2.0024,2.0076,2.0482,2.1086,0.0,0.0,0.0,0.0,0.0,2.2277,0.0,2.2149,2.24,2.2515,2.273,2.3078,2.3504,2.3877,2.4202,2.4202,0.0,2.4202,2.4202,2.4202,0.0,0.0,0.0,0.0,0.0,0.0,0.0,0.0,0.0,2.3605,0.0,0.0,0.0,2.373,0.0,0.0,0.0,0.0,0.0,0.0,0.0,0.0,0.0,0.0,0.0,0.0,0.0,0.0,0.0,2.8755,2.9005,2.9005,2.9005,2.9005,2.9005,2.9005,2.9005,2.9005,2.9005,2.9379,3.0185,3.0204,3.0589,3.141,3.141,3.141,3.141,3.141,3.141,3.141,3.141,3.141,3.141,3.141,3.141,3.1428,3.1501,3.1946,3.2606,3.268,3.3175,3.3817,1.5856,1.5536,1.5508,1.5461,1.5047,1.5039,1.5914,1.5654,1.5544,1.604,1.603,0.0,0.0,0.0,0.0,0.0,0.0,0.0,1.905,0.0,1.8762,1.8119,1.8448,1.8631,1.8631,1.9036,1.9421,1.9747,1.9822,2.0042,2.0445,2.0814,2.1016,0.0,2.1471,0.0,0.0,0.0,2.2259,0.0,2.2638,2.2803,0.0,2.3224,2.3389,2.348,2.3957,2.4165,2.4202,0.0,2.4202,2.4202,0.0,2.4202,0.0,0.0,0.0,0.0,0.0,0.0,0.0,0.0,2.3605,0.0,0.0,0.0,2.3206,2.3705,0.0,0.0,0.0,0.0,0.0,0.0,0.0,0.0,0.0,0.0,0.0,0.0,0.0,0.0,0.0,2.8755,2.9005,2.9005,2.9005,2.9005,2.9005,2.9005,2.9005,2.9005,2.9005,2.9379,3.0185,3.0204,3.0589,3.141,3.141,3.141,3.141,3.141,3.141,3.141,3.141,3.141,3.141,3.141,3.141,3.1446,3.1799,3.2203,3.2643,3.301,3.3431,3.3817,1.7334,1.7098,1.6965,1.6491,1.6235,1.6217,1.6589,1.6807,1.713,1.7564,1.7893,0.0,0.0,0.0,0.0,0.0,0.0,1.9465,0.0,0.0,0.0,1.8816,1.8962,1.9054,1.9054,1.9437,1.9731,1.9914,2.0134,2.0445,2.0848,2.1013,2.1214,0.0,2.1614,0.0,2.1723,0.0,0.0,0.0,0.0,0.0,0.0,2.3541,2.3669,2.3914,2.4146,2.4202,2.4202,0.0,2.4202,0.0,0.0,0.0,0.0,0.0,0.0,0.0,0.0,0.0,0.0,0.0,0.0,0.0,0.0,0.0,2.3055,0.0,0.0,0.0,0.0,0.0,0.0,0.0,0.0,0.0,0.0,0.0,0.0,0.0,0.0,0.0,0.0,0.0,0.0,0.0,2.9005,2.9005,2.9005,2.9005,2.9005,2.9005,2.9005,2.9379,3.0185,3.0204,3.0589,3.141,3.141,3.141,3.141,3.141,3.141,3.141,3.141,3.141,3.141,3.141,3.141,3.1465,3.2093,3.2441,3.2643,3.3031,3.3434,3.3817,1.894,1.8499,1.8033,1.7468,1.7331,1.742,1.773,1.8217,1.8745,1.9221,0.0,0.0,1.9884,1.9925,0.0,0.0,0.0,2.0508,0.0,0.0,2.0519,2.0021,1.986,0.0,0.0,1.9981,2.0115,2.0225,2.0518,2.0866,2.1251,2.1251,2.1471,2.1851,0.0,2.1947,2.2053,0.0,0.0,2.3096,2.3523,2.3895,2.4165,2.3822,2.3895,2.4202,2.4202,2.4202,2.4202,2.4202,2.4202,0.0,2.4202,0.0,0.0,0.0,0.0,0.0,2.4202,0.0,0.0,0.0,0.0,0.0,0.0,0.0,0.0,0.0,0.0,0.0,0.0,0.0,0.0,0.0,0.0,0.0,0.0,0.0,0.0,0.0,0.0,0.0,0.0,0.0,0.0,0.0,0.0,2.9005,2.9005,2.9005,2.9005,2.9005,2.9005,2.9379,3.0185,3.0204,3.0589,3.141,3.141,3.141,3.141,3.141,3.141,3.141,3.141,3.141,3.141,3.141,3.1451,3.1616,3.2313,3.2661,3.2808,3.323,3.3525,3.3817,2.0501,1.9269,1.8221,1.8326,1.82,1.8504,1.9813,2.0028,2.0265,0.0,0.0,0.0,0.0,0.0,0.0,0.0,0.0,2.3163,2.2917,0.0,2.2547,0.0,0.0,0.0,0.0,2.0677,2.0665,2.1071,2.1071,2.1288,2.1668,2.1668,2.1911,2.2277,2.2277,2.2492,2.2895,2.3279,2.3462,2.3517,2.3993,2.4183,2.4202,0.0,2.4183,2.4202,2.4202,0.0,0.0,2.4202,2.4202,0.0,0.0,0.0,0.0,0.0,0.0,0.0,0.0,0.0,0.0,2.3879,0.0,0.0,0.0,0.0,2.3406,0.0,0.0,0.0,0.0,0.0,0.0,0.0,0.0,0.0,0.0,0.0,0.0,0.0,0.0,0.0,0.0,0.0,0.0,0.0,0.0,0.0,2.9005,2.9005,2.9005,2.9005,2.9005,2.9379,3.0185,3.0204,3.0589,3.141,3.141,3.141,3.141,3.141,3.141,3.141,3.141,3.141,3.141,3.141,3.1616,3.2019,3.2441,3.2845,3.3214,3.3651,3.3798,3.3817,2.1116,2.0765,2.0366,2.0099,0.0,2.0293,2.1335,2.1491,2.1667,0.0,0.0,0.0,0.0,0.0,2.2801,0.0,0.0,2.3434,2.302,2.3607,0.0,0.0,0.0,2.1641,0.0,0.0,2.0958,2.1108,2.1361,2.1581,2.1727,2.1984,2.2167,2.2314,0.0,2.2767,0.0,0.0,0.0,0.0,0.0,2.4202,2.4202,0.0,0.0,2.4202,2.4202,2.4202,0.0,2.4202,2.4202,2.4202,2.4202,2.4202,2.4202,2.4202,2.4202,0.0,0.0,0.0,2.4177,2.4078,0.0,0.0,0.0,0.0,0.0,0.0,0.0,0.0,0.0,0.0,0.0,0.0,0.0,0.0,0.0,0.0,0.0,0.0,0.0,0.0,0.0,0.0,0.0,0.0,0.0,0.0,0.0,2.9005,2.9005,2.9005,2.9005,2.9379,3.0185,3.0204,3.0589,3.141,3.141,3.141,3.141,3.141,3.141,3.141,3.141,3.141,3.141,3.141,3.1616,3.2038,3.2441,3.2845,3.3232,3.3635,3.3817,3.3817,2.1862,2.1924,2.1796,0.0,0.0,0.0,0.0,0.0,0.0,0.0,2.3676,0.0,2.4057,0.0,2.4168,0.0,2.4532,2.4273,2.3961,2.4578,0.0,2.3671,2.3243,0.0,0.0,0.0,2.1811,2.1811,2.1736,2.176,2.1929,2.2185,2.246,2.2753,0.0,0.0,0.0,0.0,2.3767,0.0,0.0,2.4202,0.0,0.0,2.4202,2.4202,0.0,2.4202,2.4202,2.4202,2.4202,2.4202,2.4202,2.4202,2.4202,2.4202,2.4202,2.4202,2.4202,2.4202,0.0,2.4202,2.4202,0.0,2.3978,0.0,0.0,0.0,0.0,0.0,0.0,0.0,0.0,0.0,0.0,0.0,0.0,2.4962,0.0,0.0,0.0,0.0,0.0,0.0,0.0,0.0,0.0,0.0,0.0,0.0,2.9005,2.9005,2.9005,2.9379,3.0185,3.0204,3.0589,3.141,3.141,3.141,3.141,3.141,3.141,3.141,3.141,3.141,3.141,3.141,3.1708,3.2239,3.2496,3.2936,3.3434,3.3725,3.3817,3.3817,2.2725,2.2748,2.2543,0.0,2.2048,0.0,0.0,0.0,2.3637,0.0,2.4636,2.4893,2.4939,2.5398,2.5696,2.5696,2.5719,0.0,2.5696,2.5742,0.0,0.0,2.5345,2.5123,2.5123,0.0,0.0,0.0,0.0,2.1974,2.2295,2.235,2.2772,2.3499,2.3517,0.0,2.4202,2.4202,2.4202,2.4202,2.4202,2.4226,2.4276,2.4226,2.4226,2.4276,2.4226,2.4202,2.4202,2.4202,2.4202,2.4202,2.4202,2.4202,2.4202,2.422,2.4238,2.4238,2.4257,2.4257,2.4257,2.4257,0.0,0.0,0.0,0.0,2.4182,0.0,0.0,0.0,0.0,0.0,0.0,0.0,0.0,0.0,0.0,0.0,0.0,0.0,0.0,0.0,0.0,0.0,0.0,0.0,0.0,0.0,0.0,0.0,2.9005,2.9005,2.9005,2.9379,3.0185,3.0204,3.0589,3.141,3.141,3.141,3.141,3.141,3.141,3.141,3.141,3.141,3.141,3.141,3.1854,3.2588,3.2588,3.3101,3.3817,3.3817,3.3817,3.3817,2.3224,2.354,2.3756,0.0,2.3631,2.3766,0.0,0.0,0.0,0.0,2.4843,2.5054,2.5444,2.5604,2.5696,2.5696,2.606,0.0,0.0,0.0,0.0,2.6309,2.5854,2.5623,2.5623,2.466,0.0,2.3086,0.0,0.0,2.2314,2.2918,2.3297,2.3523,0.0,0.0,2.4202,2.4202,2.4202,2.4202,2.4202,2.4652,0.0,0.0,2.4652,2.5216,2.4474,2.4202,2.4202,2.4202,2.4202,2.4202,2.4202,2.4202,2.4257,2.4562,2.4654,2.4709,2.5003,2.5076,2.5076,2.5076,2.5076,2.5076,0.0,0.0,0.0,0.0,0.0,0.0,0.0,0.0,0.0,0.0,0.0,0.0,0.0,0.0,0.0,0.0,0.0,0.0,0.0,0.0,0.0,0.0,0.0,0.0,0.0,0.0,0.0,2.9005,2.9005,2.9379,3.0185,3.0204,3.0589,3.141,3.141,3.141,3.141,3.141,3.141,3.141,3.141,3.141,3.141,3.141,3.1854,3.2588,3.2588,3.3101,3.3817,3.3817,3.3817,3.3817,2.3746,0.0,0.0,2.482,0.0,0.0,2.4545,0.0,0.0,2.5169,2.5463,0.0,2.6034,2.645,2.6703,2.6703,2.7182,0.0,0.0,0.0,0.0,2.7182,2.6894,2.6646,2.6424,2.5526,0.0,2.4626,0.0,0.0,2.3527,2.3999,2.4296,2.446,0.0,2.4849,0.0,2.4399,2.4449,2.4849,2.4849,0.0,0.0,2.5732,2.5858,2.6268,2.5708,2.5221,2.4849,2.4849,2.4962,2.5113,2.5113,2.4939,2.479,2.5003,2.5058,2.5113,2.5333,2.5388,2.5388,2.5388,2.5388,2.5388,2.5388,2.5388,2.5388,0.0,0.0,0.0,0.0,0.0,0.0,0.0,0.0,0.0,0.0,0.0,0.0,0.0,0.0,0.0,0.0,0.0,0.0,0.0,0.0,0.0,0.0,0.0,0.0,2.9005,2.9005,2.9379,3.0185,3.0204,3.0589,3.141,3.141,3.141,3.141,3.141,3.141,3.141,3.141,3.141,3.1428,3.1579,3.2019,3.2625,3.2991,3.3413,3.3817,3.3817,3.3817,3.3817,0.0,0.0,0.0,0.0,0.0,0.0,0.0,2.5031,0.0,2.5719,0.0,2.6608,2.6697,2.7527,2.8102,2.8102,0.0,2.87,2.87,2.87,2.8517,2.8125,2.8102,2.7874,2.7417,2.6603,0.0,0.0,0.0,0.0,2.5303,2.5338,2.5551,2.5877,0.0,0.0,0.0,2.4775,2.4971,0.0,2.5902,2.6484,2.7369,2.725,2.7274,2.7389,2.7333,2.6753,2.5976,2.583,2.6055,2.6381,2.6231,2.5818,2.5407,2.5462,2.548,2.548,2.5535,2.5554,2.5554,2.5554,2.5554,2.5554,2.5554,2.5554,2.5554,2.5554,2.5554,2.5554,0.0,0.0,0.0,0.0,0.0,0.0,0.0,0.0,0.0,0.0,0.0,0.0,0.0,0.0,0.0,0.0,0.0,0.0,0.0,0.0,0.0,2.8993,2.9005,2.9379,3.0185,0.0,3.0589,3.141,3.141,3.141,3.141,3.141,3.141,3.141,3.141,3.141,3.1446,3.1836,3.2276,3.2753,3.3523,3.3817,3.3817,3.3817,3.3817,3.3817,0.0,0.0,0.0,0.0,0.0,2.583,2.6171,2.583,2.5761,2.6286,2.6772,2.7254,2.7688,2.8241,2.8563,2.8563,2.8654,0.0,0.0,0.0,0.0,2.8586,2.8563,2.854,2.8448,2.8275,2.7891,0.0,0.0,0.0,2.6352,2.6678,2.688,0.0,0.0,0.0,2.5703,2.5509,0.0,2.6938,2.6938,2.7531,2.833,2.7531,2.772,2.8395,2.7995,2.7755,2.7439,2.6507,2.6509,2.6734,2.5827,2.5489,2.5462,2.5792,2.5884,2.5958,2.6306,2.6371,2.6371,2.6371,2.6371,2.6371,2.6371,2.6371,2.6371,2.6371,2.6371,2.6371,2.6371,0.0,0.0,0.0,0.0,0.0,0.0,0.0,0.0,0.0,0.0,0.0,0.0,0.0,0.0,0.0,0.0,0.0,0.0,0.0,0.0,0.0,2.9005,0.0,0.0,0.0,3.0589,3.141,3.141,3.141,3.141,3.141,3.141,3.141,3.141,3.141,3.1446,3.1836,3.2441,3.3122,3.3633,3.3817,3.3817,3.3817,3.3817,3.3817,0.0,0.0,0.0,0.0,0.0,0.0,0.0,2.7068,0.0,2.7251,2.769,2.808,2.8333,2.8815,2.9114,2.9114,2.9343,2.9481,2.9481,2.9481,2.9366,2.9137,2.9114,0.0,2.87,2.87,2.8643,2.8498,0.0,0.0,2.7706,0.0,0.0,2.7955,0.0,2.7247,0.0,0.0,0.0,2.7979,2.7979,2.8563,2.9439,2.9266,2.9471,2.9887,2.9951,3.0136,3.012,2.8786,2.8599,2.8872,2.836,2.7984,2.778,2.7976,2.7586,2.7165,2.7373,2.7016,2.6591,2.6591,2.6591,2.6591,2.6591,2.6591,2.6591,2.6591,2.6591,2.6564,2.6354,2.6327,0.0,0.0,0.0,0.0,0.0,0.0,0.0,0.0,0.0,0.0,0.0,0.0,0.0,0.0,0.0,0.0,0.0,0.0,0.0,0.0,0.0,0.0,0.0,0.0,0.0,3.141,3.141,3.141,3.141,3.141,3.141,3.141,3.141,3.141,3.1465,3.2056,3.279,3.3507,3.3709,3.3817,3.3817,3.3817,3.3817,3.3817,0.0,2.6723,0.0,0.0,2.7463,0.0,2.808,2.8262,2.8285,2.817,2.8563,2.8861,2.8861,2.9343,2.9642,2.9642,3.0009,3.0193,3.0193,3.0193,3.0055,2.9665,2.9642,2.9458,2.9022,2.9022,2.9228,0.0,0.0,0.0,0.0,0.0,0.0,0.0,0.0,0.0,0.0,0.0,2.8096,2.9025,2.9025,2.9553,3.0423,3.0835,3.1065,3.1249,3.1755,3.2192,3.2345,3.1245,3.091,3.0942,3.0691,3.0265,2.9906,2.9906,2.9098,2.8196,2.8196,2.7403,2.6591,2.6591,2.6591,2.6591,2.6591,2.6591,2.6591,2.6591,2.6591,2.6537,2.6245,2.6218,0.0,0.0,0.0,0.0,0.0,0.0,0.0,0.0,0.0,0.0,0.0,0.0,0.0,0.0,0.0,0.0,0.0,0.0,0.0,0.0,0.0,2.9452,3.0185,0.0,3.0681,3.141,3.141,3.141,3.141,3.141,3.141,3.141,3.141,3.1501,3.1689,3.2331,3.3083,3.3817,3.3817,3.3817,3.3817,3.3817,3.3817,3.3817,0.0,0.0,0.0,0.0,0.0,0.0,0.0,2.9045,2.9183,2.87,2.9091,2.9435,2.9435,2.9848,3.0124,3.0124,3.017,3.0193,3.0193,3.0193,3.017,3.0124,3.0124,3.0101,3.0055,3.0055,3.0078,0.0,0.0,0.0,0.0,0.0,0.0,0.0,0.0,0.0,0.0,2.8608,2.9141,3.0057,3.0057,3.0423,3.0927,3.0973,3.1295,3.1778,3.226,3.2467,3.2558,3.2895,3.2356,3.1345,3.0317,2.9943,2.9906,2.9906,2.9098,2.8196,2.8196,2.7403,2.6591,2.6591,2.6591,2.6591,2.6591,2.6591,2.6591,2.6591,2.6591,2.6591,2.6564,2.6564,2.6537,0.0,0.0,0.0,0.0,0.0,0.0,0.0,0.0,0.0,0.0,0.0,0.0,0.0,0.0,0.0,0.0,0.0,0.0,2.8993,0.0,2.9776,3.0204,3.0552,3.0956,3.141,3.141,3.141,3.141,3.141,3.141,3.141,3.141,3.1799,3.2496,3.257,3.3083,3.3817,3.3817,3.3817,3.3817,3.3817,3.3817,3.3817,0.0,0.0,0.0,0.0,0.0,0.0,0.0,2.9366,2.9527,2.9596,2.9802,2.994,2.994,3.0078,3.0193,3.0193,3.0193,3.0193,3.0193,3.0193,3.0193,3.0193,3.0193,3.0193,3.0193,3.0193,3.0193,0.0,0.0,0.0,0.0,0.0,0.0,0.0,0.0,2.96,2.96,2.96,2.9829,3.0216,3.0537,3.0813,3.1065,3.1662,3.203,3.2283,3.2812,3.2996,3.2994,3.3249,3.2994,3.2544,3.2066,3.1939,3.1939,3.1939,3.066,2.923,2.923,2.7941,2.6591,2.6591,2.6591,2.6591,2.6591,2.6591,2.6591,2.6591,2.6591,2.6591,2.6591,2.6591,2.6591,0.0,0.0,0.0,0.0,0.0,0.0,0.0,0.0,0.0,0.0,0.0,0.0,0.0,0.0,0.0,0.0,0.0,0.0,2.8993,0.0,2.9813,3.0204,3.0589,3.0992,3.141,3.141,3.141,3.141,3.141,3.141,3.141,3.141,3.1869,3.2588,3.2588,3.3083,3.3817,3.3817,3.3817,3.3817,3.3817,3.3817,3.3817,2.8216,0.0,2.893,0.0,2.9045,2.9274,2.9642,2.9711,2.9825,3.0147,3.0193,3.0193,3.0193,3.0193,3.0193,3.0193,3.0193,3.0193,3.0193,3.0193,3.0193,3.0193,3.0193,0.0,3.0193,3.0193,3.0193,3.0193,3.0193,0.0,0.0,0.0,0.0,0.0,3.0193,3.0193,3.0193,3.0354,3.0445,3.0468,3.1019,3.1318,3.1525,3.2213,3.2605,3.2789,3.318,3.3317,3.3317,3.3317,3.3317,3.3317,3.3317,3.3317,3.3317,3.3317,3.1913,3.038,3.038,2.8774,2.7071,2.7071,2.6818,2.6628,2.6765,2.6784,2.682,2.693,2.6967,2.6967,2.6967,2.6967,2.6967,2.6967,0.0,0.0,0.0,0.0,0.0,0.0,0.0,2.7197,2.7452,0.0,0.0,0.0,0.0,0.0,0.0,0.0,0.0,0.0,0.0,0.0,0.0,3.0717,3.1134,3.141,3.141,3.141,3.141,3.141,3.141,3.141,3.141,3.1869,3.2588,3.2588,3.3083,3.3817,3.3817,3.3817,3.3817,3.3817,3.3817,3.3817,2.87,2.9114,2.9481,2.9481,2.9871,3.017,3.0193,3.0193,3.0193,3.0193,3.0193,3.0193,3.0193,3.0193,3.0193,3.0193,3.0193,3.0193,3.0193,3.0193,3.0193,0.0,0.0,3.0193,3.0193,3.0193,3.0193,3.0193,0.0,0.0,3.0193,0.0,3.0193,3.0193,3.0193,3.0193,3.0216,3.0767,3.0973,3.1019,3.1571,3.2077,3.2466,3.2513,3.2835,3.3294,3.3317,3.3317,3.3317,3.3317,3.3317,3.3317,3.3317,3.3317,3.3317,3.3317,3.2471,3.1586,3.1586,2.9937,2.8169,2.8169,2.7376,2.6683,2.7114,2.7206,2.7316,2.7701,2.7775,2.7775,2.7775,2.7775,2.7775,2.7775,0.0,0.0,0.0,0.0,0.0,0.0,2.705,2.7153,2.7838,0.0,0.0,0.0,0.0,0.0,0.0,0.0,0.0,2.9005,2.9764,0.0,3.0204,3.0974,3.141,3.141,3.141,3.141,3.141,3.141,3.141,3.141,3.141,3.1869,3.2588,3.2588,3.3083,3.3817,3.3817,3.3817,3.3817,3.3817,3.3817,3.3817,2.9838,2.9951,3.0144,3.0635,3.044,3.0193,3.0193,3.0193,3.0193,3.0193,3.0193,3.0193,3.0193,3.0193,3.0193,0.0,3.0193,3.0193,0.0,3.0193,3.0193,3.0193,3.0193,3.0193,3.0193,3.0193,3.0193,3.0193,0.0,0.0,0.0,3.0193,3.0193,3.0193,3.0193,3.04,3.0744,3.0927,3.1203,3.1594,3.2077,3.2375,3.2536,3.2927,3.3157,3.3317,3.3317,3.3317,3.3317,3.3317,3.3317,3.3363,3.3683,3.3545,3.3338,3.3683,3.2987,3.1976,3.1514,3.0303,2.8956,2.8125,2.766,2.7444,2.7573,2.761,2.7646,2.7775,2.7793,2.7793,2.7793,2.7793,2.7793,2.7793,2.7793,0.0,0.0,0.0,0.0,0.0,0.0,2.8119,0.0,2.8377,0.0,0.0,0.0,0.0,0.0,0.0,0.0,0.0,2.991,0.0,3.0589,3.1153,3.141,3.141,3.141,3.141,3.141,3.141,3.141,3.141,3.141,3.1869,3.2588,3.2588,3.3083,3.3817,3.3817,3.3817,3.3817,3.3817,3.3817,3.3853,3.0773,3.0702,3.0758,3.1205,3.0915,3.06,3.06,3.06,3.051,3.0238,3.0193,3.0193,3.0193,3.0193,0.0,3.0193,3.0193,3.0193,3.0193,3.0193,3.0193,3.0193,3.0193,3.0193,3.0193,0.0,0.0,3.0193,3.0193,3.0193,3.0193,3.0193,3.0308,3.0491,3.0491,3.0813,3.1318,3.1479,3.1754,3.21,3.2605,3.2812,3.2835,3.318,3.3317,3.3317,3.3317,3.3317,3.334,3.3499,3.3545,3.3637,3.4142,3.4096,3.3912,3.4211,3.3455,3.2423,3.2007,3.0737,2.9336,2.8597,2.8087,2.783,2.7995,2.8142,2.8252,2.8252,2.8252,2.8252,2.8252,2.8252,2.8252,2.8252,2.8252,2.8252,2.8252,0.0,0.0,0.0,0.0,0.0,0.0,2.8755,0.0,0.0,0.0,0.0,0.0,0.0,0.0,2.9592,2.9984,0.0,3.0791,3.1208,3.141,3.141,3.141,3.141,3.141,3.141,3.141,3.141,3.141,3.1869,3.2588,3.2588,3.3083,3.3817,3.3817,3.3817,3.3817,3.3817,3.3817,3.3872,3.1538,3.1385,0.0,0.0,3.1361,0.0,3.1294,3.125,3.0982,3.0284,3.0193,3.0193,3.0193,3.0193,3.0193,3.0193,0.0,0.0,0.0,3.0193,3.0193,3.0193,3.0193,3.0193,3.0193,3.0193,3.0216,3.0262,3.0262,3.0262,3.0308,3.0308,3.056,3.1065,3.1065,3.1341,3.187,3.2329,3.2536,3.2605,3.3111,3.3317,3.3317,3.3317,3.3317,3.3292,3.334,3.3363,3.3432,3.3889,3.405,3.4142,3.4693,3.4854,3.4854,3.4854,3.4019,3.3071,3.3012,3.136,2.9609,2.9525,2.8672,2.7977,2.8352,2.8718,2.9005,2.9005,2.9005,2.9005,2.9005,2.9005,2.9005,2.9005,2.9005,2.9005,2.9005,0.0,0.0,0.0,0.0,0.0,0.0,2.8815,2.9005,0.0,0.0,0.0,0.0,0.0,2.9243,2.9629,3.002,3.0424,3.0827,3.1194,3.141,3.141,3.141,3.141,3.141,3.141,3.141,3.141,3.141,3.1869,3.2588,3.2588,3.3083,3.3817,3.3817,3.3817,3.3817,3.3817,3.3817,3.3872,0.0,0.0,3.1627,3.272,3.2001,3.1294,3.1294,3.0825,3.0397,3.0216,3.0193,3.0193,3.0193,3.0193,3.0193,3.0193,3.0193,3.0193,3.0193,3.0193,3.0193,3.0193,3.0193,3.0193,3.0193,3.0193,3.04,3.0813,3.0813,3.1019,3.141,3.1387,3.1432,3.1617,3.1617,3.1893,3.2352,3.2467,3.2743,3.3134,3.3249,3.3317,3.3317,3.3317,3.3317,3.3363,3.3706,3.3821,3.3912,3.444,3.4601,3.4693,3.5172,3.5309,3.5309,3.5309,3.5123,3.4764,3.4252,3.3015,3.1613,3.0709,2.9571,2.8748,2.8858,2.895,2.9005,2.9005,2.9005,2.9005,2.9005,2.9005,2.9005,2.9005,2.9005,2.9005,2.9005,2.9005,0.0,0.0,2.8964,2.8993,2.8904,2.8964,2.9005,0.0,0.0,0.0,0.0,2.9464,2.9647,3.0039,3.0442,3.0846,3.1263,3.1355,3.141,3.141,3.141,3.141,3.141,3.141,3.141,3.141,3.141,3.1869,3.2588,3.2588,3.3083,3.3817,3.3817,3.3817,3.3817,3.3817,3.3817,3.3908,3.33,3.2785,3.2503,3.3258,3.2479,3.1757,3.1757,3.116,3.0578,3.0238,3.0193,3.0193,3.0193,3.0193,3.0193,3.0193,3.0193,3.0193,3.0193,3.0193,3.0193,3.0193,3.0423,3.0583,3.0583,3.0813,3.1065,3.1317,3.1364,3.1525,3.1801,3.1754,3.1869,3.2123,3.2123,3.2398,3.2881,3.2881,3.3042,3.3317,3.3317,3.3317,3.3317,3.3317,3.343,3.3637,3.3912,3.4165,3.444,3.4969,3.5129,3.5221,3.5703,3.5864,3.5864,3.5864,3.5486,3.496,3.4598,3.3579,3.2309,3.1111,2.9903,2.9005,2.9005,2.9005,2.9005,2.9005,2.9005,2.9005,2.9005,2.9005,2.9005,2.9005,2.9005,2.9005,2.9005,2.9005,0.0,2.9005,2.9005,2.9005,2.9005,2.9005,2.9005,2.9005,2.9005,0.0,2.9574,2.9776,3.0039,3.0461,3.0681,3.0974,3.141,3.141,3.141,3.141,3.141,3.141,3.141,3.141,3.141,3.141,3.141,3.1869,3.2588,3.2588,3.3083,3.3817,3.3817,3.3817,3.3817,3.3817,3.3817,3.3927,3.3641,3.345,3.3428,3.3513,3.2954,3.2479,3.2479,3.1889,3.1227,3.0599,3.0512,3.0467,3.0467,3.0445,3.0445,3.0445,3.0445,3.0422,3.0308,3.0308,3.0376,3.0445,3.0882,3.1134,3.1134,3.1571,3.1824,3.1822,3.1893,3.1939,3.2031,3.2031,3.2237,3.2628,3.2628,3.2881,3.3317,3.3317,3.3317,3.3317,3.3317,3.334,3.3409,3.3409,3.3683,3.4142,3.4211,3.4532,3.4992,3.5474,3.5634,3.5703,3.6167,3.6305,3.6305,3.6305,3.5571,3.4747,3.4747,3.386,3.2538,3.1169,3.002,2.9213,2.9035,2.9005,2.9005,2.9005,2.9005,2.9005,2.9005,2.9005,2.9005,2.9005,2.9005,2.9005,2.9005,0.0,2.9005,2.9005,2.9005,2.9005,2.9005,2.9005,2.9005,2.9005,2.906,2.928,2.9684,3.0057,3.0461,3.0864,3.0882,3.1047,3.141,3.141,3.141,3.141,3.141,3.141,3.141,3.141,3.141,3.141,3.1451,3.1891,3.2606,3.2661,3.3138,3.3817,3.3817,3.3817,3.3817,3.3817,3.3853,3.4018,3.4147,3.3789,3.3577,3.4147,3.3683,3.3236,3.3236,3.2609,3.2084,3.1974,3.183,3.1731,3.1731,3.1623,3.1548,3.1548,3.1548,3.1364,3.0904,3.0858,3.1088,3.1525,3.1617,3.1663,3.1663,3.1755,3.1985,3.2398,3.2398,3.2628,3.3065,3.3065,3.3111,3.318,3.318,3.3226,3.3317,3.3317,3.3317,3.3317,3.3317,3.3522,3.3889,3.3889,3.4211,3.4739,3.5103,3.5309,3.5447,3.6006,3.619,3.619,3.6282,3.6305,3.6305,3.6305,3.6168,3.6009,3.6009,3.5107,3.3663,3.1372,3.0645,3.0255,2.9242,2.9005,2.9005,2.9005,2.9005,2.9005,2.9005,2.9005,2.9005,2.9005,2.9005,2.9005,2.9005,0.0,2.9005,2.9005,2.9005,2.9005,2.9005,2.9005,2.9005,2.9005,2.9317,2.9702,3.0075,3.0479,3.0882,3.1267,3.1318,3.1355,3.141,3.141,3.141,3.141,3.141,3.141,3.141,3.141,3.141,3.1428,3.1763,3.2166,3.2625,3.2973,3.336,3.3817,3.3817,3.3817,3.3817,3.3817,3.4018,3.4385,3.4335,3.4147,3.4042,3.4356,3.3852,3.3386,3.3386,3.3056,3.2791,3.2791,3.2605,3.2483,3.2483,3.2066,3.1801,3.1801,3.1778,3.1754,3.18,3.157,3.1525,3.1731,3.2007,3.2306,3.2605,3.2605,3.272,3.295,3.295,3.3065,3.3317,3.3317,3.3317,3.3317,3.3317,3.3317,3.3317,3.3317,3.3455,3.3685,3.3811,3.4109,3.4466,3.4598,3.4869,3.5221,3.5401,3.5703,3.5956,3.6213,3.6305,3.6305,3.6305,3.6305,3.6305,3.6305,3.6305,3.6305,3.6305,3.4914,3.3191,3.2072,3.0791,2.9667,2.9124,2.9005,2.9005,2.9005,2.9005,2.9005,2.9005,2.9005,2.9005,2.9005,2.9005,0.0,0.0,2.9005,2.9005,2.9005,2.9005,2.9005,2.9005,2.9005,2.9097,2.9317,2.9501,2.9868,3.0479,3.0699,3.0974,3.1391,3.141,3.141,3.141,3.141,3.141,3.141,3.141,3.141,3.141,3.141,3.141,3.1428,3.1818,3.2239,3.2625,3.3012,3.345,3.3817,3.3817,3.3817,3.3817,3.3817,3.4055,3.4458,3.4397,3.4397,3.4397,3.4397,3.4082,3.3845,3.3845,3.3849,3.3804,3.3625,3.346,3.3241,3.3077,3.2509,3.2146,3.2146,3.2099,3.2259,3.2674,3.2352,3.2146,3.2074,3.2466,3.2881,3.3294,3.3317,3.3317,3.3317,3.3317,3.3317,3.3317,3.3317,3.3317,3.3317,3.3317,3.3338,3.3453,3.3453,3.3729,3.4214,3.4418,3.469,3.4995,3.5207,3.5429,3.5703,3.5703,3.5933,3.6305,3.6305,3.6305,3.6305,3.6305,3.6305,3.6305,3.6305,3.6305,3.6305,3.6305,3.4697,3.2964,3.268,3.1004,2.9331,2.9064,2.9005,2.9005,2.9005,2.9005,2.9005,2.9005,2.9005,2.9005,2.9005,0.0,0.0,0.0,2.9005,2.9005,2.9005,2.9005,2.9005,2.9005,2.9067,2.928,2.9574,2.9776,3.0161,3.0754,3.0882,3.1066,3.1391,3.141,3.141,3.141,3.141,3.141,3.141,3.141,3.141,3.141,3.141,3.141,3.1428,3.1928,3.2313,3.2643,3.3156,3.3507,3.3817,3.3817,3.3817,3.3817,3.3817,3.4128,3.4587,3.4397,3.4397,3.4397,3.4397,3.4826,3.517,3.517,3.557,3.5649,3.4962,3.469,3.4312,3.3625,3.3346,3.3203,3.3203,3.3178,3.3178,3.3249,3.3226,3.3203,3.3178,3.3226,3.3271,3.3317,3.3317,3.3317,3.3317,3.3317,3.3317,3.3317,3.3317,3.3317,3.3317,3.3317,3.3522,3.3958,3.3958,3.4257,3.4739,3.4765,3.5037,3.5474,3.5451,3.5799,3.6236,3.6236,3.6259,3.6305,3.6305,3.6305,3.6305,3.6305,3.6305,3.6305,3.6305,3.6305,3.6305,3.6305,3.535,3.4078,3.2907,3.1641,3.0353,2.9242,2.9005,2.9005,2.9005,2.9005,2.9005,2.9005,2.9005,2.9005,2.9005,0.0,0.0,2.9005,2.9005,2.9005,2.9005,2.9005,2.9005,2.9005,2.9354,2.9574,2.9592,3.0308,3.0717,3.0791,3.1139,3.1373,3.141,3.141,3.141,3.141,3.141,3.141,3.141,3.141,3.141,3.141,3.141,3.141,3.1446,3.2203,3.257,3.2661,3.345,3.378,3.3817,3.3817,3.3817,3.3817,3.3817,3.4276,3.4954,3.4397,3.4685,3.4946,3.4946,3.5417,3.5809,3.5809,3.6305,3.656,3.6292,3.568,3.5157,3.4871,3.3898,3.3317,3.3317,3.3317,3.3317,3.3317,3.3317,3.3317,3.3317,3.3317,3.3317,3.3317,3.3317,3.3317,3.3317,3.3317,3.3317,3.3317,3.3317,3.3478,3.3729,3.3729,3.4027,3.4486,3.4486,3.4785,3.5271,3.5637,3.5862,3.6033,3.6356,3.6391,3.6305,3.6305,3.6305,3.6305,3.6305,3.6305,3.6305,3.6305,3.6305,3.6305,3.6305,3.6305,3.6305,3.6305,3.4836,3.3021,3.1785,3.0587,2.9568,2.9094,2.9005,2.9005,2.9005,2.9005,2.9005,2.9005,2.9005,2.9005,2.9005,0.0,2.9005,2.9005,2.9005,2.9005,2.9005,2.9005,2.9115,2.9354,2.9519,2.9813,3.0327,3.0607,3.0901,3.1171,3.1336,3.141,3.141,3.141,3.141,3.141,3.141,3.141,3.141,3.141,3.141,3.141,3.141,3.141,3.1446,3.2239,3.2588,3.2661,3.3468,3.3817,3.3817,3.3817,3.3817,3.3817,3.3817,3.4295,3.4991,3.4685,3.5155,3.5547,3.5547,3.6018,3.6384,3.6384,3.6907,3.7182,3.6955,3.6341,3.5858,3.5619,3.4677,3.3917,3.3669,3.3668,3.3544,3.3317,3.3317,3.3317,3.3317,3.3317,3.3317,3.3317,3.3317,3.3317,3.3317,3.3317,3.3386,3.3499,3.3499,3.3775,3.4257,3.4257,3.4532,3.5014,3.5014,3.5313,3.5776,3.62,3.6356,3.6359,3.6688,3.663,3.6305,3.6305,3.6305,3.6305,3.6305,3.6305,3.6305,3.6305,3.6305,3.6305,3.6305,3.6305,3.6223,3.5845,3.4196,3.2395,3.1583,3.0148,2.9005,2.9005,2.9005,2.9005,2.9005,2.9005,2.9005,2.9005,2.9005,2.9005,2.9005,2.9005,2.9005,2.9005,2.9005,2.906,2.9188,2.9207,2.9354,2.9758,2.9904,3.0216,3.0754,3.0932,3.1134,3.1391,3.141,3.141,3.141,3.141,3.141,3.141,3.141,3.141,3.141,3.141,3.141,3.141,3.141,3.141,3.1446,3.2239,3.2588,3.2661,3.3468,3.3817,3.3817,3.3817,3.3817,3.3817,3.3817,3.4295,3.4991,3.5312,3.573,3.6123,3.6123,3.6619,3.7011,3.7011,3.7508,3.7598,3.6803,3.6686,3.6427,3.5691,3.5595,3.5283,3.4459,3.4385,3.409,3.3367,3.3317,3.3317,3.3317,3.3317,3.3317,3.3317,3.3317,3.3317,3.3317,3.3317,3.357,3.4004,3.4004,3.4303,3.4808,3.4808,3.5083,3.5493,3.5493,3.5818,3.6305,3.6305,3.6305,3.6305,3.6305,3.6305,3.6305,3.6305,3.6305,3.6305,3.6305,3.6305,3.6305,3.6305,3.6305,3.6305,3.6305,3.6305,3.6036,3.483,3.3579,3.2602,3.2595,3.0772,2.9005,2.9005,2.9005,2.9005,2.9005,2.9005,2.9005,2.9005,2.9005,2.9005,2.9005,2.9005,2.9005,2.8993,2.8993,2.917,2.9556,2.9611,2.9776,3.0167,3.0552,3.0791,3.0791,3.1157,3.141,3.141,3.141,3.141,3.141,3.141,3.141,3.141,3.141,3.141,3.141,3.141,3.141,3.141,3.141,3.141,3.1465,3.2239,3.2588,3.2661,3.3486,3.3817,3.3817,3.3817,3.3817,3.3817,3.3817,3.4295,3.4991,3.5861,3.6332,3.6724,3.6724,3.7246,3.7639,3.7639,3.7795,3.7808,3.7575,3.7038,3.6615,3.6403,3.5403,3.4654,3.4434,3.3918,3.3544,3.3317,3.3317,3.3317,3.3317,3.3317,3.3317,3.3317,3.3317,3.3453,3.3798,3.3798,3.405,3.4555,3.4555,3.4831,3.5313,3.5313,3.5588,3.6075,3.6075,3.6167,3.6332,3.6522,3.6468,3.6332,3.6522,3.6468,3.6305,3.6305,3.6305,3.6305,3.6305,3.6305,3.6305,3.6305,3.6305,3.6305,3.6305,3.6305,3.6223,3.5845,3.4858,3.3522,3.1785,3.0148,2.9005,2.9005,2.9005,2.9005,2.9005,2.9005,2.9005,2.9005,2.9005,2.9005,2.9005,2.9005,2.9115,2.939,2.9427,2.9574,2.9965,3.002,3.0167,3.0571,3.0717,3.0932,3.1208,3.1336,3.141,3.141,3.141,3.141,3.141,3.141,3.141,3.141,3.141,3.141,3.141,3.141,3.141,3.141,3.141,3.1543,3.1854,3.2368,3.2771,3.3049,3.3562,3.3817,3.3817,3.3817,3.3817,3.3817,3.3817,3.4295,3.4991,3.6462,3.6959,3.7351,3.7351,3.7665,3.79,3.79,3.79,3.79,3.79,3.7482,3.7178,3.7178,3.6332,3.5523,3.4921,3.3917,3.3317,3.3317,3.3453,3.3568,3.3568,3.3775,3.3775,3.3568,3.3568,3.3821,3.4326,3.4326,3.4578,3.5083,3.5083,3.5336,3.5818,3.5818,3.6006,3.6332,3.6413,3.6413,3.6332,3.6603,3.6549,3.6332,3.6495,3.644,3.6305,3.6305,3.6305,3.6305,3.6305,3.6305,3.6305,3.6305,3.6305,3.6305,3.6305,3.6305,3.6305,3.6305,3.5052,3.3381,3.19,3.0616,2.9579,2.9094,2.9005,2.9005,2.9005,2.9005,2.9005,2.9005,2.9005,2.9005,2.9005,2.9133,2.9335,2.9574,2.9739,2.9996,3.0387,3.0442,3.0589,3.1006,3.1029,3.1153,3.1391,3.141,3.141,3.141,3.141,3.141,3.141,3.141,3.141,3.141,3.141,3.141,3.141,3.141,3.141,3.141,3.141,3.1616,3.2019,3.2423,3.2845,3.3214,3.3617,3.3817,3.3817,3.3817,3.3817,3.3817,3.3817,3.4295,3.4991,3.709,3.7534,3.79,3.79,3.79,3.79,3.79,3.79,3.79,3.79,3.79,3.79,3.79,3.7831,3.7204,3.5739,3.4188,3.334,3.3338,3.3752,3.4027,3.4073,3.4532,3.4601,3.4142,3.4096,3.4326,3.4854,3.4854,3.5106,3.5562,3.5562,3.5841,3.6305,3.6305,3.6305,3.6332,3.6603,3.6549,3.6332,3.6603,3.6549,3.6305,3.6305,3.6305,3.6305,3.6305,3.6305,3.6305,3.6305,3.6305,3.6305,3.6305,3.6305,3.6305,3.6305,3.6305,3.6305,3.6305,3.4586,3.2737,3.2631,3.1678,3.047,2.9272,2.9005,2.9005,2.9005,2.9005,2.9005,2.9005,2.9042,2.903,2.903,2.939,2.9666,2.9702,3.002,3.0406,3.0791,3.0846,3.1006,3.1373,3.141,3.141,3.141,3.141,3.141,3.141,3.141,3.141,3.141,3.141,3.141,3.141,3.141,3.141,3.141,3.141,3.141,3.141,3.141,3.1616,3.2074,3.2441,3.2845,3.3269,3.367,3.3817,3.3817,3.3817,3.3817,3.3817,3.3817,3.4295,3.5009,3.7717,3.7821,3.79,3.79,3.79,3.79,3.79,3.79,3.79,3.79,3.79,3.79,3.79,3.7343,3.6592,3.5691,3.4188,3.3478,3.3821,3.3935,3.4188,3.4601,3.4739,3.4923,3.5149,3.4808,3.4877,3.5359,3.5359,3.5611,3.6144,3.6144,3.619,3.6305,3.6305,3.6305,3.6332,3.6603,3.6549,3.6332,3.6603,3.6549,3.6305,3.6305,3.6305,3.6305,3.6305,3.6305,3.6305,3.6305,3.6305,3.6305,3.6305,3.6305,3.6305,3.6305,3.6305,3.6305,3.6305,3.5218,3.3832,3.2851,3.1678,3.047,2.9272,2.9005,2.9005,2.9005,2.9005,2.9005,2.9005,2.9262,2.9482,2.9482,2.9831,3.0167,3.051,3.0607,3.0809,3.1226,3.1281,3.1318,3.1391,3.141,3.141,3.141,3.141,3.141,3.141,3.141,3.141,3.141,3.141,3.141,3.141,3.141,3.141,3.141,3.141,3.141,3.141,3.141,3.1781,3.2478,3.2551,3.301,3.3688,3.378,3.3817,3.3817,3.3817,3.3817,3.3817,3.3817,3.4295,3.5083,3.79,3.79,3.79,3.79,3.79,3.79,3.79,3.79,3.79,3.79,3.79,3.79,3.79,3.7528,3.6906,3.6013,3.4517,3.3843,3.4349,3.4601,3.4854,3.5129,3.5382,3.5611,3.5864,3.5634,3.5634,3.5887,3.5887,3.6052,3.6305,3.6305,3.6305,3.6305,3.6305,3.6305,3.6332,3.6603,3.6549,3.6332,3.6603,3.6549,3.6305,3.6305,3.6305,3.6305,3.6305,3.6305,3.6305,3.6305,3.6305,3.6305,3.6305,3.6305,3.6305,3.6305,3.6305,3.6305,3.6305,3.4997,3.3438,3.2765,3.1265,2.9785,2.9124,2.9005,2.9005,2.9005,2.917,2.9299,2.9299,2.9629,2.9904,2.9904,3.0222,3.0552,3.0754,3.0987,3.1139,3.1373,3.141,3.141,3.141,3.141,3.141,3.141,3.141,3.141,3.141,3.141,3.141,3.141,3.141,3.141,3.141,3.141,3.141,3.141,3.141,3.141,3.141,3.1579,3.2019,3.2606,3.2808,3.3248,3.3817,3.3817,3.3817,3.3817,3.3817,3.3817,3.3817,3.3817,3.4295,3.5101,3.79,3.79,3.79,3.79,3.79,3.79,3.79,3.79,3.79,3.79,3.79,3.79,3.79,3.7863,3.7444,3.6407,3.524,3.4683,3.4877,3.5422,3.5699,3.5634,3.6075,3.6305,3.6305,3.6305,3.6305,3.6305,3.6305,3.6305,3.6305,3.6305,3.6305,3.6305,3.6305,3.6305,3.6332,3.6603,3.6549,3.6332,3.6603,3.6549,3.6305,3.6305,3.6305,3.6305,3.6305,3.6305,3.6305,3.6305,3.6305,3.6305,3.6305,3.6305,3.6305,3.6305,3.6305,3.625,3.6036,3.4336,3.2545,3.2338,3.0626,2.9023,2.9097,2.9115,2.9115,2.9115,2.9427,2.9702,2.9702,3.002,3.0296,3.0296,3.0626,3.0882,3.0882,3.1208,3.141,3.141,3.141,3.141,3.141,3.141,3.141,3.141,3.141,3.141,3.141,3.141,3.141,3.141,3.141,3.141,3.141,3.141,3.141,3.141,3.141,3.141,3.1428,3.1818,3.2221,3.2625,3.3046,3.3415,3.3817,3.3817,3.3817,3.3817,3.3817,3.3817,3.3835,3.3928,3.4423,3.5101,3.79,3.79,3.79,3.79,3.79,3.79,3.79,3.79,3.79,3.79,3.79,3.79,3.79,3.7732,3.7278,3.6383,3.6651,3.6432,3.5461,3.6162,3.6503,3.6194,3.6259,3.6305,3.6305,3.6305,3.6305,3.6305,3.6305,3.6305,3.6305,3.6305,3.6305,3.6305,3.6305,3.6305,3.6332,3.6603,3.6549,3.6332,3.6603,3.6549,3.6305,3.6305,3.6305,3.6305,3.6305,3.6305,3.6305,3.6305,3.6305,3.6305,3.6305,3.6305,3.6305,3.6305,3.6305,3.6064,3.5046,3.3691,3.2366,3.1294,3.002,2.9097,2.9445,2.9519,2.9519,2.9519,2.9849,3.0112,3.0112,3.0442,3.0717,3.0717,3.1079,3.1336,3.1336,3.1373,3.141,3.141,3.141,3.141,3.141,3.141,3.141,3.141,3.141,3.141,3.141,3.141,3.141,3.141,3.141,3.141,3.141,3.141,3.141,3.141,3.141,3.141,3.1428,3.1818,3.2221,3.2625,3.3046,3.3415,3.3817,3.3817,3.3817,3.3817,3.3817,3.3817,3.389,3.457,3.4899,3.5101,3.79,3.79,3.79,3.79,3.79,3.79,3.79,3.79,3.79,3.79,3.79,3.79,3.79,3.7715,3.7553,3.7417,3.7592,3.7397,3.664,3.698,3.6914,3.6336,3.6305,3.6305,3.6305,3.6305,3.6305,3.6305,3.6305,3.6305,3.6305,3.6305,3.6305,3.6305,3.6305,3.6305,3.6332,3.644,3.6413,3.6332,3.644,3.6413,3.6305,3.6305,3.6305,3.6305,3.6305,3.6305,3.6305,3.6305,3.6305,3.6305,3.6305,3.6305,3.6305,3.6305,3.6305,3.6059,3.483,3.3579,3.2309,3.1111,3.0073,2.939,2.9556,2.9959,3.0216,2.9965,3.0241,3.0534,3.0534,3.0846,3.1153,3.1153,3.13,3.141,3.141,3.141,3.141,3.141,3.141,3.141,3.141,3.141,3.141,3.141,3.141,3.141,3.141,3.141,3.141,3.141,3.141,3.141,3.141,3.141,3.141,3.141,3.141,3.1538,3.1744,3.2148,3.2551,3.2973,3.3376,3.3651,3.3817,3.3817,3.3817,3.3817,3.3817,3.3817,3.3908,3.4698,3.4991,3.5101]}]]